<?xml version="1.0" encoding="UTF-8" standalone="no" ?><gpx xmlns="http://www.topografix.com/GPX/1/1" xmlns:gpxx="http://www.garmin.com/xmlschemas/GpxExtensions/v3" xmlns:wptx1="http://www.garmin.com/xmlschemas/WaypointExtension/v1" xmlns:gpxtpx="http://www.garmin.com/xmlschemas/TrackPointExtension/v1" creator="GuideVTT.com" version="1.1" xmlns:xsi="http://www.w3.org/2001/XMLSchema-instance" xsi:schemaLocation="http://www.topografix.com/GPX/1/1 http://www.topografix.com/GPX/1/1/gpx.xsd http://www.garmin.com/xmlschemas/GpxExtensions/v3 http://www8.garmin.com/xmlschemas/GpxExtensionsv3.xsd http://www.garmin.com/xmlschemas/WaypointExtension/v1 http://www8.garmin.com/xmlschemas/WaypointExtensionv1.xsd http://www.garmin.com/xmlschemas/TrackPointExtension/v1 http://www.garmin.com/xmlschemas/TrackPointExtensionv1.xsd">
<metadata><link href="http://www.garmin.com"><text>Garmin International</text></link><time>2013-06-22T15:13:50Z</time></metadata>
<trk><name>2014-01-12-01-data.gpx</name><extensions><gpxx:TrackExtension><gpxx:DisplayColor>Cyan</gpxx:DisplayColor></gpxx:TrackExtension></extensions><trkseg>
<trkpt lat="48.482902" lon="2.665802"><ele></ele><time>2017-9-18T22:9:37Z</time></trkpt>
<trkpt lat="48.483012" lon="2.665785"><ele></ele><time>2017-9-18T22:9:40Z</time></trkpt>
<trkpt lat="48.482923" lon="2.665746"><ele></ele><time>2017-9-18T22:9:43Z</time></trkpt>
<trkpt lat="48.482846" lon="2.665611"><ele></ele><time>2017-9-18T22:9:46Z</time></trkpt>
<trkpt lat="48.482774" lon="2.665497"><ele></ele><time>2017-9-18T22:9:49Z</time></trkpt>
<trkpt lat="48.482687" lon="2.66539"><ele></ele><time>2017-9-18T22:9:52Z</time></trkpt>
<trkpt lat="48.482591" lon="2.665269"><ele></ele><time>2017-9-18T22:9:55Z</time></trkpt>
<trkpt lat="48.482522" lon="2.665162"><ele></ele><time>2017-9-18T22:9:58Z</time></trkpt>
<trkpt lat="48.482439" lon="2.66505"><ele></ele><time>2017-9-18T22:10:1Z</time></trkpt>
<trkpt lat="48.482364" lon="2.664954"><ele></ele><time>2017-9-18T22:10:4Z</time></trkpt>
<trkpt lat="48.482255" lon="2.664808"><ele></ele><time>2017-9-18T22:10:7Z</time></trkpt>
<trkpt lat="48.48214" lon="2.664674"><ele></ele><time>2017-9-18T22:10:10Z</time></trkpt>
<trkpt lat="48.482032" lon="2.664521"><ele></ele><time>2017-9-18T22:10:13Z</time></trkpt>
<trkpt lat="48.481968" lon="2.664421"><ele></ele><time>2017-9-18T22:10:16Z</time></trkpt>
<trkpt lat="48.481868" lon="2.664267"><ele></ele><time>2017-9-18T22:10:19Z</time></trkpt>
<trkpt lat="48.481768" lon="2.664125"><ele></ele><time>2017-9-18T22:10:22Z</time></trkpt>
<trkpt lat="48.481651" lon="2.663984"><ele></ele><time>2017-9-18T22:10:25Z</time></trkpt>
<trkpt lat="48.481556" lon="2.663868"><ele></ele><time>2017-9-18T22:10:28Z</time></trkpt>
<trkpt lat="48.481439" lon="2.663708"><ele></ele><time>2017-9-18T22:10:31Z</time></trkpt>
<trkpt lat="48.481375" lon="2.663612"><ele></ele><time>2017-9-18T22:10:34Z</time></trkpt>
<trkpt lat="48.481261" lon="2.663431"><ele></ele><time>2017-9-18T22:10:37Z</time></trkpt>
<trkpt lat="48.481132" lon="2.663269"><ele></ele><time>2017-9-18T22:10:40Z</time></trkpt>
<trkpt lat="48.481009" lon="2.663098"><ele></ele><time>2017-9-18T22:10:43Z</time></trkpt>
<trkpt lat="48.4809" lon="2.662949"><ele></ele><time>2017-9-18T22:10:46Z</time></trkpt>
<trkpt lat="48.480792" lon="2.662789"><ele></ele><time>2017-9-18T22:10:49Z</time></trkpt>
<trkpt lat="48.480652" lon="2.662592"><ele></ele><time>2017-9-18T22:10:52Z</time></trkpt>
<trkpt lat="48.480558" lon="2.662487"><ele></ele><time>2017-9-18T22:10:55Z</time></trkpt>
<trkpt lat="48.480483" lon="2.662352"><ele></ele><time>2017-9-18T22:10:58Z</time></trkpt>
<trkpt lat="48.480406" lon="2.662196"><ele></ele><time>2017-9-18T22:11:1Z</time></trkpt>
<trkpt lat="48.480318" lon="2.662095"><ele></ele><time>2017-9-18T22:11:4Z</time></trkpt>
<trkpt lat="48.480212" lon="2.66202"><ele></ele><time>2017-9-18T22:11:7Z</time></trkpt>
<trkpt lat="48.480117" lon="2.66193"><ele></ele><time>2017-9-18T22:11:10Z</time></trkpt>
<trkpt lat="48.480008" lon="2.661907"><ele></ele><time>2017-9-18T22:11:13Z</time></trkpt>
<trkpt lat="48.47989" lon="2.661908"><ele></ele><time>2017-9-18T22:11:16Z</time></trkpt>
<trkpt lat="48.479754" lon="2.661863"><ele></ele><time>2017-9-18T22:11:19Z</time></trkpt>
<trkpt lat="48.479659" lon="2.66186"><ele></ele><time>2017-9-18T22:11:22Z</time></trkpt>
<trkpt lat="48.479549" lon="2.661835"><ele></ele><time>2017-9-18T22:11:25Z</time></trkpt>
<trkpt lat="48.479338" lon="2.66181"><ele></ele><time>2017-9-18T22:11:28Z</time></trkpt>
<trkpt lat="48.479234" lon="2.661797"><ele></ele><time>2017-9-18T22:11:31Z</time></trkpt>
<trkpt lat="48.479136" lon="2.661778"><ele></ele><time>2017-9-18T22:11:34Z</time></trkpt>
<trkpt lat="48.479031" lon="2.661763"><ele></ele><time>2017-9-18T22:11:37Z</time></trkpt>
<trkpt lat="48.478918" lon="2.661731"><ele></ele><time>2017-9-18T22:11:40Z</time></trkpt>
<trkpt lat="48.478814" lon="2.661716"><ele></ele><time>2017-9-18T22:11:43Z</time></trkpt>
<trkpt lat="48.478708" lon="2.661694"><ele></ele><time>2017-9-18T22:11:46Z</time></trkpt>
<trkpt lat="48.478608" lon="2.6617"><ele></ele><time>2017-9-18T22:11:49Z</time></trkpt>
<trkpt lat="48.47848" lon="2.661688"><ele></ele><time>2017-9-18T22:11:52Z</time></trkpt>
<trkpt lat="48.478382" lon="2.661664"><ele></ele><time>2017-9-18T22:11:55Z</time></trkpt>
<trkpt lat="48.478276" lon="2.661644"><ele></ele><time>2017-9-18T22:11:58Z</time></trkpt>
<trkpt lat="48.478143" lon="2.661623"><ele></ele><time>2017-9-18T22:12:1Z</time></trkpt>
<trkpt lat="48.47804" lon="2.661608"><ele></ele><time>2017-9-18T22:12:4Z</time></trkpt>
<trkpt lat="48.477935" lon="2.661579"><ele></ele><time>2017-9-18T22:12:7Z</time></trkpt>
<trkpt lat="48.477825" lon="2.661567"><ele></ele><time>2017-9-18T22:12:10Z</time></trkpt>
<trkpt lat="48.477734" lon="2.661549"><ele></ele><time>2017-9-18T22:12:13Z</time></trkpt>
<trkpt lat="48.47762" lon="2.661544"><ele></ele><time>2017-9-18T22:12:16Z</time></trkpt>
<trkpt lat="48.477526" lon="2.661511"><ele></ele><time>2017-9-18T22:12:19Z</time></trkpt>
<trkpt lat="48.477433" lon="2.661491"><ele></ele><time>2017-9-18T22:12:22Z</time></trkpt>
<trkpt lat="48.477343" lon="2.661484"><ele></ele><time>2017-9-18T22:12:25Z</time></trkpt>
<trkpt lat="48.477202" lon="2.661474"><ele></ele><time>2017-9-18T22:12:28Z</time></trkpt>
<trkpt lat="48.477107" lon="2.661457"><ele></ele><time>2017-9-18T22:12:31Z</time></trkpt>
<trkpt lat="48.476982" lon="2.66142"><ele></ele><time>2017-9-18T22:12:34Z</time></trkpt>
<trkpt lat="48.476869" lon="2.661403"><ele></ele><time>2017-9-18T22:12:37Z</time></trkpt>
<trkpt lat="48.476748" lon="2.66139"><ele></ele><time>2017-9-18T22:12:40Z</time></trkpt>
<trkpt lat="48.476627" lon="2.661372"><ele></ele><time>2017-9-18T22:12:43Z</time></trkpt>
<trkpt lat="48.476534" lon="2.66135"><ele></ele><time>2017-9-18T22:12:46Z</time></trkpt>
<trkpt lat="48.476401" lon="2.661326"><ele></ele><time>2017-9-18T22:12:49Z</time></trkpt>
<trkpt lat="48.476171" lon="2.661289"><ele></ele><time>2017-9-18T22:12:52Z</time></trkpt>
<trkpt lat="48.476018" lon="2.661278"><ele></ele><time>2017-9-18T22:12:55Z</time></trkpt>
<trkpt lat="48.47592" lon="2.661244"><ele></ele><time>2017-9-18T22:12:58Z</time></trkpt>
<trkpt lat="48.475823" lon="2.66123"><ele></ele><time>2017-9-18T22:13:1Z</time></trkpt>
<trkpt lat="48.475727" lon="2.661228"><ele></ele><time>2017-9-18T22:13:4Z</time></trkpt>
<trkpt lat="48.475597" lon="2.661214"><ele></ele><time>2017-9-18T22:13:7Z</time></trkpt>
<trkpt lat="48.475487" lon="2.661192"><ele></ele><time>2017-9-18T22:13:10Z</time></trkpt>
<trkpt lat="48.475353" lon="2.66118"><ele></ele><time>2017-9-18T22:13:13Z</time></trkpt>
<trkpt lat="48.475263" lon="2.661169"><ele></ele><time>2017-9-18T22:13:16Z</time></trkpt>
<trkpt lat="48.475173" lon="2.661154"><ele></ele><time>2017-9-18T22:13:19Z</time></trkpt>
<trkpt lat="48.475068" lon="2.661128"><ele></ele><time>2017-9-18T22:13:22Z</time></trkpt>
<trkpt lat="48.474956" lon="2.661114"><ele></ele><time>2017-9-18T22:13:25Z</time></trkpt>
<trkpt lat="48.474818" lon="2.661105"><ele></ele><time>2017-9-18T22:13:28Z</time></trkpt>
<trkpt lat="48.47469" lon="2.661097"><ele></ele><time>2017-9-18T22:13:31Z</time></trkpt>
<trkpt lat="48.474562" lon="2.661081"><ele></ele><time>2017-9-18T22:13:34Z</time></trkpt>
<trkpt lat="48.47444" lon="2.661051"><ele></ele><time>2017-9-18T22:13:37Z</time></trkpt>
<trkpt lat="48.474343" lon="2.661042"><ele></ele><time>2017-9-18T22:13:40Z</time></trkpt>
<trkpt lat="48.474239" lon="2.661041"><ele></ele><time>2017-9-18T22:13:43Z</time></trkpt>
<trkpt lat="48.474144" lon="2.661053"><ele></ele><time>2017-9-18T22:13:46Z</time></trkpt>
<trkpt lat="48.474043" lon="2.661028"><ele></ele><time>2017-9-18T22:13:49Z</time></trkpt>
<trkpt lat="48.473912" lon="2.660995"><ele></ele><time>2017-9-18T22:13:52Z</time></trkpt>
<trkpt lat="48.473786" lon="2.660987"><ele></ele><time>2017-9-18T22:13:55Z</time></trkpt>
<trkpt lat="48.473668" lon="2.660973"><ele></ele><time>2017-9-18T22:13:58Z</time></trkpt>
<trkpt lat="48.473537" lon="2.660948"><ele></ele><time>2017-9-18T22:14:1Z</time></trkpt>
<trkpt lat="48.473412" lon="2.660945"><ele></ele><time>2017-9-18T22:14:4Z</time></trkpt>
<trkpt lat="48.473173" lon="2.660903"><ele></ele><time>2017-9-18T22:14:7Z</time></trkpt>
<trkpt lat="48.473081" lon="2.660894"><ele></ele><time>2017-9-18T22:14:10Z</time></trkpt>
<trkpt lat="48.472944" lon="2.660882"><ele></ele><time>2017-9-18T22:14:13Z</time></trkpt>
<trkpt lat="48.472817" lon="2.660848"><ele></ele><time>2017-9-18T22:14:16Z</time></trkpt>
<trkpt lat="48.472702" lon="2.660824"><ele></ele><time>2017-9-18T22:14:19Z</time></trkpt>
<trkpt lat="48.472604" lon="2.660822"><ele></ele><time>2017-9-18T22:14:22Z</time></trkpt>
<trkpt lat="48.472497" lon="2.660805"><ele></ele><time>2017-9-18T22:14:25Z</time></trkpt>
<trkpt lat="48.472385" lon="2.660806"><ele></ele><time>2017-9-18T22:14:28Z</time></trkpt>
<trkpt lat="48.47229" lon="2.660814"><ele></ele><time>2017-9-18T22:14:31Z</time></trkpt>
<trkpt lat="48.472184" lon="2.660829"><ele></ele><time>2017-9-18T22:14:34Z</time></trkpt>
<trkpt lat="48.47207" lon="2.660919"><ele></ele><time>2017-9-18T22:14:37Z</time></trkpt>
<trkpt lat="48.471954" lon="2.660977"><ele></ele><time>2017-9-18T22:14:40Z</time></trkpt>
<trkpt lat="48.471826" lon="2.661036"><ele></ele><time>2017-9-18T22:14:43Z</time></trkpt>
<trkpt lat="48.471708" lon="2.661097"><ele></ele><time>2017-9-18T22:14:46Z</time></trkpt>
<trkpt lat="48.471601" lon="2.661162"><ele></ele><time>2017-9-18T22:14:49Z</time></trkpt>
<trkpt lat="48.471476" lon="2.661217"><ele></ele><time>2017-9-18T22:14:52Z</time></trkpt>
<trkpt lat="48.471385" lon="2.661255"><ele></ele><time>2017-9-18T22:14:55Z</time></trkpt>
<trkpt lat="48.471279" lon="2.661287"><ele></ele><time>2017-9-18T22:14:58Z</time></trkpt>
<trkpt lat="48.471186" lon="2.661358"><ele></ele><time>2017-9-18T22:15:1Z</time></trkpt>
<trkpt lat="48.471066" lon="2.661443"><ele></ele><time>2017-9-18T22:15:4Z</time></trkpt>
<trkpt lat="48.470973" lon="2.661479"><ele></ele><time>2017-9-18T22:15:7Z</time></trkpt>
<trkpt lat="48.470843" lon="2.661539"><ele></ele><time>2017-9-18T22:15:10Z</time></trkpt>
<trkpt lat="48.470722" lon="2.661579"><ele></ele><time>2017-9-18T22:15:13Z</time></trkpt>
<trkpt lat="48.470535" lon="2.661629"><ele></ele><time>2017-9-18T22:15:16Z</time></trkpt>
<trkpt lat="48.470451" lon="2.661701"><ele></ele><time>2017-9-18T22:15:19Z</time></trkpt>
<trkpt lat="48.470334" lon="2.66179"><ele></ele><time>2017-9-18T22:15:22Z</time></trkpt>
<trkpt lat="48.47025" lon="2.661868"><ele></ele><time>2017-9-18T22:15:25Z</time></trkpt>
<trkpt lat="48.470157" lon="2.661932"><ele></ele><time>2017-9-18T22:15:28Z</time></trkpt>
<trkpt lat="48.470035" lon="2.662"><ele></ele><time>2017-9-18T22:15:31Z</time></trkpt>
<trkpt lat="48.469915" lon="2.662062"><ele></ele><time>2017-9-18T22:15:34Z</time></trkpt>
<trkpt lat="48.469784" lon="2.662104"><ele></ele><time>2017-9-18T22:15:37Z</time></trkpt>
<trkpt lat="48.469651" lon="2.662153"><ele></ele><time>2017-9-18T22:15:40Z</time></trkpt>
<trkpt lat="48.469524" lon="2.662228"><ele></ele><time>2017-9-18T22:15:43Z</time></trkpt>
<trkpt lat="48.469392" lon="2.662268"><ele></ele><time>2017-9-18T22:15:46Z</time></trkpt>
<trkpt lat="48.469286" lon="2.662332"><ele></ele><time>2017-9-18T22:15:49Z</time></trkpt>
<trkpt lat="48.469165" lon="2.662399"><ele></ele><time>2017-9-18T22:15:52Z</time></trkpt>
<trkpt lat="48.469057" lon="2.662469"><ele></ele><time>2017-9-18T22:15:55Z</time></trkpt>
<trkpt lat="48.468954" lon="2.662493"><ele></ele><time>2017-9-18T22:15:58Z</time></trkpt>
<trkpt lat="48.468866" lon="2.662534"><ele></ele><time>2017-9-18T22:16:1Z</time></trkpt>
<trkpt lat="48.468727" lon="2.66259"><ele></ele><time>2017-9-18T22:16:4Z</time></trkpt>
<trkpt lat="48.468626" lon="2.662666"><ele></ele><time>2017-9-18T22:16:7Z</time></trkpt>
<trkpt lat="48.468517" lon="2.662756"><ele></ele><time>2017-9-18T22:16:10Z</time></trkpt>
<trkpt lat="48.468386" lon="2.662799"><ele></ele><time>2017-9-18T22:16:13Z</time></trkpt>
<trkpt lat="48.468265" lon="2.662846"><ele></ele><time>2017-9-18T22:16:16Z</time></trkpt>
<trkpt lat="48.468173" lon="2.662876"><ele></ele><time>2017-9-18T22:16:19Z</time></trkpt>
<trkpt lat="48.468071" lon="2.662966"><ele></ele><time>2017-9-18T22:16:22Z</time></trkpt>
<trkpt lat="48.467884" lon="2.663091"><ele></ele><time>2017-9-18T22:16:25Z</time></trkpt>
<trkpt lat="48.467784" lon="2.663068"><ele></ele><time>2017-9-18T22:16:28Z</time></trkpt>
<trkpt lat="48.467689" lon="2.663037"><ele></ele><time>2017-9-18T22:16:31Z</time></trkpt>
<trkpt lat="48.467573" lon="2.662957"><ele></ele><time>2017-9-18T22:16:34Z</time></trkpt>
<trkpt lat="48.467473" lon="2.662911"><ele></ele><time>2017-9-18T22:16:37Z</time></trkpt>
<trkpt lat="48.467373" lon="2.662839"><ele></ele><time>2017-9-18T22:16:40Z</time></trkpt>
<trkpt lat="48.46726" lon="2.662792"><ele></ele><time>2017-9-18T22:16:43Z</time></trkpt>
<trkpt lat="48.467155" lon="2.662727"><ele></ele><time>2017-9-18T22:16:46Z</time></trkpt>
<trkpt lat="48.46707" lon="2.662642"><ele></ele><time>2017-9-18T22:16:49Z</time></trkpt>
<trkpt lat="48.466973" lon="2.662554"><ele></ele><time>2017-9-18T22:16:52Z</time></trkpt>
<trkpt lat="48.466879" lon="2.662496"><ele></ele><time>2017-9-18T22:16:55Z</time></trkpt>
<trkpt lat="48.466792" lon="2.662433"><ele></ele><time>2017-9-18T22:16:58Z</time></trkpt>
<trkpt lat="48.466703" lon="2.662345"><ele></ele><time>2017-9-18T22:17:1Z</time></trkpt>
<trkpt lat="48.466599" lon="2.662258"><ele></ele><time>2017-9-18T22:17:4Z</time></trkpt>
<trkpt lat="48.466509" lon="2.662182"><ele></ele><time>2017-9-18T22:17:7Z</time></trkpt>
<trkpt lat="48.466409" lon="2.662095"><ele></ele><time>2017-9-18T22:17:10Z</time></trkpt>
<trkpt lat="48.466285" lon="2.662017"><ele></ele><time>2017-9-18T22:17:13Z</time></trkpt>
<trkpt lat="48.466194" lon="2.661963"><ele></ele><time>2017-9-18T22:17:16Z</time></trkpt>
<trkpt lat="48.466086" lon="2.661889"><ele></ele><time>2017-9-18T22:17:19Z</time></trkpt>
<trkpt lat="48.465994" lon="2.661798"><ele></ele><time>2017-9-18T22:17:22Z</time></trkpt>
<trkpt lat="48.4659" lon="2.661733"><ele></ele><time>2017-9-18T22:17:25Z</time></trkpt>
<trkpt lat="48.465802" lon="2.661657"><ele></ele><time>2017-9-18T22:17:28Z</time></trkpt>
<trkpt lat="48.465695" lon="2.661584"><ele></ele><time>2017-9-18T22:17:31Z</time></trkpt>
<trkpt lat="48.465518" lon="2.661459"><ele></ele><time>2017-9-18T22:17:34Z</time></trkpt>
<trkpt lat="48.46541" lon="2.661375"><ele></ele><time>2017-9-18T22:17:37Z</time></trkpt>
<trkpt lat="48.465306" lon="2.661287"><ele></ele><time>2017-9-18T22:17:40Z</time></trkpt>
<trkpt lat="48.465202" lon="2.661223"><ele></ele><time>2017-9-18T22:17:43Z</time></trkpt>
<trkpt lat="48.465117" lon="2.66117"><ele></ele><time>2017-9-18T22:17:46Z</time></trkpt>
<trkpt lat="48.465034" lon="2.661108"><ele></ele><time>2017-9-18T22:17:49Z</time></trkpt>
<trkpt lat="48.464919" lon="2.661022"><ele></ele><time>2017-9-18T22:17:52Z</time></trkpt>
<trkpt lat="48.464827" lon="2.660957"><ele></ele><time>2017-9-18T22:17:55Z</time></trkpt>
<trkpt lat="48.464711" lon="2.660877"><ele></ele><time>2017-9-18T22:17:58Z</time></trkpt>
<trkpt lat="48.464602" lon="2.660762"><ele></ele><time>2017-9-18T22:18:1Z</time></trkpt>
<trkpt lat="48.464481" lon="2.660761"><ele></ele><time>2017-9-18T22:18:4Z</time></trkpt>
<trkpt lat="48.464403" lon="2.660854"><ele></ele><time>2017-9-18T22:18:7Z</time></trkpt>
<trkpt lat="48.464292" lon="2.660788"><ele></ele><time>2017-9-18T22:18:10Z</time></trkpt>
<trkpt lat="48.464185" lon="2.660707"><ele></ele><time>2017-9-18T22:18:13Z</time></trkpt>
<trkpt lat="48.464089" lon="2.660654"><ele></ele><time>2017-9-18T22:18:16Z</time></trkpt>
<trkpt lat="48.463978" lon="2.660615"><ele></ele><time>2017-9-18T22:18:19Z</time></trkpt>
<trkpt lat="48.463769" lon="2.660517"><ele></ele><time>2017-9-18T22:18:22Z</time></trkpt>
<trkpt lat="48.463672" lon="2.660505"><ele></ele><time>2017-9-18T22:18:25Z</time></trkpt>
<trkpt lat="48.463557" lon="2.660476"><ele></ele><time>2017-9-18T22:18:28Z</time></trkpt>
<trkpt lat="48.463457" lon="2.660451"><ele></ele><time>2017-9-18T22:18:31Z</time></trkpt>
<trkpt lat="48.463366" lon="2.660437"><ele></ele><time>2017-9-18T22:18:34Z</time></trkpt>
<trkpt lat="48.46326" lon="2.660418"><ele></ele><time>2017-9-18T22:18:37Z</time></trkpt>
<trkpt lat="48.463163" lon="2.660426"><ele></ele><time>2017-9-18T22:18:40Z</time></trkpt>
<trkpt lat="48.463054" lon="2.660413"><ele></ele><time>2017-9-18T22:18:43Z</time></trkpt>
<trkpt lat="48.462964" lon="2.660381"><ele></ele><time>2017-9-18T22:18:46Z</time></trkpt>
<trkpt lat="48.462873" lon="2.660364"><ele></ele><time>2017-9-18T22:18:49Z</time></trkpt>
<trkpt lat="48.462778" lon="2.660346"><ele></ele><time>2017-9-18T22:18:52Z</time></trkpt>
<trkpt lat="48.462656" lon="2.660333"><ele></ele><time>2017-9-18T22:18:55Z</time></trkpt>
<trkpt lat="48.462541" lon="2.660319"><ele></ele><time>2017-9-18T22:18:58Z</time></trkpt>
<trkpt lat="48.462439" lon="2.660307"><ele></ele><time>2017-9-18T22:19:1Z</time></trkpt>
<trkpt lat="48.462348" lon="2.660297"><ele></ele><time>2017-9-18T22:19:4Z</time></trkpt>
<trkpt lat="48.462245" lon="2.660307"><ele></ele><time>2017-9-18T22:19:7Z</time></trkpt>
<trkpt lat="48.462151" lon="2.660319"><ele></ele><time>2017-9-18T22:19:10Z</time></trkpt>
<trkpt lat="48.461965" lon="2.660382"><ele></ele><time>2017-9-18T22:19:13Z</time></trkpt>
<trkpt lat="48.461857" lon="2.660395"><ele></ele><time>2017-9-18T22:19:16Z</time></trkpt>
<trkpt lat="48.461763" lon="2.66044"><ele></ele><time>2017-9-18T22:19:19Z</time></trkpt>
<trkpt lat="48.461666" lon="2.660481"><ele></ele><time>2017-9-18T22:19:22Z</time></trkpt>
<trkpt lat="48.461571" lon="2.660526"><ele></ele><time>2017-9-18T22:19:25Z</time></trkpt>
<trkpt lat="48.461467" lon="2.660494"><ele></ele><time>2017-9-18T22:19:28Z</time></trkpt>
<trkpt lat="48.461376" lon="2.660422"><ele></ele><time>2017-9-18T22:19:31Z</time></trkpt>
<trkpt lat="48.461289" lon="2.660379"><ele></ele><time>2017-9-18T22:19:34Z</time></trkpt>
<trkpt lat="48.461181" lon="2.660391"><ele></ele><time>2017-9-18T22:19:37Z</time></trkpt>
<trkpt lat="48.461095" lon="2.660448"><ele></ele><time>2017-9-18T22:19:40Z</time></trkpt>
<trkpt lat="48.460999" lon="2.660506"><ele></ele><time>2017-9-18T22:19:43Z</time></trkpt>
<trkpt lat="48.460819" lon="2.660625"><ele></ele><time>2017-9-18T22:19:46Z</time></trkpt>
<trkpt lat="48.460736" lon="2.660729"><ele></ele><time>2017-9-18T22:19:49Z</time></trkpt>
<trkpt lat="48.460658" lon="2.660839"><ele></ele><time>2017-9-18T22:19:52Z</time></trkpt>
<trkpt lat="48.460594" lon="2.660975"><ele></ele><time>2017-9-18T22:19:55Z</time></trkpt>
<trkpt lat="48.460508" lon="2.661076"><ele></ele><time>2017-9-18T22:19:58Z</time></trkpt>
<trkpt lat="48.460419" lon="2.661121"><ele></ele><time>2017-9-18T22:20:1Z</time></trkpt>
<trkpt lat="48.460312" lon="2.661178"><ele></ele><time>2017-9-18T22:20:4Z</time></trkpt>
<trkpt lat="48.460212" lon="2.661274"><ele></ele><time>2017-9-18T22:20:7Z</time></trkpt>
<trkpt lat="48.460104" lon="2.66134"><ele></ele><time>2017-9-18T22:20:10Z</time></trkpt>
<trkpt lat="48.460009" lon="2.661393"><ele></ele><time>2017-9-18T22:20:13Z</time></trkpt>
<trkpt lat="48.459912" lon="2.661385"><ele></ele><time>2017-9-18T22:20:16Z</time></trkpt>
<trkpt lat="48.459778" lon="2.661363"><ele></ele><time>2017-9-18T22:20:19Z</time></trkpt>
<trkpt lat="48.459657" lon="2.661303"><ele></ele><time>2017-9-18T22:20:22Z</time></trkpt>
<trkpt lat="48.459546" lon="2.661236"><ele></ele><time>2017-9-18T22:20:25Z</time></trkpt>
<trkpt lat="48.459455" lon="2.661169"><ele></ele><time>2017-9-18T22:20:28Z</time></trkpt>
<trkpt lat="48.459352" lon="2.661093"><ele></ele><time>2017-9-18T22:20:31Z</time></trkpt>
<trkpt lat="48.459255" lon="2.661028"><ele></ele><time>2017-9-18T22:20:34Z</time></trkpt>
<trkpt lat="48.459161" lon="2.660975"><ele></ele><time>2017-9-18T22:20:37Z</time></trkpt>
<trkpt lat="48.459071" lon="2.660914"><ele></ele><time>2017-9-18T22:20:40Z</time></trkpt>
<trkpt lat="48.458864" lon="2.660802"><ele></ele><time>2017-9-18T22:20:43Z</time></trkpt>
<trkpt lat="48.458777" lon="2.660745"><ele></ele><time>2017-9-18T22:20:46Z</time></trkpt>
<trkpt lat="48.458675" lon="2.660694"><ele></ele><time>2017-9-18T22:20:49Z</time></trkpt>
<trkpt lat="48.458613" lon="2.660576"><ele></ele><time>2017-9-18T22:20:52Z</time></trkpt>
<trkpt lat="48.458586" lon="2.660431"><ele></ele><time>2017-9-18T22:20:55Z</time></trkpt>
<trkpt lat="48.458563" lon="2.660278"><ele></ele><time>2017-9-18T22:20:58Z</time></trkpt>
<trkpt lat="48.458581" lon="2.660129"><ele></ele><time>2017-9-18T22:21:1Z</time></trkpt>
<trkpt lat="48.458571" lon="2.659988"><ele></ele><time>2017-9-18T22:21:4Z</time></trkpt>
<trkpt lat="48.45856" lon="2.659821"><ele></ele><time>2017-9-18T22:21:7Z</time></trkpt>
<trkpt lat="48.458563" lon="2.659654"><ele></ele><time>2017-9-18T22:21:10Z</time></trkpt>
<trkpt lat="48.458538" lon="2.65936"><ele></ele><time>2017-9-18T22:21:13Z</time></trkpt>
<trkpt lat="48.458511" lon="2.65923"><ele></ele><time>2017-9-18T22:21:16Z</time></trkpt>
<trkpt lat="48.458452" lon="2.659116"><ele></ele><time>2017-9-18T22:21:19Z</time></trkpt>
<trkpt lat="48.458388" lon="2.658998"><ele></ele><time>2017-9-18T22:21:22Z</time></trkpt>
<trkpt lat="48.458314" lon="2.65888"><ele></ele><time>2017-9-18T22:21:25Z</time></trkpt>
<trkpt lat="48.458254" lon="2.658747"><ele></ele><time>2017-9-18T22:21:28Z</time></trkpt>
<trkpt lat="48.458185" lon="2.658636"><ele></ele><time>2017-9-18T22:21:31Z</time></trkpt>
<trkpt lat="48.45811" lon="2.658516"><ele></ele><time>2017-9-18T22:21:34Z</time></trkpt>
<trkpt lat="48.458042" lon="2.658375"><ele></ele><time>2017-9-18T22:21:37Z</time></trkpt>
<trkpt lat="48.457913" lon="2.658183"><ele></ele><time>2017-9-18T22:21:40Z</time></trkpt>
<trkpt lat="48.457826" lon="2.658131"><ele></ele><time>2017-9-18T22:21:43Z</time></trkpt>
<trkpt lat="48.457738" lon="2.658094"><ele></ele><time>2017-9-18T22:21:46Z</time></trkpt>
<trkpt lat="48.457635" lon="2.658063"><ele></ele><time>2017-9-18T22:21:49Z</time></trkpt>
<trkpt lat="48.457569" lon="2.657949"><ele></ele><time>2017-9-18T22:21:52Z</time></trkpt>
<trkpt lat="48.45752" lon="2.657832"><ele></ele><time>2017-9-18T22:21:55Z</time></trkpt>
<trkpt lat="48.457524" lon="2.657683"><ele></ele><time>2017-9-18T22:21:58Z</time></trkpt>
<trkpt lat="48.457649" lon="2.65751"><ele></ele><time>2017-9-18T22:22:1Z</time></trkpt>
<trkpt lat="48.457744" lon="2.657464"><ele></ele><time>2017-9-18T22:22:4Z</time></trkpt>
<trkpt lat="48.457851" lon="2.657461"><ele></ele><time>2017-9-18T22:22:7Z</time></trkpt>
<trkpt lat="48.457951" lon="2.657458"><ele></ele><time>2017-9-18T22:22:10Z</time></trkpt>
<trkpt lat="48.458051" lon="2.657454"><ele></ele><time>2017-9-18T22:22:13Z</time></trkpt>
<trkpt lat="48.458143" lon="2.657385"><ele></ele><time>2017-9-18T22:22:16Z</time></trkpt>
<trkpt lat="48.458252" lon="2.657343"><ele></ele><time>2017-9-18T22:22:19Z</time></trkpt>
<trkpt lat="48.458338" lon="2.657239"><ele></ele><time>2017-9-18T22:22:22Z</time></trkpt>
<trkpt lat="48.458426" lon="2.657133"><ele></ele><time>2017-9-18T22:22:25Z</time></trkpt>
<trkpt lat="48.45849" lon="2.657027"><ele></ele><time>2017-9-18T22:22:28Z</time></trkpt>
<trkpt lat="48.458554" lon="2.656919"><ele></ele><time>2017-9-18T22:22:31Z</time></trkpt>
<trkpt lat="48.458624" lon="2.656823"><ele></ele><time>2017-9-18T22:22:34Z</time></trkpt>
<trkpt lat="48.458755" lon="2.656565"><ele></ele><time>2017-9-18T22:22:37Z</time></trkpt>
<trkpt lat="48.458819" lon="2.656455"><ele></ele><time>2017-9-18T22:22:40Z</time></trkpt>
<trkpt lat="48.458892" lon="2.656327"><ele></ele><time>2017-9-18T22:22:43Z</time></trkpt>
<trkpt lat="48.458945" lon="2.656203"><ele></ele><time>2017-9-18T22:22:46Z</time></trkpt>
<trkpt lat="48.459008" lon="2.656062"><ele></ele><time>2017-9-18T22:22:49Z</time></trkpt>
<trkpt lat="48.459082" lon="2.655932"><ele></ele><time>2017-9-18T22:22:52Z</time></trkpt>
<trkpt lat="48.459142" lon="2.655762"><ele></ele><time>2017-9-18T22:22:55Z</time></trkpt>
<trkpt lat="48.459218" lon="2.655628"><ele></ele><time>2017-9-18T22:22:58Z</time></trkpt>
<trkpt lat="48.459275" lon="2.655496"><ele></ele><time>2017-9-18T22:23:1Z</time></trkpt>
<trkpt lat="48.459324" lon="2.655381"><ele></ele><time>2017-9-18T22:23:4Z</time></trkpt>
<trkpt lat="48.459386" lon="2.655225"><ele></ele><time>2017-9-18T22:23:7Z</time></trkpt>
<trkpt lat="48.459431" lon="2.655067"><ele></ele><time>2017-9-18T22:23:10Z</time></trkpt>
<trkpt lat="48.459498" lon="2.654905"><ele></ele><time>2017-9-18T22:23:13Z</time></trkpt>
<trkpt lat="48.459554" lon="2.65476"><ele></ele><time>2017-9-18T22:23:16Z</time></trkpt>
<trkpt lat="48.45961" lon="2.654624"><ele></ele><time>2017-9-18T22:23:19Z</time></trkpt>
<trkpt lat="48.459652" lon="2.654447"><ele></ele><time>2017-9-18T22:23:22Z</time></trkpt>
<trkpt lat="48.45971" lon="2.65429"><ele></ele><time>2017-9-18T22:23:25Z</time></trkpt>
<trkpt lat="48.459731" lon="2.654124"><ele></ele><time>2017-9-18T22:23:28Z</time></trkpt>
<trkpt lat="48.45967" lon="2.653961"><ele></ele><time>2017-9-18T22:23:31Z</time></trkpt>
<trkpt lat="48.459504" lon="2.65375"><ele></ele><time>2017-9-18T22:23:34Z</time></trkpt>
<trkpt lat="48.459428" lon="2.653648"><ele></ele><time>2017-9-18T22:23:37Z</time></trkpt>
<trkpt lat="48.459277" lon="2.653482"><ele></ele><time>2017-9-18T22:23:40Z</time></trkpt>
<trkpt lat="48.459174" lon="2.653415"><ele></ele><time>2017-9-18T22:23:43Z</time></trkpt>
<trkpt lat="48.459078" lon="2.65337"><ele></ele><time>2017-9-18T22:23:46Z</time></trkpt>
<trkpt lat="48.458949" lon="2.653402"><ele></ele><time>2017-9-18T22:23:49Z</time></trkpt>
<trkpt lat="48.458835" lon="2.653385"><ele></ele><time>2017-9-18T22:23:52Z</time></trkpt>
<trkpt lat="48.458734" lon="2.653391"><ele></ele><time>2017-9-18T22:23:55Z</time></trkpt>
<trkpt lat="48.458641" lon="2.653406"><ele></ele><time>2017-9-18T22:23:58Z</time></trkpt>
<trkpt lat="48.45855" lon="2.65342"><ele></ele><time>2017-9-18T22:24:1Z</time></trkpt>
<trkpt lat="48.45846" lon="2.653433"><ele></ele><time>2017-9-18T22:24:4Z</time></trkpt>
<trkpt lat="48.458334" lon="2.653452"><ele></ele><time>2017-9-18T22:24:7Z</time></trkpt>
<trkpt lat="48.458207" lon="2.653476"><ele></ele><time>2017-9-18T22:24:10Z</time></trkpt>
<trkpt lat="48.458087" lon="2.65343"><ele></ele><time>2017-9-18T22:24:13Z</time></trkpt>
<trkpt lat="48.457967" lon="2.653328"><ele></ele><time>2017-9-18T22:24:16Z</time></trkpt>
<trkpt lat="48.457897" lon="2.653189"><ele></ele><time>2017-9-18T22:24:19Z</time></trkpt>
<trkpt lat="48.457828" lon="2.653081"><ele></ele><time>2017-9-18T22:24:22Z</time></trkpt>
<trkpt lat="48.457771" lon="2.652972"><ele></ele><time>2017-9-18T22:24:25Z</time></trkpt>
<trkpt lat="48.457698" lon="2.652842"><ele></ele><time>2017-9-18T22:24:28Z</time></trkpt>
<trkpt lat="48.457646" lon="2.652692"><ele></ele><time>2017-9-18T22:24:31Z</time></trkpt>
<trkpt lat="48.457682" lon="2.652537"><ele></ele><time>2017-9-18T22:24:34Z</time></trkpt>
<trkpt lat="48.457715" lon="2.652398"><ele></ele><time>2017-9-18T22:24:37Z</time></trkpt>
<trkpt lat="48.45777" lon="2.652258"><ele></ele><time>2017-9-18T22:24:40Z</time></trkpt>
<trkpt lat="48.457852" lon="2.652117"><ele></ele><time>2017-9-18T22:24:43Z</time></trkpt>
<trkpt lat="48.457929" lon="2.651852"><ele></ele><time>2017-9-18T22:24:46Z</time></trkpt>
<trkpt lat="48.457984" lon="2.651713"><ele></ele><time>2017-9-18T22:24:49Z</time></trkpt>
<trkpt lat="48.458103" lon="2.651651"><ele></ele><time>2017-9-18T22:24:52Z</time></trkpt>
<trkpt lat="48.458188" lon="2.651591"><ele></ele><time>2017-9-18T22:24:55Z</time></trkpt>
<trkpt lat="48.458278" lon="2.651499"><ele></ele><time>2017-9-18T22:24:58Z</time></trkpt>
<trkpt lat="48.458398" lon="2.651406"><ele></ele><time>2017-9-18T22:25:1Z</time></trkpt>
<trkpt lat="48.458487" lon="2.651268"><ele></ele><time>2017-9-18T22:25:4Z</time></trkpt>
<trkpt lat="48.458576" lon="2.651104"><ele></ele><time>2017-9-18T22:25:7Z</time></trkpt>
<trkpt lat="48.458619" lon="2.650955"><ele></ele><time>2017-9-18T22:25:10Z</time></trkpt>
<trkpt lat="48.458623" lon="2.650758"><ele></ele><time>2017-9-18T22:25:13Z</time></trkpt>
<trkpt lat="48.458576" lon="2.650574"><ele></ele><time>2017-9-18T22:25:16Z</time></trkpt>
<trkpt lat="48.458512" lon="2.650421"><ele></ele><time>2017-9-18T22:25:19Z</time></trkpt>
<trkpt lat="48.458465" lon="2.650285"><ele></ele><time>2017-9-18T22:25:22Z</time></trkpt>
<trkpt lat="48.458399" lon="2.650143"><ele></ele><time>2017-9-18T22:25:25Z</time></trkpt>
<trkpt lat="48.458326" lon="2.649989"><ele></ele><time>2017-9-18T22:25:28Z</time></trkpt>
<trkpt lat="48.458251" lon="2.649809"><ele></ele><time>2017-9-18T22:25:31Z</time></trkpt>
<trkpt lat="48.458182" lon="2.649641"><ele></ele><time>2017-9-18T22:25:34Z</time></trkpt>
<trkpt lat="48.45813" lon="2.649498"><ele></ele><time>2017-9-18T22:25:37Z</time></trkpt>
<trkpt lat="48.458102" lon="2.649361"><ele></ele><time>2017-9-18T22:25:40Z</time></trkpt>
<trkpt lat="48.458126" lon="2.649229"><ele></ele><time>2017-9-18T22:25:43Z</time></trkpt>
<trkpt lat="48.458149" lon="2.649046"><ele></ele><time>2017-9-18T22:25:46Z</time></trkpt>
<trkpt lat="48.458178" lon="2.648915"><ele></ele><time>2017-9-18T22:25:49Z</time></trkpt>
<trkpt lat="48.458222" lon="2.648733"><ele></ele><time>2017-9-18T22:25:52Z</time></trkpt>
<trkpt lat="48.458374" lon="2.648528"><ele></ele><time>2017-9-18T22:25:55Z</time></trkpt>
<trkpt lat="48.458473" lon="2.648449"><ele></ele><time>2017-9-18T22:25:58Z</time></trkpt>
<trkpt lat="48.458586" lon="2.648388"><ele></ele><time>2017-9-18T22:26:1Z</time></trkpt>
<trkpt lat="48.45869" lon="2.648344"><ele></ele><time>2017-9-18T22:26:4Z</time></trkpt>
<trkpt lat="48.458815" lon="2.648294"><ele></ele><time>2017-9-18T22:26:7Z</time></trkpt>
<trkpt lat="48.458906" lon="2.648262"><ele></ele><time>2017-9-18T22:26:10Z</time></trkpt>
<trkpt lat="48.459" lon="2.648177"><ele></ele><time>2017-9-18T22:26:13Z</time></trkpt>
<trkpt lat="48.459114" lon="2.648068"><ele></ele><time>2017-9-18T22:26:16Z</time></trkpt>
<trkpt lat="48.459251" lon="2.647866"><ele></ele><time>2017-9-18T22:26:19Z</time></trkpt>
<trkpt lat="48.459325" lon="2.647713"><ele></ele><time>2017-9-18T22:26:22Z</time></trkpt>
<trkpt lat="48.459412" lon="2.647574"><ele></ele><time>2017-9-18T22:26:25Z</time></trkpt>
<trkpt lat="48.45946" lon="2.647446"><ele></ele><time>2017-9-18T22:26:28Z</time></trkpt>
<trkpt lat="48.459518" lon="2.647298"><ele></ele><time>2017-9-18T22:26:31Z</time></trkpt>
<trkpt lat="48.459507" lon="2.647065"><ele></ele><time>2017-9-18T22:26:34Z</time></trkpt>
<trkpt lat="48.459501" lon="2.646922"><ele></ele><time>2017-9-18T22:26:37Z</time></trkpt>
<trkpt lat="48.4595" lon="2.64673"><ele></ele><time>2017-9-18T22:26:40Z</time></trkpt>
<trkpt lat="48.459509" lon="2.646569"><ele></ele><time>2017-9-18T22:26:43Z</time></trkpt>
<trkpt lat="48.459504" lon="2.646426"><ele></ele><time>2017-9-18T22:26:46Z</time></trkpt>
<trkpt lat="48.459476" lon="2.646245"><ele></ele><time>2017-9-18T22:26:49Z</time></trkpt>
<trkpt lat="48.459428" lon="2.646063"><ele></ele><time>2017-9-18T22:26:52Z</time></trkpt>
<trkpt lat="48.459364" lon="2.645897"><ele></ele><time>2017-9-18T22:26:55Z</time></trkpt>
<trkpt lat="48.45923" lon="2.645643"><ele></ele><time>2017-9-18T22:26:58Z</time></trkpt>
<trkpt lat="48.459163" lon="2.645482"><ele></ele><time>2017-9-18T22:27:1Z</time></trkpt>
<trkpt lat="48.459136" lon="2.645305"><ele></ele><time>2017-9-18T22:27:4Z</time></trkpt>
<trkpt lat="48.459125" lon="2.645119"><ele></ele><time>2017-9-18T22:27:7Z</time></trkpt>
<trkpt lat="48.459103" lon="2.644979"><ele></ele><time>2017-9-18T22:27:10Z</time></trkpt>
<trkpt lat="48.459125" lon="2.644808"><ele></ele><time>2017-9-18T22:27:13Z</time></trkpt>
<trkpt lat="48.45913" lon="2.64465"><ele></ele><time>2017-9-18T22:27:16Z</time></trkpt>
<trkpt lat="48.459141" lon="2.644459"><ele></ele><time>2017-9-18T22:27:19Z</time></trkpt>
<trkpt lat="48.459151" lon="2.644298"><ele></ele><time>2017-9-18T22:27:22Z</time></trkpt>
<trkpt lat="48.459178" lon="2.644157"><ele></ele><time>2017-9-18T22:27:25Z</time></trkpt>
<trkpt lat="48.459212" lon="2.644009"><ele></ele><time>2017-9-18T22:27:28Z</time></trkpt>
<trkpt lat="48.459225" lon="2.643831"><ele></ele><time>2017-9-18T22:27:31Z</time></trkpt>
<trkpt lat="48.459227" lon="2.643665"><ele></ele><time>2017-9-18T22:27:34Z</time></trkpt>
<trkpt lat="48.459261" lon="2.643534"><ele></ele><time>2017-9-18T22:27:37Z</time></trkpt>
<trkpt lat="48.45929" lon="2.643395"><ele></ele><time>2017-9-18T22:27:40Z</time></trkpt>
<trkpt lat="48.459326" lon="2.643267"><ele></ele><time>2017-9-18T22:27:43Z</time></trkpt>
<trkpt lat="48.459361" lon="2.643093"><ele></ele><time>2017-9-18T22:27:46Z</time></trkpt>
<trkpt lat="48.459399" lon="2.642945"><ele></ele><time>2017-9-18T22:27:49Z</time></trkpt>
<trkpt lat="48.459419" lon="2.642787"><ele></ele><time>2017-9-18T22:27:52Z</time></trkpt>
<trkpt lat="48.459426" lon="2.642603"><ele></ele><time>2017-9-18T22:27:55Z</time></trkpt>
<trkpt lat="48.459437" lon="2.642416"><ele></ele><time>2017-9-18T22:27:58Z</time></trkpt>
<trkpt lat="48.459456" lon="2.64221"><ele></ele><time>2017-9-18T22:28:1Z</time></trkpt>
<trkpt lat="48.459468" lon="2.642043"><ele></ele><time>2017-9-18T22:28:4Z</time></trkpt>
<trkpt lat="48.45949" lon="2.641891"><ele></ele><time>2017-9-18T22:28:7Z</time></trkpt>
<trkpt lat="48.459521" lon="2.64172"><ele></ele><time>2017-9-18T22:28:10Z</time></trkpt>
<trkpt lat="48.459394" lon="2.641437"><ele></ele><time>2017-9-18T22:28:13Z</time></trkpt>
<trkpt lat="48.459323" lon="2.641345"><ele></ele><time>2017-9-18T22:28:16Z</time></trkpt>
<trkpt lat="48.459215" lon="2.641298"><ele></ele><time>2017-9-18T22:28:19Z</time></trkpt>
<trkpt lat="48.459128" lon="2.641266"><ele></ele><time>2017-9-18T22:28:22Z</time></trkpt>
<trkpt lat="48.459042" lon="2.641217"><ele></ele><time>2017-9-18T22:28:25Z</time></trkpt>
<trkpt lat="48.458952" lon="2.641192"><ele></ele><time>2017-9-18T22:28:28Z</time></trkpt>
<trkpt lat="48.458858" lon="2.641164"><ele></ele><time>2017-9-18T22:28:31Z</time></trkpt>
<trkpt lat="48.458767" lon="2.641163"><ele></ele><time>2017-9-18T22:28:34Z</time></trkpt>
<trkpt lat="48.458666" lon="2.641147"><ele></ele><time>2017-9-18T22:28:37Z</time></trkpt>
<trkpt lat="48.458561" lon="2.641137"><ele></ele><time>2017-9-18T22:28:40Z</time></trkpt>
<trkpt lat="48.458463" lon="2.641138"><ele></ele><time>2017-9-18T22:28:43Z</time></trkpt>
<trkpt lat="48.458346" lon="2.641161"><ele></ele><time>2017-9-18T22:28:46Z</time></trkpt>
<trkpt lat="48.458252" lon="2.641167"><ele></ele><time>2017-9-18T22:28:49Z</time></trkpt>
<trkpt lat="48.45816" lon="2.641139"><ele></ele><time>2017-9-18T22:28:52Z</time></trkpt>
<trkpt lat="48.458057" lon="2.641099"><ele></ele><time>2017-9-18T22:28:55Z</time></trkpt>
<trkpt lat="48.457973" lon="2.641007"><ele></ele><time>2017-9-18T22:28:58Z</time></trkpt>
<trkpt lat="48.4579" lon="2.640881"><ele></ele><time>2017-9-18T22:29:1Z</time></trkpt>
<trkpt lat="48.457794" lon="2.640632"><ele></ele><time>2017-9-18T22:29:4Z</time></trkpt>
<trkpt lat="48.457727" lon="2.6405"><ele></ele><time>2017-9-18T22:29:7Z</time></trkpt>
<trkpt lat="48.457668" lon="2.640348"><ele></ele><time>2017-9-18T22:29:10Z</time></trkpt>
<trkpt lat="48.457616" lon="2.640197"><ele></ele><time>2017-9-18T22:29:13Z</time></trkpt>
<trkpt lat="48.457575" lon="2.640037"><ele></ele><time>2017-9-18T22:29:16Z</time></trkpt>
<trkpt lat="48.457551" lon="2.639872"><ele></ele><time>2017-9-18T22:29:19Z</time></trkpt>
<trkpt lat="48.457552" lon="2.639716"><ele></ele><time>2017-9-18T22:29:22Z</time></trkpt>
<trkpt lat="48.457559" lon="2.639534"><ele></ele><time>2017-9-18T22:29:25Z</time></trkpt>
<trkpt lat="48.457581" lon="2.639371"><ele></ele><time>2017-9-18T22:29:28Z</time></trkpt>
<trkpt lat="48.457585" lon="2.639189"><ele></ele><time>2017-9-18T22:29:31Z</time></trkpt>
<trkpt lat="48.457596" lon="2.639025"><ele></ele><time>2017-9-18T22:29:34Z</time></trkpt>
<trkpt lat="48.457641" lon="2.638838"><ele></ele><time>2017-9-18T22:29:37Z</time></trkpt>
<trkpt lat="48.457664" lon="2.638691"><ele></ele><time>2017-9-18T22:29:40Z</time></trkpt>
<trkpt lat="48.457652" lon="2.638509"><ele></ele><time>2017-9-18T22:29:43Z</time></trkpt>
<trkpt lat="48.457542" lon="2.638363"><ele></ele><time>2017-9-18T22:29:46Z</time></trkpt>
<trkpt lat="48.457454" lon="2.638323"><ele></ele><time>2017-9-18T22:29:49Z</time></trkpt>
<trkpt lat="48.457374" lon="2.638387"><ele></ele><time>2017-9-18T22:29:52Z</time></trkpt>
<trkpt lat="48.457276" lon="2.638484"><ele></ele><time>2017-9-18T22:29:55Z</time></trkpt>
<trkpt lat="48.457225" lon="2.638622"><ele></ele><time>2017-9-18T22:29:58Z</time></trkpt>
<trkpt lat="48.457168" lon="2.638929"><ele></ele><time>2017-9-18T22:30:1Z</time></trkpt>
<trkpt lat="48.457102" lon="2.639043"><ele></ele><time>2017-9-18T22:30:4Z</time></trkpt>
<trkpt lat="48.457011" lon="2.639127"><ele></ele><time>2017-9-18T22:30:7Z</time></trkpt>
<trkpt lat="48.456927" lon="2.639178"><ele></ele><time>2017-9-18T22:30:10Z</time></trkpt>
<trkpt lat="48.456826" lon="2.639199"><ele></ele><time>2017-9-18T22:30:13Z</time></trkpt>
<trkpt lat="48.456707" lon="2.639238"><ele></ele><time>2017-9-18T22:30:16Z</time></trkpt>
<trkpt lat="48.456584" lon="2.639262"><ele></ele><time>2017-9-18T22:30:19Z</time></trkpt>
<trkpt lat="48.456461" lon="2.639237"><ele></ele><time>2017-9-18T22:30:22Z</time></trkpt>
<trkpt lat="48.456363" lon="2.639163"><ele></ele><time>2017-9-18T22:30:25Z</time></trkpt>
<trkpt lat="48.456284" lon="2.639032"><ele></ele><time>2017-9-18T22:30:28Z</time></trkpt>
<trkpt lat="48.456225" lon="2.638877"><ele></ele><time>2017-9-18T22:30:31Z</time></trkpt>
<trkpt lat="48.456148" lon="2.63872"><ele></ele><time>2017-9-18T22:30:34Z</time></trkpt>
<trkpt lat="48.456033" lon="2.638703"><ele></ele><time>2017-9-18T22:30:37Z</time></trkpt>
<trkpt lat="48.455942" lon="2.638713"><ele></ele><time>2017-9-18T22:30:40Z</time></trkpt>
<trkpt lat="48.455845" lon="2.638745"><ele></ele><time>2017-9-18T22:30:43Z</time></trkpt>
<trkpt lat="48.455701" lon="2.638731"><ele></ele><time>2017-9-18T22:30:46Z</time></trkpt>
<trkpt lat="48.455603" lon="2.638692"><ele></ele><time>2017-9-18T22:30:49Z</time></trkpt>
<trkpt lat="48.455512" lon="2.638593"><ele></ele><time>2017-9-18T22:30:52Z</time></trkpt>
<trkpt lat="48.455422" lon="2.638505"><ele></ele><time>2017-9-18T22:30:55Z</time></trkpt>
<trkpt lat="48.455305" lon="2.63848"><ele></ele><time>2017-9-18T22:30:58Z</time></trkpt>
<trkpt lat="48.455072" lon="2.638511"><ele></ele><time>2017-9-18T22:31:1Z</time></trkpt>
<trkpt lat="48.454958" lon="2.638494"><ele></ele><time>2017-9-18T22:31:4Z</time></trkpt>
<trkpt lat="48.454868" lon="2.638427"><ele></ele><time>2017-9-18T22:31:7Z</time></trkpt>
<trkpt lat="48.454792" lon="2.638286"><ele></ele><time>2017-9-18T22:31:10Z</time></trkpt>
<trkpt lat="48.454715" lon="2.638159"><ele></ele><time>2017-9-18T22:31:13Z</time></trkpt>
<trkpt lat="48.454626" lon="2.638024"><ele></ele><time>2017-9-18T22:31:16Z</time></trkpt>
<trkpt lat="48.454536" lon="2.637881"><ele></ele><time>2017-9-18T22:31:19Z</time></trkpt>
<trkpt lat="48.45445" lon="2.637743"><ele></ele><time>2017-9-18T22:31:22Z</time></trkpt>
<trkpt lat="48.454385" lon="2.637607"><ele></ele><time>2017-9-18T22:31:25Z</time></trkpt>
<trkpt lat="48.454357" lon="2.637461"><ele></ele><time>2017-9-18T22:31:28Z</time></trkpt>
<trkpt lat="48.454344" lon="2.637303"><ele></ele><time>2017-9-18T22:31:31Z</time></trkpt>
<trkpt lat="48.454355" lon="2.637134"><ele></ele><time>2017-9-18T22:31:34Z</time></trkpt>
<trkpt lat="48.454325" lon="2.636947"><ele></ele><time>2017-9-18T22:31:37Z</time></trkpt>
<trkpt lat="48.45427" lon="2.636804"><ele></ele><time>2017-9-18T22:31:40Z</time></trkpt>
<trkpt lat="48.454211" lon="2.636666"><ele></ele><time>2017-9-18T22:31:43Z</time></trkpt>
<trkpt lat="48.454127" lon="2.636522"><ele></ele><time>2017-9-18T22:31:46Z</time></trkpt>
<trkpt lat="48.454035" lon="2.636414"><ele></ele><time>2017-9-18T22:31:49Z</time></trkpt>
<trkpt lat="48.453926" lon="2.63632"><ele></ele><time>2017-9-18T22:31:52Z</time></trkpt>
<trkpt lat="48.453795" lon="2.63632"><ele></ele><time>2017-9-18T22:31:55Z</time></trkpt>
<trkpt lat="48.453687" lon="2.636372"><ele></ele><time>2017-9-18T22:31:58Z</time></trkpt>
<trkpt lat="48.453589" lon="2.636436"><ele></ele><time>2017-9-18T22:32:1Z</time></trkpt>
<trkpt lat="48.453405" lon="2.636574"><ele></ele><time>2017-9-18T22:32:4Z</time></trkpt>
<trkpt lat="48.453306" lon="2.636653"><ele></ele><time>2017-9-18T22:32:7Z</time></trkpt>
<trkpt lat="48.453201" lon="2.636707"><ele></ele><time>2017-9-18T22:32:10Z</time></trkpt>
<trkpt lat="48.453106" lon="2.63671"><ele></ele><time>2017-9-18T22:32:13Z</time></trkpt>
<trkpt lat="48.453" lon="2.636633"><ele></ele><time>2017-9-18T22:32:16Z</time></trkpt>
<trkpt lat="48.452862" lon="2.636466"><ele></ele><time>2017-9-18T22:32:19Z</time></trkpt>
<trkpt lat="48.452795" lon="2.636367"><ele></ele><time>2017-9-18T22:32:22Z</time></trkpt>
<trkpt lat="48.452729" lon="2.636268"><ele></ele><time>2017-9-18T22:32:25Z</time></trkpt>
<trkpt lat="48.452672" lon="2.636163"><ele></ele><time>2017-9-18T22:32:28Z</time></trkpt>
<trkpt lat="48.452581" lon="2.636064"><ele></ele><time>2017-9-18T22:32:31Z</time></trkpt>
<trkpt lat="48.452462" lon="2.636098"><ele></ele><time>2017-9-18T22:32:34Z</time></trkpt>
<trkpt lat="48.452359" lon="2.636103"><ele></ele><time>2017-9-18T22:32:37Z</time></trkpt>
<trkpt lat="48.452245" lon="2.636099"><ele></ele><time>2017-9-18T22:32:40Z</time></trkpt>
<trkpt lat="48.452118" lon="2.636052"><ele></ele><time>2017-9-18T22:32:43Z</time></trkpt>
<trkpt lat="48.452035" lon="2.635911"><ele></ele><time>2017-9-18T22:32:46Z</time></trkpt>
<trkpt lat="48.452" lon="2.635747"><ele></ele><time>2017-9-18T22:32:49Z</time></trkpt>
<trkpt lat="48.452015" lon="2.635592"><ele></ele><time>2017-9-18T22:32:52Z</time></trkpt>
<trkpt lat="48.452017" lon="2.635418"><ele></ele><time>2017-9-18T22:32:55Z</time></trkpt>
<trkpt lat="48.452021" lon="2.635262"><ele></ele><time>2017-9-18T22:32:58Z</time></trkpt>
<trkpt lat="48.452033" lon="2.635107"><ele></ele><time>2017-9-18T22:33:1Z</time></trkpt>
<trkpt lat="48.452053" lon="2.634915"><ele></ele><time>2017-9-18T22:33:4Z</time></trkpt>
<trkpt lat="48.452077" lon="2.634616"><ele></ele><time>2017-9-18T22:33:7Z</time></trkpt>
<trkpt lat="48.452097" lon="2.634466"><ele></ele><time>2017-9-18T22:33:10Z</time></trkpt>
<trkpt lat="48.452085" lon="2.634268"><ele></ele><time>2017-9-18T22:33:13Z</time></trkpt>
<trkpt lat="48.452083" lon="2.634096"><ele></ele><time>2017-9-18T22:33:16Z</time></trkpt>
<trkpt lat="48.452109" lon="2.63394"><ele></ele><time>2017-9-18T22:33:19Z</time></trkpt>
<trkpt lat="48.452148" lon="2.633807"><ele></ele><time>2017-9-18T22:33:22Z</time></trkpt>
<trkpt lat="48.452055" lon="2.633881"><ele></ele><time>2017-9-18T22:33:25Z</time></trkpt>
<trkpt lat="48.452029" lon="2.634208"><ele></ele><time>2017-9-18T22:33:28Z</time></trkpt>
<trkpt lat="48.452007" lon="2.634367"><ele></ele><time>2017-9-18T22:33:31Z</time></trkpt>
<trkpt lat="48.452013" lon="2.634512"><ele></ele><time>2017-9-18T22:33:34Z</time></trkpt>
<trkpt lat="48.451996" lon="2.634701"><ele></ele><time>2017-9-18T22:33:37Z</time></trkpt>
<trkpt lat="48.451979" lon="2.634867"><ele></ele><time>2017-9-18T22:33:40Z</time></trkpt>
<trkpt lat="48.451959" lon="2.635015"><ele></ele><time>2017-9-18T22:33:43Z</time></trkpt>
<trkpt lat="48.451962" lon="2.635173"><ele></ele><time>2017-9-18T22:33:46Z</time></trkpt>
<trkpt lat="48.451962" lon="2.635333"><ele></ele><time>2017-9-18T22:33:49Z</time></trkpt>
<trkpt lat="48.451965" lon="2.635489"><ele></ele><time>2017-9-18T22:33:52Z</time></trkpt>
<trkpt lat="48.451934" lon="2.635628"><ele></ele><time>2017-9-18T22:33:55Z</time></trkpt>
<trkpt lat="48.451749" lon="2.635733"><ele></ele><time>2017-9-18T22:33:58Z</time></trkpt>
<trkpt lat="48.451767" lon="2.635909"><ele></ele><time>2017-9-18T22:34:1Z</time></trkpt>
<trkpt lat="48.451793" lon="2.636074"><ele></ele><time>2017-9-18T22:34:4Z</time></trkpt>
<trkpt lat="48.451735" lon="2.636183"><ele></ele><time>2017-9-18T22:34:7Z</time></trkpt>
<trkpt lat="48.451628" lon="2.636271"><ele></ele><time>2017-9-18T22:34:10Z</time></trkpt>
<trkpt lat="48.45153" lon="2.636366"><ele></ele><time>2017-9-18T22:34:13Z</time></trkpt>
<trkpt lat="48.451434" lon="2.636453"><ele></ele><time>2017-9-18T22:34:16Z</time></trkpt>
<trkpt lat="48.451343" lon="2.636538"><ele></ele><time>2017-9-18T22:34:19Z</time></trkpt>
<trkpt lat="48.451311" lon="2.636686"><ele></ele><time>2017-9-18T22:34:22Z</time></trkpt>
<trkpt lat="48.451247" lon="2.636808"><ele></ele><time>2017-9-18T22:34:25Z</time></trkpt>
<trkpt lat="48.451184" lon="2.636939"><ele></ele><time>2017-9-18T22:34:28Z</time></trkpt>
<trkpt lat="48.451088" lon="2.637068"><ele></ele><time>2017-9-18T22:34:31Z</time></trkpt>
<trkpt lat="48.451016" lon="2.637191"><ele></ele><time>2017-9-18T22:34:34Z</time></trkpt>
<trkpt lat="48.450981" lon="2.637333"><ele></ele><time>2017-9-18T22:34:37Z</time></trkpt>
<trkpt lat="48.450951" lon="2.637521"><ele></ele><time>2017-9-18T22:34:40Z</time></trkpt>
<trkpt lat="48.450924" lon="2.637718"><ele></ele><time>2017-9-18T22:34:43Z</time></trkpt>
<trkpt lat="48.450898" lon="2.637898"><ele></ele><time>2017-9-18T22:34:46Z</time></trkpt>
<trkpt lat="48.450876" lon="2.638086"><ele></ele><time>2017-9-18T22:34:49Z</time></trkpt>
<trkpt lat="48.45088" lon="2.638403"><ele></ele><time>2017-9-18T22:34:52Z</time></trkpt>
<trkpt lat="48.450893" lon="2.638567"><ele></ele><time>2017-9-18T22:34:55Z</time></trkpt>
<trkpt lat="48.450901" lon="2.638725"><ele></ele><time>2017-9-18T22:34:58Z</time></trkpt>
<trkpt lat="48.450894" lon="2.638869"><ele></ele><time>2017-9-18T22:35:1Z</time></trkpt>
<trkpt lat="48.450915" lon="2.63904"><ele></ele><time>2017-9-18T22:35:4Z</time></trkpt>
<trkpt lat="48.450933" lon="2.639177"><ele></ele><time>2017-9-18T22:35:7Z</time></trkpt>
<trkpt lat="48.450956" lon="2.639331"><ele></ele><time>2017-9-18T22:35:10Z</time></trkpt>
<trkpt lat="48.450985" lon="2.639472"><ele></ele><time>2017-9-18T22:35:13Z</time></trkpt>
<trkpt lat="48.451025" lon="2.639657"><ele></ele><time>2017-9-18T22:35:16Z</time></trkpt>
<trkpt lat="48.451073" lon="2.639827"><ele></ele><time>2017-9-18T22:35:19Z</time></trkpt>
<trkpt lat="48.451108" lon="2.639998"><ele></ele><time>2017-9-18T22:35:22Z</time></trkpt>
<trkpt lat="48.451025" lon="2.640218"><ele></ele><time>2017-9-18T22:35:25Z</time></trkpt>
<trkpt lat="48.45098" lon="2.640384"><ele></ele><time>2017-9-18T22:35:28Z</time></trkpt>
<trkpt lat="48.450921" lon="2.640553"><ele></ele><time>2017-9-18T22:35:31Z</time></trkpt>
<trkpt lat="48.450877" lon="2.6407"><ele></ele><time>2017-9-18T22:35:34Z</time></trkpt>
<trkpt lat="48.450829" lon="2.640824"><ele></ele><time>2017-9-18T22:35:37Z</time></trkpt>
<trkpt lat="48.450757" lon="2.640946"><ele></ele><time>2017-9-18T22:35:40Z</time></trkpt>
<trkpt lat="48.450687" lon="2.641107"><ele></ele><time>2017-9-18T22:35:43Z</time></trkpt>
<trkpt lat="48.450625" lon="2.641207"><ele></ele><time>2017-9-18T22:35:46Z</time></trkpt>
<trkpt lat="48.450524" lon="2.641315"><ele></ele><time>2017-9-18T22:35:49Z</time></trkpt>
<trkpt lat="48.450454" lon="2.641425"><ele></ele><time>2017-9-18T22:35:52Z</time></trkpt>
<trkpt lat="48.450372" lon="2.64153"><ele></ele><time>2017-9-18T22:35:55Z</time></trkpt>
<trkpt lat="48.450217" lon="2.641737"><ele></ele><time>2017-9-18T22:35:58Z</time></trkpt>
<trkpt lat="48.45015" lon="2.641857"><ele></ele><time>2017-9-18T22:36:1Z</time></trkpt>
<trkpt lat="48.450091" lon="2.64196"><ele></ele><time>2017-9-18T22:36:4Z</time></trkpt>
<trkpt lat="48.45001" lon="2.642062"><ele></ele><time>2017-9-18T22:36:7Z</time></trkpt>
<trkpt lat="48.449938" lon="2.642163"><ele></ele><time>2017-9-18T22:36:10Z</time></trkpt>
<trkpt lat="48.449869" lon="2.642258"><ele></ele><time>2017-9-18T22:36:13Z</time></trkpt>
<trkpt lat="48.44979" lon="2.642363"><ele></ele><time>2017-9-18T22:36:16Z</time></trkpt>
<trkpt lat="48.449666" lon="2.642473"><ele></ele><time>2017-9-18T22:36:19Z</time></trkpt>
<trkpt lat="48.449583" lon="2.642603"><ele></ele><time>2017-9-18T22:36:22Z</time></trkpt>
<trkpt lat="48.449514" lon="2.642725"><ele></ele><time>2017-9-18T22:36:25Z</time></trkpt>
<trkpt lat="48.449452" lon="2.642849"><ele></ele><time>2017-9-18T22:36:28Z</time></trkpt>
<trkpt lat="48.449357" lon="2.64298"><ele></ele><time>2017-9-18T22:36:31Z</time></trkpt>
<trkpt lat="48.449303" lon="2.643122"><ele></ele><time>2017-9-18T22:36:34Z</time></trkpt>
<trkpt lat="48.449303" lon="2.643305"><ele></ele><time>2017-9-18T22:36:37Z</time></trkpt>
<trkpt lat="48.449369" lon="2.643544"><ele></ele><time>2017-9-18T22:36:40Z</time></trkpt>
<trkpt lat="48.44943" lon="2.643684"><ele></ele><time>2017-9-18T22:36:43Z</time></trkpt>
<trkpt lat="48.449506" lon="2.643828"><ele></ele><time>2017-9-18T22:36:46Z</time></trkpt>
<trkpt lat="48.44958" lon="2.643976"><ele></ele><time>2017-9-18T22:36:49Z</time></trkpt>
<trkpt lat="48.449606" lon="2.644142"><ele></ele><time>2017-9-18T22:36:52Z</time></trkpt>
<trkpt lat="48.449597" lon="2.64448"><ele></ele><time>2017-9-18T22:36:55Z</time></trkpt>
<trkpt lat="48.44959" lon="2.644653"><ele></ele><time>2017-9-18T22:36:58Z</time></trkpt>
<trkpt lat="48.449603" lon="2.644844"><ele></ele><time>2017-9-18T22:37:1Z</time></trkpt>
<trkpt lat="48.449627" lon="2.645034"><ele></ele><time>2017-9-18T22:37:4Z</time></trkpt>
<trkpt lat="48.449645" lon="2.645181"><ele></ele><time>2017-9-18T22:37:7Z</time></trkpt>
<trkpt lat="48.449663" lon="2.645362"><ele></ele><time>2017-9-18T22:37:10Z</time></trkpt>
<trkpt lat="48.449665" lon="2.645499"><ele></ele><time>2017-9-18T22:37:13Z</time></trkpt>
<trkpt lat="48.449659" lon="2.645674"><ele></ele><time>2017-9-18T22:37:16Z</time></trkpt>
<trkpt lat="48.449664" lon="2.64581"><ele></ele><time>2017-9-18T22:37:19Z</time></trkpt>
<trkpt lat="48.44964" lon="2.645943"><ele></ele><time>2017-9-18T22:37:22Z</time></trkpt>
<trkpt lat="48.449628" lon="2.646106"><ele></ele><time>2017-9-18T22:37:25Z</time></trkpt>
<trkpt lat="48.449622" lon="2.646303"><ele></ele><time>2017-9-18T22:37:28Z</time></trkpt>
<trkpt lat="48.449616" lon="2.646441"><ele></ele><time>2017-9-18T22:37:31Z</time></trkpt>
<trkpt lat="48.449613" lon="2.646581"><ele></ele><time>2017-9-18T22:37:34Z</time></trkpt>
<trkpt lat="48.44961" lon="2.646755"><ele></ele><time>2017-9-18T22:37:37Z</time></trkpt>
<trkpt lat="48.449638" lon="2.64693"><ele></ele><time>2017-9-18T22:37:40Z</time></trkpt>
<trkpt lat="48.449585" lon="2.647085"><ele></ele><time>2017-9-18T22:37:43Z</time></trkpt>
<trkpt lat="48.449489" lon="2.647103"><ele></ele><time>2017-9-18T22:37:46Z</time></trkpt>
<trkpt lat="48.449359" lon="2.647127"><ele></ele><time>2017-9-18T22:37:49Z</time></trkpt>
<trkpt lat="48.449233" lon="2.647166"><ele></ele><time>2017-9-18T22:37:52Z</time></trkpt>
<trkpt lat="48.449161" lon="2.647247"><ele></ele><time>2017-9-18T22:37:55Z</time></trkpt>
<trkpt lat="48.449052" lon="2.647565"><ele></ele><time>2017-9-18T22:37:58Z</time></trkpt>
<trkpt lat="48.449012" lon="2.647704"><ele></ele><time>2017-9-18T22:38:1Z</time></trkpt>
<trkpt lat="48.448948" lon="2.647811"><ele></ele><time>2017-9-18T22:38:4Z</time></trkpt>
<trkpt lat="48.448888" lon="2.648018"><ele></ele><time>2017-9-18T22:38:7Z</time></trkpt>
<trkpt lat="48.448838" lon="2.64819"><ele></ele><time>2017-9-18T22:38:10Z</time></trkpt>
<trkpt lat="48.448762" lon="2.648349"><ele></ele><time>2017-9-18T22:38:13Z</time></trkpt>
<trkpt lat="48.448697" lon="2.648493"><ele></ele><time>2017-9-18T22:38:16Z</time></trkpt>
<trkpt lat="48.448648" lon="2.648679"><ele></ele><time>2017-9-18T22:38:19Z</time></trkpt>
<trkpt lat="48.448605" lon="2.648806"><ele></ele><time>2017-9-18T22:38:22Z</time></trkpt>
<trkpt lat="48.448528" lon="2.648919"><ele></ele><time>2017-9-18T22:38:25Z</time></trkpt>
<trkpt lat="48.448476" lon="2.649075"><ele></ele><time>2017-9-18T22:38:28Z</time></trkpt>
<trkpt lat="48.448421" lon="2.649195"><ele></ele><time>2017-9-18T22:38:31Z</time></trkpt>
<trkpt lat="48.448355" lon="2.649313"><ele></ele><time>2017-9-18T22:38:34Z</time></trkpt>
<trkpt lat="48.448301" lon="2.649469"><ele></ele><time>2017-9-18T22:38:37Z</time></trkpt>
<trkpt lat="48.448241" lon="2.649603"><ele></ele><time>2017-9-18T22:38:40Z</time></trkpt>
<trkpt lat="48.448175" lon="2.649701"><ele></ele><time>2017-9-18T22:38:43Z</time></trkpt>
<trkpt lat="48.448123" lon="2.649859"><ele></ele><time>2017-9-18T22:38:46Z</time></trkpt>
<trkpt lat="48.448068" lon="2.649986"><ele></ele><time>2017-9-18T22:38:49Z</time></trkpt>
<trkpt lat="48.448008" lon="2.650166"><ele></ele><time>2017-9-18T22:38:52Z</time></trkpt>
<trkpt lat="48.44797" lon="2.650301"><ele></ele><time>2017-9-18T22:38:55Z</time></trkpt>
<trkpt lat="48.447915" lon="2.65041"><ele></ele><time>2017-9-18T22:38:58Z</time></trkpt>
<trkpt lat="48.44786" lon="2.650533"><ele></ele><time>2017-9-18T22:39:1Z</time></trkpt>
<trkpt lat="48.447801" lon="2.650643"><ele></ele><time>2017-9-18T22:39:4Z</time></trkpt>
<trkpt lat="48.447804" lon="2.650938"><ele></ele><time>2017-9-18T22:39:7Z</time></trkpt>
<trkpt lat="48.447827" lon="2.651081"><ele></ele><time>2017-9-18T22:39:10Z</time></trkpt>
<trkpt lat="48.447883" lon="2.651231"><ele></ele><time>2017-9-18T22:39:13Z</time></trkpt>
<trkpt lat="48.447938" lon="2.651416"><ele></ele><time>2017-9-18T22:39:16Z</time></trkpt>
<trkpt lat="48.447986" lon="2.651539"><ele></ele><time>2017-9-18T22:39:19Z</time></trkpt>
<trkpt lat="48.448046" lon="2.651714"><ele></ele><time>2017-9-18T22:39:22Z</time></trkpt>
<trkpt lat="48.448085" lon="2.651851"><ele></ele><time>2017-9-18T22:39:25Z</time></trkpt>
<trkpt lat="48.448138" lon="2.651961"><ele></ele><time>2017-9-18T22:39:28Z</time></trkpt>
<trkpt lat="48.448188" lon="2.652123"><ele></ele><time>2017-9-18T22:39:31Z</time></trkpt>
<trkpt lat="48.448262" lon="2.652291"><ele></ele><time>2017-9-18T22:39:34Z</time></trkpt>
<trkpt lat="48.448336" lon="2.652478"><ele></ele><time>2017-9-18T22:39:37Z</time></trkpt>
<trkpt lat="48.448415" lon="2.652634"><ele></ele><time>2017-9-18T22:39:40Z</time></trkpt>
<trkpt lat="48.448487" lon="2.652737"><ele></ele><time>2017-9-18T22:39:43Z</time></trkpt>
<trkpt lat="48.448563" lon="2.652835"><ele></ele><time>2017-9-18T22:39:46Z</time></trkpt>
<trkpt lat="48.448661" lon="2.652956"><ele></ele><time>2017-9-18T22:39:49Z</time></trkpt>
<trkpt lat="48.448733" lon="2.653065"><ele></ele><time>2017-9-18T22:39:52Z</time></trkpt>
<trkpt lat="48.448844" lon="2.653221"><ele></ele><time>2017-9-18T22:39:55Z</time></trkpt>
<trkpt lat="48.448907" lon="2.653319"><ele></ele><time>2017-9-18T22:39:58Z</time></trkpt>
<trkpt lat="48.448946" lon="2.653451"><ele></ele><time>2017-9-18T22:40:1Z</time></trkpt>
<trkpt lat="48.449001" lon="2.653584"><ele></ele><time>2017-9-18T22:40:4Z</time></trkpt>
<trkpt lat="48.44903" lon="2.653764"><ele></ele><time>2017-9-18T22:40:7Z</time></trkpt>
<trkpt lat="48.449044" lon="2.653922"><ele></ele><time>2017-9-18T22:40:10Z</time></trkpt>
<trkpt lat="48.449024" lon="2.654062"><ele></ele><time>2017-9-18T22:40:13Z</time></trkpt>
<trkpt lat="48.448985" lon="2.654259"><ele></ele><time>2017-9-18T22:40:16Z</time></trkpt>
<trkpt lat="48.448899" lon="2.654661"><ele></ele><time>2017-9-18T22:40:19Z</time></trkpt>
<trkpt lat="48.448855" lon="2.654819"><ele></ele><time>2017-9-18T22:40:22Z</time></trkpt>
<trkpt lat="48.448808" lon="2.654975"><ele></ele><time>2017-9-18T22:40:25Z</time></trkpt>
<trkpt lat="48.448749" lon="2.655132"><ele></ele><time>2017-9-18T22:40:28Z</time></trkpt>
<trkpt lat="48.448691" lon="2.655355"><ele></ele><time>2017-9-18T22:40:31Z</time></trkpt>
<trkpt lat="48.448645" lon="2.655476"><ele></ele><time>2017-9-18T22:40:34Z</time></trkpt>
<trkpt lat="48.448607" lon="2.655654"><ele></ele><time>2017-9-18T22:40:37Z</time></trkpt>
<trkpt lat="48.448564" lon="2.655776"><ele></ele><time>2017-9-18T22:40:40Z</time></trkpt>
<trkpt lat="48.448525" lon="2.655903"><ele></ele><time>2017-9-18T22:40:43Z</time></trkpt>
<trkpt lat="48.448469" lon="2.656086"><ele></ele><time>2017-9-18T22:40:46Z</time></trkpt>
<trkpt lat="48.448437" lon="2.656275"><ele></ele><time>2017-9-18T22:40:49Z</time></trkpt>
<trkpt lat="48.448419" lon="2.656455"><ele></ele><time>2017-9-18T22:40:52Z</time></trkpt>
<trkpt lat="48.448343" lon="2.656606"><ele></ele><time>2017-9-18T22:40:55Z</time></trkpt>
<trkpt lat="48.448289" lon="2.656725"><ele></ele><time>2017-9-18T22:40:58Z</time></trkpt>
<trkpt lat="48.448229" lon="2.65688"><ele></ele><time>2017-9-18T22:41:1Z</time></trkpt>
<trkpt lat="48.448194" lon="2.657053"><ele></ele><time>2017-9-18T22:41:4Z</time></trkpt>
<trkpt lat="48.448161" lon="2.657186"><ele></ele><time>2017-9-18T22:41:7Z</time></trkpt>
<trkpt lat="48.448124" lon="2.657312"><ele></ele><time>2017-9-18T22:41:10Z</time></trkpt>
<trkpt lat="48.4481" lon="2.657461"><ele></ele><time>2017-9-18T22:41:13Z</time></trkpt>
<trkpt lat="48.448058" lon="2.657616"><ele></ele><time>2017-9-18T22:41:16Z</time></trkpt>
<trkpt lat="48.448011" lon="2.657803"><ele></ele><time>2017-9-18T22:41:19Z</time></trkpt>
<trkpt lat="48.447977" lon="2.657963"><ele></ele><time>2017-9-18T22:41:22Z</time></trkpt>
<trkpt lat="48.447912" lon="2.65829"><ele></ele><time>2017-9-18T22:41:25Z</time></trkpt>
<trkpt lat="48.447867" lon="2.658424"><ele></ele><time>2017-9-18T22:41:28Z</time></trkpt>
<trkpt lat="48.447836" lon="2.658558"><ele></ele><time>2017-9-18T22:41:31Z</time></trkpt>
<trkpt lat="48.447794" lon="2.658683"><ele></ele><time>2017-9-18T22:41:34Z</time></trkpt>
<trkpt lat="48.447751" lon="2.658852"><ele></ele><time>2017-9-18T22:41:37Z</time></trkpt>
<trkpt lat="48.447697" lon="2.659009"><ele></ele><time>2017-9-18T22:41:40Z</time></trkpt>
<trkpt lat="48.447657" lon="2.659198"><ele></ele><time>2017-9-18T22:41:43Z</time></trkpt>
<trkpt lat="48.447602" lon="2.659389"><ele></ele><time>2017-9-18T22:41:46Z</time></trkpt>
<trkpt lat="48.447562" lon="2.659543"><ele></ele><time>2017-9-18T22:41:49Z</time></trkpt>
<trkpt lat="48.447482" lon="2.659682"><ele></ele><time>2017-9-18T22:41:52Z</time></trkpt>
<trkpt lat="48.447427" lon="2.659854"><ele></ele><time>2017-9-18T22:41:55Z</time></trkpt>
<trkpt lat="48.447383" lon="2.660026"><ele></ele><time>2017-9-18T22:41:58Z</time></trkpt>
<trkpt lat="48.447321" lon="2.660149"><ele></ele><time>2017-9-18T22:42:1Z</time></trkpt>
<trkpt lat="48.447291" lon="2.660297"><ele></ele><time>2017-9-18T22:42:4Z</time></trkpt>
<trkpt lat="48.447212" lon="2.660365"><ele></ele><time>2017-9-18T22:42:7Z</time></trkpt>
<trkpt lat="48.447104" lon="2.660443"><ele></ele><time>2017-9-18T22:42:10Z</time></trkpt>
<trkpt lat="48.447019" lon="2.660491"><ele></ele><time>2017-9-18T22:42:13Z</time></trkpt>
<trkpt lat="48.446903" lon="2.660575"><ele></ele><time>2017-9-18T22:42:16Z</time></trkpt>
<trkpt lat="48.446791" lon="2.660662"><ele></ele><time>2017-9-18T22:42:19Z</time></trkpt>
<trkpt lat="48.446704" lon="2.660728"><ele></ele><time>2017-9-18T22:42:22Z</time></trkpt>
<trkpt lat="48.446597" lon="2.660811"><ele></ele><time>2017-9-18T22:42:25Z</time></trkpt>
<trkpt lat="48.446387" lon="2.660945"><ele></ele><time>2017-9-18T22:42:28Z</time></trkpt>
<trkpt lat="48.446283" lon="2.661041"><ele></ele><time>2017-9-18T22:42:31Z</time></trkpt>
<trkpt lat="48.446182" lon="2.661114"><ele></ele><time>2017-9-18T22:42:34Z</time></trkpt>
<trkpt lat="48.446067" lon="2.661168"><ele></ele><time>2017-9-18T22:42:37Z</time></trkpt>
<trkpt lat="48.445953" lon="2.661239"><ele></ele><time>2017-9-18T22:42:40Z</time></trkpt>
<trkpt lat="48.445846" lon="2.661305"><ele></ele><time>2017-9-18T22:42:43Z</time></trkpt>
<trkpt lat="48.44574" lon="2.661391"><ele></ele><time>2017-9-18T22:42:46Z</time></trkpt>
<trkpt lat="48.445636" lon="2.661465"><ele></ele><time>2017-9-18T22:42:49Z</time></trkpt>
<trkpt lat="48.445531" lon="2.661534"><ele></ele><time>2017-9-18T22:42:52Z</time></trkpt>
<trkpt lat="48.445406" lon="2.661597"><ele></ele><time>2017-9-18T22:42:55Z</time></trkpt>
<trkpt lat="48.445317" lon="2.661658"><ele></ele><time>2017-9-18T22:42:58Z</time></trkpt>
<trkpt lat="48.445224" lon="2.661727"><ele></ele><time>2017-9-18T22:43:1Z</time></trkpt>
<trkpt lat="48.445137" lon="2.661772"><ele></ele><time>2017-9-18T22:43:4Z</time></trkpt>
<trkpt lat="48.445034" lon="2.661809"><ele></ele><time>2017-9-18T22:43:7Z</time></trkpt>
<trkpt lat="48.444927" lon="2.661849"><ele></ele><time>2017-9-18T22:43:10Z</time></trkpt>
<trkpt lat="48.444818" lon="2.661925"><ele></ele><time>2017-9-18T22:43:13Z</time></trkpt>
<trkpt lat="48.444714" lon="2.66202"><ele></ele><time>2017-9-18T22:43:16Z</time></trkpt>
<trkpt lat="48.444612" lon="2.662104"><ele></ele><time>2017-9-18T22:43:19Z</time></trkpt>
<trkpt lat="48.444559" lon="2.662238"><ele></ele><time>2017-9-18T22:43:22Z</time></trkpt>
<trkpt lat="48.444491" lon="2.662365"><ele></ele><time>2017-9-18T22:43:25Z</time></trkpt>
<trkpt lat="48.444354" lon="2.662607"><ele></ele><time>2017-9-18T22:43:28Z</time></trkpt>
<trkpt lat="48.444303" lon="2.66276"><ele></ele><time>2017-9-18T22:43:31Z</time></trkpt>
<trkpt lat="48.44423" lon="2.662897"><ele></ele><time>2017-9-18T22:43:34Z</time></trkpt>
<trkpt lat="48.444161" lon="2.663029"><ele></ele><time>2017-9-18T22:43:37Z</time></trkpt>
<trkpt lat="48.44411" lon="2.663151"><ele></ele><time>2017-9-18T22:43:40Z</time></trkpt>
<trkpt lat="48.444053" lon="2.663291"><ele></ele><time>2017-9-18T22:43:43Z</time></trkpt>
<trkpt lat="48.444003" lon="2.663447"><ele></ele><time>2017-9-18T22:43:46Z</time></trkpt>
<trkpt lat="48.443974" lon="2.663626"><ele></ele><time>2017-9-18T22:43:49Z</time></trkpt>
<trkpt lat="48.443988" lon="2.663797"><ele></ele><time>2017-9-18T22:43:52Z</time></trkpt>
<trkpt lat="48.443986" lon="2.663939"><ele></ele><time>2017-9-18T22:43:55Z</time></trkpt>
<trkpt lat="48.443988" lon="2.664092"><ele></ele><time>2017-9-18T22:43:58Z</time></trkpt>
<trkpt lat="48.443969" lon="2.664253"><ele></ele><time>2017-9-18T22:44:1Z</time></trkpt>
<trkpt lat="48.443945" lon="2.664423"><ele></ele><time>2017-9-18T22:44:4Z</time></trkpt>
<trkpt lat="48.44394" lon="2.664567"><ele></ele><time>2017-9-18T22:44:7Z</time></trkpt>
<trkpt lat="48.443943" lon="2.664711"><ele></ele><time>2017-9-18T22:44:10Z</time></trkpt>
<trkpt lat="48.443925" lon="2.664855"><ele></ele><time>2017-9-18T22:44:13Z</time></trkpt>
<trkpt lat="48.443907" lon="2.664997"><ele></ele><time>2017-9-18T22:44:16Z</time></trkpt>
<trkpt lat="48.443882" lon="2.665129"><ele></ele><time>2017-9-18T22:44:19Z</time></trkpt>
<trkpt lat="48.44386" lon="2.66548"><ele></ele><time>2017-9-18T22:44:22Z</time></trkpt>
<trkpt lat="48.44386" lon="2.665633"><ele></ele><time>2017-9-18T22:44:25Z</time></trkpt>
<trkpt lat="48.443824" lon="2.665806"><ele></ele><time>2017-9-18T22:44:28Z</time></trkpt>
<trkpt lat="48.443819" lon="2.665981"><ele></ele><time>2017-9-18T22:44:31Z</time></trkpt>
<trkpt lat="48.443776" lon="2.666113"><ele></ele><time>2017-9-18T22:44:34Z</time></trkpt>
<trkpt lat="48.443734" lon="2.666246"><ele></ele><time>2017-9-18T22:44:37Z</time></trkpt>
<trkpt lat="48.443702" lon="2.666384"><ele></ele><time>2017-9-18T22:44:40Z</time></trkpt>
<trkpt lat="48.443676" lon="2.666525"><ele></ele><time>2017-9-18T22:44:43Z</time></trkpt>
<trkpt lat="48.443608" lon="2.666676"><ele></ele><time>2017-9-18T22:44:46Z</time></trkpt>
<trkpt lat="48.443541" lon="2.666853"><ele></ele><time>2017-9-18T22:44:49Z</time></trkpt>
<trkpt lat="48.443503" lon="2.667014"><ele></ele><time>2017-9-18T22:44:52Z</time></trkpt>
<trkpt lat="48.443458" lon="2.667145"><ele></ele><time>2017-9-18T22:44:55Z</time></trkpt>
<trkpt lat="48.443448" lon="2.667284"><ele></ele><time>2017-9-18T22:44:58Z</time></trkpt>
<trkpt lat="48.443398" lon="2.66741"><ele></ele><time>2017-9-18T22:45:1Z</time></trkpt>
<trkpt lat="48.443349" lon="2.667548"><ele></ele><time>2017-9-18T22:45:4Z</time></trkpt>
<trkpt lat="48.443285" lon="2.667665"><ele></ele><time>2017-9-18T22:45:7Z</time></trkpt>
<trkpt lat="48.443195" lon="2.667788"><ele></ele><time>2017-9-18T22:45:10Z</time></trkpt>
<trkpt lat="48.443196" lon="2.668074"><ele></ele><time>2017-9-18T22:45:13Z</time></trkpt>
<trkpt lat="48.443227" lon="2.668218"><ele></ele><time>2017-9-18T22:45:16Z</time></trkpt>
<trkpt lat="48.443276" lon="2.668371"><ele></ele><time>2017-9-18T22:45:19Z</time></trkpt>
<trkpt lat="48.443313" lon="2.668497"><ele></ele><time>2017-9-18T22:45:22Z</time></trkpt>
<trkpt lat="48.443371" lon="2.668601"><ele></ele><time>2017-9-18T22:45:25Z</time></trkpt>
<trkpt lat="48.443451" lon="2.668698"><ele></ele><time>2017-9-18T22:45:28Z</time></trkpt>
<trkpt lat="48.443547" lon="2.668765"><ele></ele><time>2017-9-18T22:45:31Z</time></trkpt>
<trkpt lat="48.44366" lon="2.668769"><ele></ele><time>2017-9-18T22:45:34Z</time></trkpt>
<trkpt lat="48.443763" lon="2.66882"><ele></ele><time>2017-9-18T22:45:37Z</time></trkpt>
<trkpt lat="48.443811" lon="2.668937"><ele></ele><time>2017-9-18T22:45:40Z</time></trkpt>
<trkpt lat="48.443837" lon="2.669097"><ele></ele><time>2017-9-18T22:45:43Z</time></trkpt>
<trkpt lat="48.443766" lon="2.669198"><ele></ele><time>2017-9-18T22:45:46Z</time></trkpt>
<trkpt lat="48.443741" lon="2.669355"><ele></ele><time>2017-9-18T22:45:49Z</time></trkpt>
<trkpt lat="48.443746" lon="2.669512"><ele></ele><time>2017-9-18T22:45:52Z</time></trkpt>
<trkpt lat="48.443639" lon="2.66975"><ele></ele><time>2017-9-18T22:45:55Z</time></trkpt>
<trkpt lat="48.443547" lon="2.669736"><ele></ele><time>2017-9-18T22:45:58Z</time></trkpt>
<trkpt lat="48.443441" lon="2.669641"><ele></ele><time>2017-9-18T22:46:1Z</time></trkpt>
<trkpt lat="48.443311" lon="2.669592"><ele></ele><time>2017-9-18T22:46:4Z</time></trkpt>
<trkpt lat="48.443206" lon="2.669518"><ele></ele><time>2017-9-18T22:46:7Z</time></trkpt>
<trkpt lat="48.443097" lon="2.669434"><ele></ele><time>2017-9-18T22:46:10Z</time></trkpt>
<trkpt lat="48.443" lon="2.66934"><ele></ele><time>2017-9-18T22:46:13Z</time></trkpt>
<trkpt lat="48.442904" lon="2.669398"><ele></ele><time>2017-9-18T22:46:16Z</time></trkpt>
<trkpt lat="48.442781" lon="2.669437"><ele></ele><time>2017-9-18T22:46:19Z</time></trkpt>
<trkpt lat="48.442672" lon="2.669443"><ele></ele><time>2017-9-18T22:46:22Z</time></trkpt>
<trkpt lat="48.442556" lon="2.669428"><ele></ele><time>2017-9-18T22:46:25Z</time></trkpt>
<trkpt lat="48.442446" lon="2.669377"><ele></ele><time>2017-9-18T22:46:28Z</time></trkpt>
<trkpt lat="48.442325" lon="2.669347"><ele></ele><time>2017-9-18T22:46:31Z</time></trkpt>
<trkpt lat="48.442232" lon="2.669273"><ele></ele><time>2017-9-18T22:46:34Z</time></trkpt>
<trkpt lat="48.442132" lon="2.669273"><ele></ele><time>2017-9-18T22:46:37Z</time></trkpt>
<trkpt lat="48.44206" lon="2.669181"><ele></ele><time>2017-9-18T22:46:40Z</time></trkpt>
<trkpt lat="48.441964" lon="2.669122"><ele></ele><time>2017-9-18T22:46:43Z</time></trkpt>
<trkpt lat="48.441791" lon="2.66895"><ele></ele><time>2017-9-18T22:46:46Z</time></trkpt>
<trkpt lat="48.441685" lon="2.668914"><ele></ele><time>2017-9-18T22:46:49Z</time></trkpt>
<trkpt lat="48.441585" lon="2.668856"><ele></ele><time>2017-9-18T22:46:52Z</time></trkpt>
<trkpt lat="48.44147" lon="2.6688"><ele></ele><time>2017-9-18T22:46:55Z</time></trkpt>
<trkpt lat="48.441366" lon="2.668744"><ele></ele><time>2017-9-18T22:46:58Z</time></trkpt>
<trkpt lat="48.441273" lon="2.66868"><ele></ele><time>2017-9-18T22:47:1Z</time></trkpt>
<trkpt lat="48.441176" lon="2.668616"><ele></ele><time>2017-9-18T22:47:4Z</time></trkpt>
<trkpt lat="48.441073" lon="2.66857"><ele></ele><time>2017-9-18T22:47:7Z</time></trkpt>
<trkpt lat="48.440958" lon="2.668505"><ele></ele><time>2017-9-18T22:47:10Z</time></trkpt>
<trkpt lat="48.440873" lon="2.668449"><ele></ele><time>2017-9-18T22:47:13Z</time></trkpt>
<trkpt lat="48.440787" lon="2.668403"><ele></ele><time>2017-9-18T22:47:16Z</time></trkpt>
<trkpt lat="48.440688" lon="2.668368"><ele></ele><time>2017-9-18T22:47:19Z</time></trkpt>
<trkpt lat="48.440603" lon="2.66832"><ele></ele><time>2017-9-18T22:47:22Z</time></trkpt>
<trkpt lat="48.440488" lon="2.668241"><ele></ele><time>2017-9-18T22:47:25Z</time></trkpt>
<trkpt lat="48.440398" lon="2.668201"><ele></ele><time>2017-9-18T22:47:28Z</time></trkpt>
<trkpt lat="48.440304" lon="2.668143"><ele></ele><time>2017-9-18T22:47:31Z</time></trkpt>
<trkpt lat="48.440193" lon="2.668095"><ele></ele><time>2017-9-18T22:47:34Z</time></trkpt>
<trkpt lat="48.440105" lon="2.668036"><ele></ele><time>2017-9-18T22:47:37Z</time></trkpt>
<trkpt lat="48.440012" lon="2.667967"><ele></ele><time>2017-9-18T22:47:40Z</time></trkpt>
<trkpt lat="48.439914" lon="2.667939"><ele></ele><time>2017-9-18T22:47:43Z</time></trkpt>
<trkpt lat="48.439825" lon="2.667898"><ele></ele><time>2017-9-18T22:47:46Z</time></trkpt>
<trkpt lat="48.43971" lon="2.667845"><ele></ele><time>2017-9-18T22:47:49Z</time></trkpt>
<trkpt lat="48.439508" lon="2.667826"><ele></ele><time>2017-9-18T22:47:52Z</time></trkpt>
<trkpt lat="48.43942" lon="2.667861"><ele></ele><time>2017-9-18T22:47:55Z</time></trkpt>
<trkpt lat="48.43933" lon="2.667907"><ele></ele><time>2017-9-18T22:47:58Z</time></trkpt>
<trkpt lat="48.439218" lon="2.66791"><ele></ele><time>2017-9-18T22:48:1Z</time></trkpt>
<trkpt lat="48.439103" lon="2.667906"><ele></ele><time>2017-9-18T22:48:4Z</time></trkpt>
<trkpt lat="48.439001" lon="2.667889"><ele></ele><time>2017-9-18T22:48:7Z</time></trkpt>
<trkpt lat="48.438908" lon="2.667856"><ele></ele><time>2017-9-18T22:48:10Z</time></trkpt>
<trkpt lat="48.438791" lon="2.667816"><ele></ele><time>2017-9-18T22:48:13Z</time></trkpt>
<trkpt lat="48.438689" lon="2.6678"><ele></ele><time>2017-9-18T22:48:16Z</time></trkpt>
<trkpt lat="48.438589" lon="2.667754"><ele></ele><time>2017-9-18T22:48:19Z</time></trkpt>
<trkpt lat="48.438488" lon="2.667728"><ele></ele><time>2017-9-18T22:48:22Z</time></trkpt>
<trkpt lat="48.43836" lon="2.667664"><ele></ele><time>2017-9-18T22:48:25Z</time></trkpt>
<trkpt lat="48.438263" lon="2.667565"><ele></ele><time>2017-9-18T22:48:28Z</time></trkpt>
<trkpt lat="48.438146" lon="2.667502"><ele></ele><time>2017-9-18T22:48:31Z</time></trkpt>
<trkpt lat="48.438023" lon="2.667455"><ele></ele><time>2017-9-18T22:48:34Z</time></trkpt>
<trkpt lat="48.437916" lon="2.667391"><ele></ele><time>2017-9-18T22:48:37Z</time></trkpt>
<trkpt lat="48.437804" lon="2.66736"><ele></ele><time>2017-9-18T22:48:40Z</time></trkpt>
<trkpt lat="48.43771" lon="2.667308"><ele></ele><time>2017-9-18T22:48:43Z</time></trkpt>
<trkpt lat="48.437611" lon="2.667282"><ele></ele><time>2017-9-18T22:48:46Z</time></trkpt>
<trkpt lat="48.437491" lon="2.667212"><ele></ele><time>2017-9-18T22:48:49Z</time></trkpt>
<trkpt lat="48.437388" lon="2.667179"><ele></ele><time>2017-9-18T22:48:52Z</time></trkpt>
<trkpt lat="48.437292" lon="2.66715"><ele></ele><time>2017-9-18T22:48:55Z</time></trkpt>
<trkpt lat="48.437177" lon="2.667114"><ele></ele><time>2017-9-18T22:48:58Z</time></trkpt>
<trkpt lat="48.43707" lon="2.667094"><ele></ele><time>2017-9-18T22:49:1Z</time></trkpt>
<trkpt lat="48.436876" lon="2.667099"><ele></ele><time>2017-9-18T22:49:4Z</time></trkpt>
<trkpt lat="48.436768" lon="2.667138"><ele></ele><time>2017-9-18T22:49:7Z</time></trkpt>
<trkpt lat="48.436639" lon="2.667116"><ele></ele><time>2017-9-18T22:49:10Z</time></trkpt>
<trkpt lat="48.436508" lon="2.667142"><ele></ele><time>2017-9-18T22:49:13Z</time></trkpt>
<trkpt lat="48.436393" lon="2.667166"><ele></ele><time>2017-9-18T22:49:16Z</time></trkpt>
<trkpt lat="48.436277" lon="2.667166"><ele></ele><time>2017-9-18T22:49:19Z</time></trkpt>
<trkpt lat="48.436175" lon="2.667172"><ele></ele><time>2017-9-18T22:49:22Z</time></trkpt>
<trkpt lat="48.436109" lon="2.667048"><ele></ele><time>2017-9-18T22:49:25Z</time></trkpt>
<trkpt lat="48.436011" lon="2.667033"><ele></ele><time>2017-9-18T22:49:28Z</time></trkpt>
<trkpt lat="48.435917" lon="2.666986"><ele></ele><time>2017-9-18T22:49:31Z</time></trkpt>
<trkpt lat="48.435823" lon="2.666891"><ele></ele><time>2017-9-18T22:49:34Z</time></trkpt>
<trkpt lat="48.435717" lon="2.666815"><ele></ele><time>2017-9-18T22:49:37Z</time></trkpt>
<trkpt lat="48.43564" lon="2.666736"><ele></ele><time>2017-9-18T22:49:40Z</time></trkpt>
<trkpt lat="48.435545" lon="2.666666"><ele></ele><time>2017-9-18T22:49:43Z</time></trkpt>
<trkpt lat="48.435468" lon="2.666537"><ele></ele><time>2017-9-18T22:49:46Z</time></trkpt>
<trkpt lat="48.435385" lon="2.666429"><ele></ele><time>2017-9-18T22:49:49Z</time></trkpt>
<trkpt lat="48.4354" lon="2.666586"><ele></ele><time>2017-9-18T22:49:52Z</time></trkpt>
<trkpt lat="48.435489" lon="2.666869"><ele></ele><time>2017-9-18T22:49:55Z</time></trkpt>
<trkpt lat="48.435532" lon="2.667052"><ele></ele><time>2017-9-18T22:49:58Z</time></trkpt>
<trkpt lat="48.435585" lon="2.667199"><ele></ele><time>2017-9-18T22:50:1Z</time></trkpt>
<trkpt lat="48.435661" lon="2.667337"><ele></ele><time>2017-9-18T22:50:4Z</time></trkpt>
<trkpt lat="48.435724" lon="2.667469"><ele></ele><time>2017-9-18T22:50:7Z</time></trkpt>
<trkpt lat="48.435777" lon="2.667599"><ele></ele><time>2017-9-18T22:50:10Z</time></trkpt>
<trkpt lat="48.435797" lon="2.667759"><ele></ele><time>2017-9-18T22:50:13Z</time></trkpt>
<trkpt lat="48.435793" lon="2.667903"><ele></ele><time>2017-9-18T22:50:16Z</time></trkpt>
<trkpt lat="48.435842" lon="2.668055"><ele></ele><time>2017-9-18T22:50:19Z</time></trkpt>
<trkpt lat="48.435884" lon="2.668212"><ele></ele><time>2017-9-18T22:50:22Z</time></trkpt>
<trkpt lat="48.435912" lon="2.668402"><ele></ele><time>2017-9-18T22:50:25Z</time></trkpt>
<trkpt lat="48.435971" lon="2.668549"><ele></ele><time>2017-9-18T22:50:28Z</time></trkpt>
<trkpt lat="48.43599" lon="2.668698"><ele></ele><time>2017-9-18T22:50:31Z</time></trkpt>
<trkpt lat="48.435973" lon="2.668898"><ele></ele><time>2017-9-18T22:50:34Z</time></trkpt>
<trkpt lat="48.435905" lon="2.669078"><ele></ele><time>2017-9-18T22:50:37Z</time></trkpt>
<trkpt lat="48.435876" lon="2.669221"><ele></ele><time>2017-9-18T22:50:40Z</time></trkpt>
<trkpt lat="48.435835" lon="2.669419"><ele></ele><time>2017-9-18T22:50:43Z</time></trkpt>
<trkpt lat="48.435781" lon="2.669617"><ele></ele><time>2017-9-18T22:50:46Z</time></trkpt>
<trkpt lat="48.435741" lon="2.669797"><ele></ele><time>2017-9-18T22:50:49Z</time></trkpt>
<trkpt lat="48.435696" lon="2.669974"><ele></ele><time>2017-9-18T22:50:52Z</time></trkpt>
<trkpt lat="48.435671" lon="2.670155"><ele></ele><time>2017-9-18T22:50:55Z</time></trkpt>
<trkpt lat="48.435657" lon="2.670309"><ele></ele><time>2017-9-18T22:50:58Z</time></trkpt>
<trkpt lat="48.43563" lon="2.670467"><ele></ele><time>2017-9-18T22:51:1Z</time></trkpt>
<trkpt lat="48.435579" lon="2.670614"><ele></ele><time>2017-9-18T22:51:4Z</time></trkpt>
<trkpt lat="48.435532" lon="2.67098"><ele></ele><time>2017-9-18T22:51:7Z</time></trkpt>
<trkpt lat="48.435497" lon="2.671136"><ele></ele><time>2017-9-18T22:51:10Z</time></trkpt>
<trkpt lat="48.435486" lon="2.671293"><ele></ele><time>2017-9-18T22:51:13Z</time></trkpt>
<trkpt lat="48.43545" lon="2.67146"><ele></ele><time>2017-9-18T22:51:16Z</time></trkpt>
<trkpt lat="48.435448" lon="2.671605"><ele></ele><time>2017-9-18T22:51:19Z</time></trkpt>
<trkpt lat="48.435424" lon="2.671751"><ele></ele><time>2017-9-18T22:51:22Z</time></trkpt>
<trkpt lat="48.435408" lon="2.671936"><ele></ele><time>2017-9-18T22:51:25Z</time></trkpt>
<trkpt lat="48.435365" lon="2.672092"><ele></ele><time>2017-9-18T22:51:28Z</time></trkpt>
<trkpt lat="48.435338" lon="2.672226"><ele></ele><time>2017-9-18T22:51:31Z</time></trkpt>
<trkpt lat="48.435305" lon="2.672395"><ele></ele><time>2017-9-18T22:51:34Z</time></trkpt>
<trkpt lat="48.435298" lon="2.672534"><ele></ele><time>2017-9-18T22:51:37Z</time></trkpt>
<trkpt lat="48.435266" lon="2.672714"><ele></ele><time>2017-9-18T22:51:40Z</time></trkpt>
<trkpt lat="48.435224" lon="2.672898"><ele></ele><time>2017-9-18T22:51:43Z</time></trkpt>
<trkpt lat="48.435214" lon="2.673057"><ele></ele><time>2017-9-18T22:51:46Z</time></trkpt>
<trkpt lat="48.435198" lon="2.673191"><ele></ele><time>2017-9-18T22:51:49Z</time></trkpt>
<trkpt lat="48.435169" lon="2.673335"><ele></ele><time>2017-9-18T22:51:52Z</time></trkpt>
<trkpt lat="48.435157" lon="2.673505"><ele></ele><time>2017-9-18T22:51:55Z</time></trkpt>
<trkpt lat="48.435175" lon="2.673661"><ele></ele><time>2017-9-18T22:51:58Z</time></trkpt>
<trkpt lat="48.435177" lon="2.673796"><ele></ele><time>2017-9-18T22:52:1Z</time></trkpt>
<trkpt lat="48.435174" lon="2.673939"><ele></ele><time>2017-9-18T22:52:4Z</time></trkpt>
<trkpt lat="48.435178" lon="2.67414"><ele></ele><time>2017-9-18T22:52:7Z</time></trkpt>
<trkpt lat="48.435188" lon="2.674326"><ele></ele><time>2017-9-18T22:52:10Z</time></trkpt>
<trkpt lat="48.435191" lon="2.674516"><ele></ele><time>2017-9-18T22:52:13Z</time></trkpt>
<trkpt lat="48.435191" lon="2.674665"><ele></ele><time>2017-9-18T22:52:16Z</time></trkpt>
<trkpt lat="48.435193" lon="2.674866"><ele></ele><time>2017-9-18T22:52:19Z</time></trkpt>
<trkpt lat="48.435179" lon="2.675202"><ele></ele><time>2017-9-18T22:52:22Z</time></trkpt>
<trkpt lat="48.435134" lon="2.675339"><ele></ele><time>2017-9-18T22:52:25Z</time></trkpt>
<trkpt lat="48.435083" lon="2.675468"><ele></ele><time>2017-9-18T22:52:28Z</time></trkpt>
<trkpt lat="48.435039" lon="2.675593"><ele></ele><time>2017-9-18T22:52:31Z</time></trkpt>
<trkpt lat="48.434988" lon="2.675712"><ele></ele><time>2017-9-18T22:52:34Z</time></trkpt>
<trkpt lat="48.434922" lon="2.675888"><ele></ele><time>2017-9-18T22:52:37Z</time></trkpt>
<trkpt lat="48.43486" lon="2.676064"><ele></ele><time>2017-9-18T22:52:40Z</time></trkpt>
<trkpt lat="48.434808" lon="2.676177"><ele></ele><time>2017-9-18T22:52:43Z</time></trkpt>
<trkpt lat="48.434714" lon="2.676321"><ele></ele><time>2017-9-18T22:52:46Z</time></trkpt>
<trkpt lat="48.434645" lon="2.676419"><ele></ele><time>2017-9-18T22:52:49Z</time></trkpt>
<trkpt lat="48.434579" lon="2.676516"><ele></ele><time>2017-9-18T22:52:52Z</time></trkpt>
<trkpt lat="48.43448" lon="2.676655"><ele></ele><time>2017-9-18T22:52:55Z</time></trkpt>
<trkpt lat="48.434411" lon="2.676749"><ele></ele><time>2017-9-18T22:52:58Z</time></trkpt>
<trkpt lat="48.434341" lon="2.676837"><ele></ele><time>2017-9-18T22:53:1Z</time></trkpt>
<trkpt lat="48.43427" lon="2.676931"><ele></ele><time>2017-9-18T22:53:4Z</time></trkpt>
<trkpt lat="48.434199" lon="2.677022"><ele></ele><time>2017-9-18T22:53:7Z</time></trkpt>
<trkpt lat="48.4341" lon="2.677162"><ele></ele><time>2017-9-18T22:53:10Z</time></trkpt>
<trkpt lat="48.434026" lon="2.677255"><ele></ele><time>2017-9-18T22:53:13Z</time></trkpt>
<trkpt lat="48.43396" lon="2.677358"><ele></ele><time>2017-9-18T22:53:16Z</time></trkpt>
<trkpt lat="48.433904" lon="2.677467"><ele></ele><time>2017-9-18T22:53:19Z</time></trkpt>
<trkpt lat="48.433835" lon="2.677639"><ele></ele><time>2017-9-18T22:53:22Z</time></trkpt>
<trkpt lat="48.433791" lon="2.677757"><ele></ele><time>2017-9-18T22:53:25Z</time></trkpt>
<trkpt lat="48.43373" lon="2.677934"><ele></ele><time>2017-9-18T22:53:28Z</time></trkpt>
<trkpt lat="48.433669" lon="2.678106"><ele></ele><time>2017-9-18T22:53:31Z</time></trkpt>
<trkpt lat="48.433617" lon="2.678286"><ele></ele><time>2017-9-18T22:53:34Z</time></trkpt>
<trkpt lat="48.433507" lon="2.678652"><ele></ele><time>2017-9-18T22:53:37Z</time></trkpt>
<trkpt lat="48.433461" lon="2.678815"><ele></ele><time>2017-9-18T22:53:40Z</time></trkpt>
<trkpt lat="48.433405" lon="2.679007"><ele></ele><time>2017-9-18T22:53:43Z</time></trkpt>
<trkpt lat="48.433358" lon="2.679124"><ele></ele><time>2017-9-18T22:53:46Z</time></trkpt>
<trkpt lat="48.433338" lon="2.679267"><ele></ele><time>2017-9-18T22:53:49Z</time></trkpt>
<trkpt lat="48.433299" lon="2.679407"><ele></ele><time>2017-9-18T22:53:52Z</time></trkpt>
<trkpt lat="48.433247" lon="2.679563"><ele></ele><time>2017-9-18T22:53:55Z</time></trkpt>
<trkpt lat="48.433211" lon="2.679717"><ele></ele><time>2017-9-18T22:53:58Z</time></trkpt>
<trkpt lat="48.433172" lon="2.679856"><ele></ele><time>2017-9-18T22:54:1Z</time></trkpt>
<trkpt lat="48.433121" lon="2.680026"><ele></ele><time>2017-9-18T22:54:4Z</time></trkpt>
<trkpt lat="48.433061" lon="2.680151"><ele></ele><time>2017-9-18T22:54:7Z</time></trkpt>
<trkpt lat="48.433006" lon="2.680304"><ele></ele><time>2017-9-18T22:54:10Z</time></trkpt>
<trkpt lat="48.432964" lon="2.680481"><ele></ele><time>2017-9-18T22:54:13Z</time></trkpt>
<trkpt lat="48.432951" lon="2.680624"><ele></ele><time>2017-9-18T22:54:16Z</time></trkpt>
<trkpt lat="48.432929" lon="2.680797"><ele></ele><time>2017-9-18T22:54:19Z</time></trkpt>
<trkpt lat="48.432901" lon="2.680963"><ele></ele><time>2017-9-18T22:54:22Z</time></trkpt>
<trkpt lat="48.432885" lon="2.681099"><ele></ele><time>2017-9-18T22:54:25Z</time></trkpt>
<trkpt lat="48.432882" lon="2.681293"><ele></ele><time>2017-9-18T22:54:28Z</time></trkpt>
<trkpt lat="48.43281" lon="2.681444"><ele></ele><time>2017-9-18T22:54:31Z</time></trkpt>
<trkpt lat="48.432753" lon="2.681557"><ele></ele><time>2017-9-18T22:54:34Z</time></trkpt>
<trkpt lat="48.432656" lon="2.681842"><ele></ele><time>2017-9-18T22:54:37Z</time></trkpt>
<trkpt lat="48.432649" lon="2.682015"><ele></ele><time>2017-9-18T22:54:40Z</time></trkpt>
<trkpt lat="48.43261" lon="2.682168"><ele></ele><time>2017-9-18T22:54:43Z</time></trkpt>
<trkpt lat="48.432562" lon="2.682294"><ele></ele><time>2017-9-18T22:54:46Z</time></trkpt>
<trkpt lat="48.432514" lon="2.682444"><ele></ele><time>2017-9-18T22:54:49Z</time></trkpt>
<trkpt lat="48.432469" lon="2.68259"><ele></ele><time>2017-9-18T22:54:52Z</time></trkpt>
<trkpt lat="48.432459" lon="2.682733"><ele></ele><time>2017-9-18T22:54:55Z</time></trkpt>
<trkpt lat="48.432444" lon="2.68288"><ele></ele><time>2017-9-18T22:54:58Z</time></trkpt>
<trkpt lat="48.432386" lon="2.683037"><ele></ele><time>2017-9-18T22:55:1Z</time></trkpt>
<trkpt lat="48.43237" lon="2.683211"><ele></ele><time>2017-9-18T22:55:4Z</time></trkpt>
<trkpt lat="48.432333" lon="2.683349"><ele></ele><time>2017-9-18T22:55:7Z</time></trkpt>
<trkpt lat="48.432335" lon="2.683529"><ele></ele><time>2017-9-18T22:55:10Z</time></trkpt>
<trkpt lat="48.432256" lon="2.683602"><ele></ele><time>2017-9-18T22:55:13Z</time></trkpt>
<trkpt lat="48.432175" lon="2.683681"><ele></ele><time>2017-9-18T22:55:16Z</time></trkpt>
<trkpt lat="48.432108" lon="2.683798"><ele></ele><time>2017-9-18T22:55:19Z</time></trkpt>
<trkpt lat="48.432035" lon="2.683887"><ele></ele><time>2017-9-18T22:55:22Z</time></trkpt>
<trkpt lat="48.431945" lon="2.684012"><ele></ele><time>2017-9-18T22:55:25Z</time></trkpt>
<trkpt lat="48.431883" lon="2.68412"><ele></ele><time>2017-9-18T22:55:28Z</time></trkpt>
<trkpt lat="48.431731" lon="2.684335"><ele></ele><time>2017-9-18T22:55:31Z</time></trkpt>
<trkpt lat="48.431727" lon="2.684481"><ele></ele><time>2017-9-18T22:55:34Z</time></trkpt>
<trkpt lat="48.431704" lon="2.68464"><ele></ele><time>2017-9-18T22:55:37Z</time></trkpt>
<trkpt lat="48.431667" lon="2.684789"><ele></ele><time>2017-9-18T22:55:40Z</time></trkpt>
<trkpt lat="48.431616" lon="2.684925"><ele></ele><time>2017-9-18T22:55:43Z</time></trkpt>
<trkpt lat="48.431557" lon="2.685078"><ele></ele><time>2017-9-18T22:55:46Z</time></trkpt>
<trkpt lat="48.431517" lon="2.685206"><ele></ele><time>2017-9-18T22:55:49Z</time></trkpt>
<trkpt lat="48.431461" lon="2.68533"><ele></ele><time>2017-9-18T22:55:52Z</time></trkpt>
<trkpt lat="48.431402" lon="2.685447"><ele></ele><time>2017-9-18T22:55:55Z</time></trkpt>
<trkpt lat="48.431343" lon="2.685564"><ele></ele><time>2017-9-18T22:55:58Z</time></trkpt>
<trkpt lat="48.431325" lon="2.685701"><ele></ele><time>2017-9-18T22:56:1Z</time></trkpt>
<trkpt lat="48.431243" lon="2.685794"><ele></ele><time>2017-9-18T22:56:4Z</time></trkpt>
<trkpt lat="48.431147" lon="2.685831"><ele></ele><time>2017-9-18T22:56:7Z</time></trkpt>
<trkpt lat="48.431071" lon="2.686128"><ele></ele><time>2017-9-18T22:56:10Z</time></trkpt>
<trkpt lat="48.431024" lon="2.686328"><ele></ele><time>2017-9-18T22:56:13Z</time></trkpt>
<trkpt lat="48.430968" lon="2.686453"><ele></ele><time>2017-9-18T22:56:16Z</time></trkpt>
<trkpt lat="48.430907" lon="2.686555"><ele></ele><time>2017-9-18T22:56:19Z</time></trkpt>
<trkpt lat="48.430861" lon="2.686717"><ele></ele><time>2017-9-18T22:56:22Z</time></trkpt>
<trkpt lat="48.430835" lon="2.686871"><ele></ele><time>2017-9-18T22:56:25Z</time></trkpt>
<trkpt lat="48.430816" lon="2.687007"><ele></ele><time>2017-9-18T22:56:28Z</time></trkpt>
<trkpt lat="48.430845" lon="2.687137"><ele></ele><time>2017-9-18T22:56:31Z</time></trkpt>
<trkpt lat="48.430835" lon="2.687308"><ele></ele><time>2017-9-18T22:56:34Z</time></trkpt>
<trkpt lat="48.430822" lon="2.687474"><ele></ele><time>2017-9-18T22:56:37Z</time></trkpt>
<trkpt lat="48.430863" lon="2.687629"><ele></ele><time>2017-9-18T22:56:40Z</time></trkpt>
<trkpt lat="48.430936" lon="2.687803"><ele></ele><time>2017-9-18T22:56:43Z</time></trkpt>
<trkpt lat="48.431002" lon="2.687957"><ele></ele><time>2017-9-18T22:56:46Z</time></trkpt>
<trkpt lat="48.431065" lon="2.688074"><ele></ele><time>2017-9-18T22:56:49Z</time></trkpt>
<trkpt lat="48.43113" lon="2.688178"><ele></ele><time>2017-9-18T22:56:52Z</time></trkpt>
<trkpt lat="48.431204" lon="2.688282"><ele></ele><time>2017-9-18T22:56:55Z</time></trkpt>
<trkpt lat="48.431196" lon="2.688533"><ele></ele><time>2017-9-18T22:56:58Z</time></trkpt>
<trkpt lat="48.431163" lon="2.688662"><ele></ele><time>2017-9-18T22:57:1Z</time></trkpt>
<trkpt lat="48.431131" lon="2.688834"><ele></ele><time>2017-9-18T22:57:4Z</time></trkpt>
<trkpt lat="48.431111" lon="2.689018"><ele></ele><time>2017-9-18T22:57:7Z</time></trkpt>
<trkpt lat="48.431109" lon="2.689196"><ele></ele><time>2017-9-18T22:57:10Z</time></trkpt>
<trkpt lat="48.431132" lon="2.689394"><ele></ele><time>2017-9-18T22:57:13Z</time></trkpt>
<trkpt lat="48.431153" lon="2.689555"><ele></ele><time>2017-9-18T22:57:16Z</time></trkpt>
<trkpt lat="48.431196" lon="2.689708"><ele></ele><time>2017-9-18T22:57:19Z</time></trkpt>
<trkpt lat="48.431218" lon="2.689845"><ele></ele><time>2017-9-18T22:57:22Z</time></trkpt>
<trkpt lat="48.431246" lon="2.68998"><ele></ele><time>2017-9-18T22:57:25Z</time></trkpt>
<trkpt lat="48.431288" lon="2.690102"><ele></ele><time>2017-9-18T22:57:28Z</time></trkpt>
<trkpt lat="48.431373" lon="2.690468"><ele></ele><time>2017-9-18T22:57:31Z</time></trkpt>
<trkpt lat="48.431437" lon="2.690591"><ele></ele><time>2017-9-18T22:57:34Z</time></trkpt>
<trkpt lat="48.431491" lon="2.690704"><ele></ele><time>2017-9-18T22:57:37Z</time></trkpt>
<trkpt lat="48.431551" lon="2.690867"><ele></ele><time>2017-9-18T22:57:40Z</time></trkpt>
<trkpt lat="48.431619" lon="2.691029"><ele></ele><time>2017-9-18T22:57:43Z</time></trkpt>
<trkpt lat="48.431678" lon="2.691169"><ele></ele><time>2017-9-18T22:57:46Z</time></trkpt>
<trkpt lat="48.431746" lon="2.691314"><ele></ele><time>2017-9-18T22:57:49Z</time></trkpt>
<trkpt lat="48.431819" lon="2.691454"><ele></ele><time>2017-9-18T22:57:52Z</time></trkpt>
<trkpt lat="48.431892" lon="2.69157"><ele></ele><time>2017-9-18T22:57:55Z</time></trkpt>
<trkpt lat="48.431967" lon="2.691719"><ele></ele><time>2017-9-18T22:57:58Z</time></trkpt>
<trkpt lat="48.432029" lon="2.691858"><ele></ele><time>2017-9-18T22:58:1Z</time></trkpt>
<trkpt lat="48.432103" lon="2.692005"><ele></ele><time>2017-9-18T22:58:4Z</time></trkpt>
<trkpt lat="48.432179" lon="2.692167"><ele></ele><time>2017-9-18T22:58:7Z</time></trkpt>
<trkpt lat="48.43226" lon="2.69231"><ele></ele><time>2017-9-18T22:58:10Z</time></trkpt>
<trkpt lat="48.432338" lon="2.692469"><ele></ele><time>2017-9-18T22:58:13Z</time></trkpt>
<trkpt lat="48.43242" lon="2.692611"><ele></ele><time>2017-9-18T22:58:16Z</time></trkpt>
<trkpt lat="48.432483" lon="2.692716"><ele></ele><time>2017-9-18T22:58:19Z</time></trkpt>
<trkpt lat="48.432529" lon="2.692838"><ele></ele><time>2017-9-18T22:58:22Z</time></trkpt>
<trkpt lat="48.432602" lon="2.692965"><ele></ele><time>2017-9-18T22:58:25Z</time></trkpt>
<trkpt lat="48.432744" lon="2.693218"><ele></ele><time>2017-9-18T22:58:28Z</time></trkpt>
<trkpt lat="48.432818" lon="2.693318"><ele></ele><time>2017-9-18T22:58:31Z</time></trkpt>
<trkpt lat="48.432902" lon="2.693455"><ele></ele><time>2017-9-18T22:58:34Z</time></trkpt>
<trkpt lat="48.432979" lon="2.693594"><ele></ele><time>2017-9-18T22:58:37Z</time></trkpt>
<trkpt lat="48.433048" lon="2.693716"><ele></ele><time>2017-9-18T22:58:40Z</time></trkpt>
<trkpt lat="48.433123" lon="2.693832"><ele></ele><time>2017-9-18T22:58:43Z</time></trkpt>
<trkpt lat="48.433212" lon="2.693958"><ele></ele><time>2017-9-18T22:58:46Z</time></trkpt>
<trkpt lat="48.433289" lon="2.694091"><ele></ele><time>2017-9-18T22:58:49Z</time></trkpt>
<trkpt lat="48.433367" lon="2.694212"><ele></ele><time>2017-9-18T22:58:52Z</time></trkpt>
<trkpt lat="48.433438" lon="2.694327"><ele></ele><time>2017-9-18T22:58:55Z</time></trkpt>
<trkpt lat="48.433516" lon="2.694436"><ele></ele><time>2017-9-18T22:58:58Z</time></trkpt>
<trkpt lat="48.433589" lon="2.694584"><ele></ele><time>2017-9-18T22:59:1Z</time></trkpt>
<trkpt lat="48.433658" lon="2.694718"><ele></ele><time>2017-9-18T22:59:4Z</time></trkpt>
<trkpt lat="48.433718" lon="2.694848"><ele></ele><time>2017-9-18T22:59:7Z</time></trkpt>
<trkpt lat="48.433794" lon="2.694968"><ele></ele><time>2017-9-18T22:59:10Z</time></trkpt>
<trkpt lat="48.433866" lon="2.695101"><ele></ele><time>2017-9-18T22:59:13Z</time></trkpt>
<trkpt lat="48.433942" lon="2.695231"><ele></ele><time>2017-9-18T22:59:16Z</time></trkpt>
<trkpt lat="48.434017" lon="2.695352"><ele></ele><time>2017-9-18T22:59:19Z</time></trkpt>
<trkpt lat="48.43409" lon="2.695469"><ele></ele><time>2017-9-18T22:59:22Z</time></trkpt>
<trkpt lat="48.434156" lon="2.695619"><ele></ele><time>2017-9-18T22:59:25Z</time></trkpt>
<trkpt lat="48.434306" lon="2.695867"><ele></ele><time>2017-9-18T22:59:28Z</time></trkpt>
<trkpt lat="48.434389" lon="2.695989"><ele></ele><time>2017-9-18T22:59:31Z</time></trkpt>
<trkpt lat="48.434418" lon="2.696122"><ele></ele><time>2017-9-18T22:59:34Z</time></trkpt>
<trkpt lat="48.434479" lon="2.696271"><ele></ele><time>2017-9-18T22:59:37Z</time></trkpt>
<trkpt lat="48.434526" lon="2.696388"><ele></ele><time>2017-9-18T22:59:40Z</time></trkpt>
<trkpt lat="48.434635" lon="2.696478"><ele></ele><time>2017-9-18T22:59:43Z</time></trkpt>
<trkpt lat="48.434733" lon="2.696529"><ele></ele><time>2017-9-18T22:59:46Z</time></trkpt>
<trkpt lat="48.434882" lon="2.696606"><ele></ele><time>2017-9-18T22:59:49Z</time></trkpt>
<trkpt lat="48.434986" lon="2.696629"><ele></ele><time>2017-9-18T22:59:52Z</time></trkpt>
<trkpt lat="48.435125" lon="2.696731"><ele></ele><time>2017-9-18T22:59:55Z</time></trkpt>
<trkpt lat="48.435226" lon="2.696755"><ele></ele><time>2017-9-18T22:59:58Z</time></trkpt>
<trkpt lat="48.435318" lon="2.696786"><ele></ele><time>2017-9-18T23:0:1Z</time></trkpt>
<trkpt lat="48.435416" lon="2.696827"><ele></ele><time>2017-9-18T23:0:4Z</time></trkpt>
<trkpt lat="48.435527" lon="2.696848"><ele></ele><time>2017-9-18T23:0:7Z</time></trkpt>
<trkpt lat="48.435636" lon="2.696904"><ele></ele><time>2017-9-18T23:0:10Z</time></trkpt>
<trkpt lat="48.435747" lon="2.696922"><ele></ele><time>2017-9-18T23:0:13Z</time></trkpt>
<trkpt lat="48.435872" lon="2.696972"><ele></ele><time>2017-9-18T23:0:16Z</time></trkpt>
<trkpt lat="48.436088" lon="2.697079"><ele></ele><time>2017-9-18T23:0:19Z</time></trkpt>
<trkpt lat="48.436208" lon="2.697147"><ele></ele><time>2017-9-18T23:0:22Z</time></trkpt>
<trkpt lat="48.436308" lon="2.697205"><ele></ele><time>2017-9-18T23:0:25Z</time></trkpt>
<trkpt lat="48.436356" lon="2.697328"><ele></ele><time>2017-9-18T23:0:28Z</time></trkpt>
<trkpt lat="48.436309" lon="2.69746"><ele></ele><time>2017-9-18T23:0:31Z</time></trkpt>
<trkpt lat="48.436283" lon="2.69762"><ele></ele><time>2017-9-18T23:0:34Z</time></trkpt>
<trkpt lat="48.436246" lon="2.697797"><ele></ele><time>2017-9-18T23:0:37Z</time></trkpt>
<trkpt lat="48.436249" lon="2.698012"><ele></ele><time>2017-9-18T23:0:40Z</time></trkpt>
<trkpt lat="48.436244" lon="2.6982"><ele></ele><time>2017-9-18T23:0:43Z</time></trkpt>
<trkpt lat="48.436204" lon="2.69835"><ele></ele><time>2017-9-18T23:0:46Z</time></trkpt>
<trkpt lat="48.436189" lon="2.698545"><ele></ele><time>2017-9-18T23:0:49Z</time></trkpt>
<trkpt lat="48.436158" lon="2.69871"><ele></ele><time>2017-9-18T23:0:52Z</time></trkpt>
<trkpt lat="48.436093" lon="2.699017"><ele></ele><time>2017-9-18T23:0:55Z</time></trkpt>
<trkpt lat="48.436115" lon="2.69921"><ele></ele><time>2017-9-18T23:0:58Z</time></trkpt>
<trkpt lat="48.436057" lon="2.699332"><ele></ele><time>2017-9-18T23:1:1Z</time></trkpt>
<trkpt lat="48.436026" lon="2.699468"><ele></ele><time>2017-9-18T23:1:4Z</time></trkpt>
<trkpt lat="48.435988" lon="2.699609"><ele></ele><time>2017-9-18T23:1:7Z</time></trkpt>
<trkpt lat="48.435978" lon="2.699761"><ele></ele><time>2017-9-18T23:1:10Z</time></trkpt>
<trkpt lat="48.435936" lon="2.699881"><ele></ele><time>2017-9-18T23:1:13Z</time></trkpt>
<trkpt lat="48.435932" lon="2.700029"><ele></ele><time>2017-9-18T23:1:16Z</time></trkpt>
<trkpt lat="48.435886" lon="2.700207"><ele></ele><time>2017-9-18T23:1:19Z</time></trkpt>
<trkpt lat="48.435866" lon="2.700347"><ele></ele><time>2017-9-18T23:1:22Z</time></trkpt>
<trkpt lat="48.435805" lon="2.700494"><ele></ele><time>2017-9-18T23:1:25Z</time></trkpt>
<trkpt lat="48.435764" lon="2.700634"><ele></ele><time>2017-9-18T23:1:28Z</time></trkpt>
<trkpt lat="48.435686" lon="2.700907"><ele></ele><time>2017-9-18T23:1:31Z</time></trkpt>
<trkpt lat="48.435633" lon="2.70111"><ele></ele><time>2017-9-18T23:1:34Z</time></trkpt>
<trkpt lat="48.435666" lon="2.701269"><ele></ele><time>2017-9-18T23:1:37Z</time></trkpt>
<trkpt lat="48.435662" lon="2.701441"><ele></ele><time>2017-9-18T23:1:40Z</time></trkpt>
<trkpt lat="48.435651" lon="2.701582"><ele></ele><time>2017-9-18T23:1:43Z</time></trkpt>
<trkpt lat="48.435614" lon="2.701714"><ele></ele><time>2017-9-18T23:1:46Z</time></trkpt>
<trkpt lat="48.435622" lon="2.701913"><ele></ele><time>2017-9-18T23:1:49Z</time></trkpt>
<trkpt lat="48.435629" lon="2.702085"><ele></ele><time>2017-9-18T23:1:52Z</time></trkpt>
<trkpt lat="48.435638" lon="2.702231"><ele></ele><time>2017-9-18T23:1:55Z</time></trkpt>
<trkpt lat="48.435654" lon="2.702383"><ele></ele><time>2017-9-18T23:1:58Z</time></trkpt>
<trkpt lat="48.435657" lon="2.702553"><ele></ele><time>2017-9-18T23:2:1Z</time></trkpt>
<trkpt lat="48.435639" lon="2.702687"><ele></ele><time>2017-9-18T23:2:4Z</time></trkpt>
<trkpt lat="48.435666" lon="2.702997"><ele></ele><time>2017-9-18T23:2:7Z</time></trkpt>
<trkpt lat="48.435649" lon="2.703139"><ele></ele><time>2017-9-18T23:2:10Z</time></trkpt>
<trkpt lat="48.435619" lon="2.70332"><ele></ele><time>2017-9-18T23:2:13Z</time></trkpt>
<trkpt lat="48.435632" lon="2.703486"><ele></ele><time>2017-9-18T23:2:16Z</time></trkpt>
<trkpt lat="48.435619" lon="2.703634"><ele></ele><time>2017-9-18T23:2:19Z</time></trkpt>
<trkpt lat="48.435628" lon="2.70377"><ele></ele><time>2017-9-18T23:2:22Z</time></trkpt>
<trkpt lat="48.43568" lon="2.703894"><ele></ele><time>2017-9-18T23:2:25Z</time></trkpt>
<trkpt lat="48.435703" lon="2.704052"><ele></ele><time>2017-9-18T23:2:28Z</time></trkpt>
<trkpt lat="48.435708" lon="2.704199"><ele></ele><time>2017-9-18T23:2:31Z</time></trkpt>
<trkpt lat="48.435642" lon="2.704372"><ele></ele><time>2017-9-18T23:2:34Z</time></trkpt>
<trkpt lat="48.435614" lon="2.704517"><ele></ele><time>2017-9-18T23:2:37Z</time></trkpt>
<trkpt lat="48.435599" lon="2.704659"><ele></ele><time>2017-9-18T23:2:40Z</time></trkpt>
<trkpt lat="48.435557" lon="2.704977"><ele></ele><time>2017-9-18T23:2:43Z</time></trkpt>
<trkpt lat="48.435552" lon="2.705126"><ele></ele><time>2017-9-18T23:2:46Z</time></trkpt>
<trkpt lat="48.435527" lon="2.705262"><ele></ele><time>2017-9-18T23:2:49Z</time></trkpt>
<trkpt lat="48.435514" lon="2.705422"><ele></ele><time>2017-9-18T23:2:52Z</time></trkpt>
<trkpt lat="48.435437" lon="2.705539"><ele></ele><time>2017-9-18T23:2:55Z</time></trkpt>
<trkpt lat="48.435513" lon="2.705641"><ele></ele><time>2017-9-18T23:2:58Z</time></trkpt>
<trkpt lat="48.435613" lon="2.705589"><ele></ele><time>2017-9-18T23:3:1Z</time></trkpt>
<trkpt lat="48.43572" lon="2.705478"><ele></ele><time>2017-9-18T23:3:4Z</time></trkpt>
<trkpt lat="48.435785" lon="2.705377"><ele></ele><time>2017-9-18T23:3:7Z</time></trkpt>
<trkpt lat="48.435907" lon="2.705162"><ele></ele><time>2017-9-18T23:3:10Z</time></trkpt>
<trkpt lat="48.435971" lon="2.705013"><ele></ele><time>2017-9-18T23:3:13Z</time></trkpt>
<trkpt lat="48.436004" lon="2.704843"><ele></ele><time>2017-9-18T23:3:16Z</time></trkpt>
<trkpt lat="48.43603" lon="2.704706"><ele></ele><time>2017-9-18T23:3:19Z</time></trkpt>
<trkpt lat="48.436101" lon="2.704609"><ele></ele><time>2017-9-18T23:3:22Z</time></trkpt>
<trkpt lat="48.436098" lon="2.704469"><ele></ele><time>2017-9-18T23:3:25Z</time></trkpt>
<trkpt lat="48.436144" lon="2.704331"><ele></ele><time>2017-9-18T23:3:28Z</time></trkpt>
<trkpt lat="48.436228" lon="2.704205"><ele></ele><time>2017-9-18T23:3:31Z</time></trkpt>
<trkpt lat="48.436303" lon="2.70412"><ele></ele><time>2017-9-18T23:3:34Z</time></trkpt>
<trkpt lat="48.43639" lon="2.704014"><ele></ele><time>2017-9-18T23:3:37Z</time></trkpt>
<trkpt lat="48.436478" lon="2.703919"><ele></ele><time>2017-9-18T23:3:40Z</time></trkpt>
<trkpt lat="48.436611" lon="2.703693"><ele></ele><time>2017-9-18T23:3:43Z</time></trkpt>
<trkpt lat="48.436664" lon="2.703573"><ele></ele><time>2017-9-18T23:3:46Z</time></trkpt>
<trkpt lat="48.43668" lon="2.703303"><ele></ele><time>2017-9-18T23:3:49Z</time></trkpt>
<trkpt lat="48.436692" lon="2.70316"><ele></ele><time>2017-9-18T23:3:52Z</time></trkpt>
<trkpt lat="48.436727" lon="2.703029"><ele></ele><time>2017-9-18T23:3:55Z</time></trkpt>
<trkpt lat="48.436754" lon="2.702891"><ele></ele><time>2017-9-18T23:3:58Z</time></trkpt>
<trkpt lat="48.436826" lon="2.702772"><ele></ele><time>2017-9-18T23:4:1Z</time></trkpt>
<trkpt lat="48.436931" lon="2.70274"><ele></ele><time>2017-9-18T23:4:4Z</time></trkpt>
<trkpt lat="48.437026" lon="2.702872"><ele></ele><time>2017-9-18T23:4:7Z</time></trkpt>
<trkpt lat="48.437088" lon="2.703036"><ele></ele><time>2017-9-18T23:4:10Z</time></trkpt>
<trkpt lat="48.43708" lon="2.703199"><ele></ele><time>2017-9-18T23:4:13Z</time></trkpt>
<trkpt lat="48.437048" lon="2.703339"><ele></ele><time>2017-9-18T23:4:16Z</time></trkpt>
<trkpt lat="48.437001" lon="2.703455"><ele></ele><time>2017-9-18T23:4:19Z</time></trkpt>
<trkpt lat="48.436937" lon="2.703659"><ele></ele><time>2017-9-18T23:4:22Z</time></trkpt>
<trkpt lat="48.436849" lon="2.703943"><ele></ele><time>2017-9-18T23:4:25Z</time></trkpt>
<trkpt lat="48.4369" lon="2.704084"><ele></ele><time>2017-9-18T23:4:28Z</time></trkpt>
<trkpt lat="48.436977" lon="2.704292"><ele></ele><time>2017-9-18T23:4:31Z</time></trkpt>
<trkpt lat="48.437066" lon="2.704411"><ele></ele><time>2017-9-18T23:4:34Z</time></trkpt>
<trkpt lat="48.437136" lon="2.704522"><ele></ele><time>2017-9-18T23:4:37Z</time></trkpt>
<trkpt lat="48.437206" lon="2.704659"><ele></ele><time>2017-9-18T23:4:40Z</time></trkpt>
<trkpt lat="48.437267" lon="2.704816"><ele></ele><time>2017-9-18T23:4:43Z</time></trkpt>
<trkpt lat="48.437314" lon="2.704946"><ele></ele><time>2017-9-18T23:4:46Z</time></trkpt>
<trkpt lat="48.437355" lon="2.705089"><ele></ele><time>2017-9-18T23:4:49Z</time></trkpt>
<trkpt lat="48.437396" lon="2.705251"><ele></ele><time>2017-9-18T23:4:52Z</time></trkpt>
<trkpt lat="48.437456" lon="2.705408"><ele></ele><time>2017-9-18T23:4:55Z</time></trkpt>
<trkpt lat="48.43753" lon="2.705559"><ele></ele><time>2017-9-18T23:4:58Z</time></trkpt>
<trkpt lat="48.437606" lon="2.705682"><ele></ele><time>2017-9-18T23:5:1Z</time></trkpt>
<trkpt lat="48.437686" lon="2.7058"><ele></ele><time>2017-9-18T23:5:4Z</time></trkpt>
<trkpt lat="48.437758" lon="2.705902"><ele></ele><time>2017-9-18T23:5:7Z</time></trkpt>
<trkpt lat="48.437659" lon="2.705932"><ele></ele><time>2017-9-18T23:5:10Z</time></trkpt>
<trkpt lat="48.43746" lon="2.705878"><ele></ele><time>2017-9-18T23:5:13Z</time></trkpt>
<trkpt lat="48.437332" lon="2.705873"><ele></ele><time>2017-9-18T23:5:16Z</time></trkpt>
<trkpt lat="48.437235" lon="2.705923"><ele></ele><time>2017-9-18T23:5:19Z</time></trkpt>
<trkpt lat="48.437167" lon="2.706051"><ele></ele><time>2017-9-18T23:5:22Z</time></trkpt>
<trkpt lat="48.4371" lon="2.706163"><ele></ele><time>2017-9-18T23:5:25Z</time></trkpt>
<trkpt lat="48.437068" lon="2.706321"><ele></ele><time>2017-9-18T23:5:28Z</time></trkpt>
<trkpt lat="48.436999" lon="2.706445"><ele></ele><time>2017-9-18T23:5:31Z</time></trkpt>
<trkpt lat="48.436974" lon="2.706628"><ele></ele><time>2017-9-18T23:5:34Z</time></trkpt>
<trkpt lat="48.436927" lon="2.706788"><ele></ele><time>2017-9-18T23:5:37Z</time></trkpt>
<trkpt lat="48.436922" lon="2.706946"><ele></ele><time>2017-9-18T23:5:40Z</time></trkpt>
<trkpt lat="48.436944" lon="2.707113"><ele></ele><time>2017-9-18T23:5:43Z</time></trkpt>
<trkpt lat="48.437006" lon="2.707272"><ele></ele><time>2017-9-18T23:5:46Z</time></trkpt>
<trkpt lat="48.437084" lon="2.707365"><ele></ele><time>2017-9-18T23:5:49Z</time></trkpt>
<trkpt lat="48.437193" lon="2.707469"><ele></ele><time>2017-9-18T23:5:52Z</time></trkpt>
<trkpt lat="48.437306" lon="2.70755"><ele></ele><time>2017-9-18T23:5:55Z</time></trkpt>
<trkpt lat="48.437445" lon="2.707614"><ele></ele><time>2017-9-18T23:5:58Z</time></trkpt>
<trkpt lat="48.437559" lon="2.707692"><ele></ele><time>2017-9-18T23:6:1Z</time></trkpt>
<trkpt lat="48.437673" lon="2.707789"><ele></ele><time>2017-9-18T23:6:4Z</time></trkpt>
<trkpt lat="48.437755" lon="2.708077"><ele></ele><time>2017-9-18T23:6:7Z</time></trkpt>
<trkpt lat="48.43772" lon="2.708234"><ele></ele><time>2017-9-18T23:6:10Z</time></trkpt>
<trkpt lat="48.437619" lon="2.708349"><ele></ele><time>2017-9-18T23:6:13Z</time></trkpt>
<trkpt lat="48.437499" lon="2.708289"><ele></ele><time>2017-9-18T23:6:16Z</time></trkpt>
<trkpt lat="48.437362" lon="2.708299"><ele></ele><time>2017-9-18T23:6:19Z</time></trkpt>
<trkpt lat="48.437264" lon="2.708291"><ele></ele><time>2017-9-18T23:6:22Z</time></trkpt>
<trkpt lat="48.437136" lon="2.708348"><ele></ele><time>2017-9-18T23:6:25Z</time></trkpt>
<trkpt lat="48.437011" lon="2.708359"><ele></ele><time>2017-9-18T23:6:28Z</time></trkpt>
<trkpt lat="48.43686" lon="2.708495"><ele></ele><time>2017-9-18T23:6:31Z</time></trkpt>
<trkpt lat="48.436729" lon="2.70872"><ele></ele><time>2017-9-18T23:6:34Z</time></trkpt>
<trkpt lat="48.436636" lon="2.708869"><ele></ele><time>2017-9-18T23:6:37Z</time></trkpt>
<trkpt lat="48.436575" lon="2.708994"><ele></ele><time>2017-9-18T23:6:40Z</time></trkpt>
<trkpt lat="48.436502" lon="2.709144"><ele></ele><time>2017-9-18T23:6:43Z</time></trkpt>
<trkpt lat="48.436438" lon="2.709274"><ele></ele><time>2017-9-18T23:6:46Z</time></trkpt>
<trkpt lat="48.436349" lon="2.709459"><ele></ele><time>2017-9-18T23:6:49Z</time></trkpt>
<trkpt lat="48.436259" lon="2.709614"><ele></ele><time>2017-9-18T23:6:52Z</time></trkpt>
<trkpt lat="48.436189" lon="2.709793"><ele></ele><time>2017-9-18T23:6:55Z</time></trkpt>
<trkpt lat="48.436105" lon="2.709949"><ele></ele><time>2017-9-18T23:6:58Z</time></trkpt>
<trkpt lat="48.43602" lon="2.710109"><ele></ele><time>2017-9-18T23:7:1Z</time></trkpt>
<trkpt lat="48.435911" lon="2.710285"><ele></ele><time>2017-9-18T23:7:4Z</time></trkpt>
<trkpt lat="48.435815" lon="2.710388"><ele></ele><time>2017-9-18T23:7:7Z</time></trkpt>
<trkpt lat="48.435545" lon="2.710648"><ele></ele><time>2017-9-18T23:7:10Z</time></trkpt>
<trkpt lat="48.435447" lon="2.710711"><ele></ele><time>2017-9-18T23:7:13Z</time></trkpt>
<trkpt lat="48.435274" lon="2.710768"><ele></ele><time>2017-9-18T23:7:16Z</time></trkpt>
<trkpt lat="48.435167" lon="2.710762"><ele></ele><time>2017-9-18T23:7:19Z</time></trkpt>
<trkpt lat="48.435078" lon="2.710688"><ele></ele><time>2017-9-18T23:7:22Z</time></trkpt>
<trkpt lat="48.434989" lon="2.710576"><ele></ele><time>2017-9-18T23:7:25Z</time></trkpt>
<trkpt lat="48.434922" lon="2.71048"><ele></ele><time>2017-9-18T23:7:28Z</time></trkpt>
<trkpt lat="48.43485" lon="2.710394"><ele></ele><time>2017-9-18T23:7:31Z</time></trkpt>
<trkpt lat="48.434811" lon="2.710256"><ele></ele><time>2017-9-18T23:7:34Z</time></trkpt>
<trkpt lat="48.434813" lon="2.71012"><ele></ele><time>2017-9-18T23:7:37Z</time></trkpt>
<trkpt lat="48.43476" lon="2.71"><ele></ele><time>2017-9-18T23:7:40Z</time></trkpt>
<trkpt lat="48.434741" lon="2.709865"><ele></ele><time>2017-9-18T23:7:43Z</time></trkpt>
<trkpt lat="48.434683" lon="2.709689"><ele></ele><time>2017-9-18T23:7:46Z</time></trkpt>
<trkpt lat="48.434635" lon="2.709535"><ele></ele><time>2017-9-18T23:7:49Z</time></trkpt>
<trkpt lat="48.434628" lon="2.709383"><ele></ele><time>2017-9-18T23:7:52Z</time></trkpt>
<trkpt lat="48.434559" lon="2.709184"><ele></ele><time>2017-9-18T23:7:55Z</time></trkpt>
<trkpt lat="48.434514" lon="2.708989"><ele></ele><time>2017-9-18T23:7:58Z</time></trkpt>
<trkpt lat="48.434429" lon="2.708721"><ele></ele><time>2017-9-18T23:8:1Z</time></trkpt>
<trkpt lat="48.43442" lon="2.708562"><ele></ele><time>2017-9-18T23:8:4Z</time></trkpt>
<trkpt lat="48.434367" lon="2.708435"><ele></ele><time>2017-9-18T23:8:7Z</time></trkpt>
<trkpt lat="48.4343" lon="2.708335"><ele></ele><time>2017-9-18T23:8:10Z</time></trkpt>
<trkpt lat="48.434239" lon="2.708217"><ele></ele><time>2017-9-18T23:8:13Z</time></trkpt>
<trkpt lat="48.434165" lon="2.708136"><ele></ele><time>2017-9-18T23:8:16Z</time></trkpt>
<trkpt lat="48.434095" lon="2.708023"><ele></ele><time>2017-9-18T23:8:19Z</time></trkpt>
<trkpt lat="48.433993" lon="2.708045"><ele></ele><time>2017-9-18T23:8:22Z</time></trkpt>
<trkpt lat="48.433859" lon="2.708272"><ele></ele><time>2017-9-18T23:8:25Z</time></trkpt>
<trkpt lat="48.433841" lon="2.708405"><ele></ele><time>2017-9-18T23:8:28Z</time></trkpt>
<trkpt lat="48.433875" lon="2.708585"><ele></ele><time>2017-9-18T23:8:31Z</time></trkpt>
<trkpt lat="48.433881" lon="2.70874"><ele></ele><time>2017-9-18T23:8:34Z</time></trkpt>
<trkpt lat="48.433915" lon="2.708942"><ele></ele><time>2017-9-18T23:8:37Z</time></trkpt>
<trkpt lat="48.433951" lon="2.709103"><ele></ele><time>2017-9-18T23:8:40Z</time></trkpt>
<trkpt lat="48.433949" lon="2.709251"><ele></ele><time>2017-9-18T23:8:43Z</time></trkpt>
<trkpt lat="48.433959" lon="2.709442"><ele></ele><time>2017-9-18T23:8:46Z</time></trkpt>
<trkpt lat="48.433935" lon="2.709575"><ele></ele><time>2017-9-18T23:8:49Z</time></trkpt>
<trkpt lat="48.433868" lon="2.709685"><ele></ele><time>2017-9-18T23:8:52Z</time></trkpt>
<trkpt lat="48.433839" lon="2.709837"><ele></ele><time>2017-9-18T23:8:55Z</time></trkpt>
<trkpt lat="48.433803" lon="2.709982"><ele></ele><time>2017-9-18T23:8:58Z</time></trkpt>
<trkpt lat="48.433714" lon="2.710236"><ele></ele><time>2017-9-18T23:9:1Z</time></trkpt>
<trkpt lat="48.433683" lon="2.710373"><ele></ele><time>2017-9-18T23:9:4Z</time></trkpt>
<trkpt lat="48.433641" lon="2.710517"><ele></ele><time>2017-9-18T23:9:7Z</time></trkpt>
<trkpt lat="48.433637" lon="2.710713"><ele></ele><time>2017-9-18T23:9:10Z</time></trkpt>
<trkpt lat="48.433643" lon="2.710877"><ele></ele><time>2017-9-18T23:9:13Z</time></trkpt>
<trkpt lat="48.43363" lon="2.711052"><ele></ele><time>2017-9-18T23:9:16Z</time></trkpt>
<trkpt lat="48.433572" lon="2.711203"><ele></ele><time>2017-9-18T23:9:19Z</time></trkpt>
<trkpt lat="48.4335" lon="2.711328"><ele></ele><time>2017-9-18T23:9:22Z</time></trkpt>
<trkpt lat="48.433411" lon="2.711421"><ele></ele><time>2017-9-18T23:9:25Z</time></trkpt>
<trkpt lat="48.433272" lon="2.711456"><ele></ele><time>2017-9-18T23:9:28Z</time></trkpt>
<trkpt lat="48.433174" lon="2.711389"><ele></ele><time>2017-9-18T23:9:31Z</time></trkpt>
<trkpt lat="48.43308" lon="2.711316"><ele></ele><time>2017-9-18T23:9:34Z</time></trkpt>
<trkpt lat="48.432985" lon="2.711175"><ele></ele><time>2017-9-18T23:9:37Z</time></trkpt>
<trkpt lat="48.432881" lon="2.711028"><ele></ele><time>2017-9-18T23:9:40Z</time></trkpt>
<trkpt lat="48.432808" lon="2.710899"><ele></ele><time>2017-9-18T23:9:43Z</time></trkpt>
<trkpt lat="48.432702" lon="2.710752"><ele></ele><time>2017-9-18T23:9:46Z</time></trkpt>
<trkpt lat="48.43262" lon="2.710654"><ele></ele><time>2017-9-18T23:9:49Z</time></trkpt>
<trkpt lat="48.432458" lon="2.710417"><ele></ele><time>2017-9-18T23:9:52Z</time></trkpt>
<trkpt lat="48.432398" lon="2.710316"><ele></ele><time>2017-9-18T23:9:55Z</time></trkpt>
<trkpt lat="48.432383" lon="2.710179"><ele></ele><time>2017-9-18T23:9:58Z</time></trkpt>
<trkpt lat="48.43238" lon="2.710035"><ele></ele><time>2017-9-18T23:10:1Z</time></trkpt>
<trkpt lat="48.432371" lon="2.709865"><ele></ele><time>2017-9-18T23:10:4Z</time></trkpt>
<trkpt lat="48.432376" lon="2.709711"><ele></ele><time>2017-9-18T23:10:7Z</time></trkpt>
<trkpt lat="48.432373" lon="2.709544"><ele></ele><time>2017-9-18T23:10:10Z</time></trkpt>
<trkpt lat="48.432346" lon="2.709396"><ele></ele><time>2017-9-18T23:10:13Z</time></trkpt>
<trkpt lat="48.43232" lon="2.709247"><ele></ele><time>2017-9-18T23:10:16Z</time></trkpt>
<trkpt lat="48.432249" lon="2.709139"><ele></ele><time>2017-9-18T23:10:19Z</time></trkpt>
<trkpt lat="48.432233" lon="2.708994"><ele></ele><time>2017-9-18T23:10:22Z</time></trkpt>
<trkpt lat="48.432183" lon="2.708848"><ele></ele><time>2017-9-18T23:10:25Z</time></trkpt>
<trkpt lat="48.43215" lon="2.708693"><ele></ele><time>2017-9-18T23:10:28Z</time></trkpt>
<trkpt lat="48.432089" lon="2.708574"><ele></ele><time>2017-9-18T23:10:31Z</time></trkpt>
<trkpt lat="48.432028" lon="2.708469"><ele></ele><time>2017-9-18T23:10:34Z</time></trkpt>
<trkpt lat="48.431849" lon="2.708285"><ele></ele><time>2017-9-18T23:10:37Z</time></trkpt>
<trkpt lat="48.431755" lon="2.708202"><ele></ele><time>2017-9-18T23:10:40Z</time></trkpt>
<trkpt lat="48.431684" lon="2.708108"><ele></ele><time>2017-9-18T23:10:43Z</time></trkpt>
<trkpt lat="48.4316" lon="2.708056"><ele></ele><time>2017-9-18T23:10:46Z</time></trkpt>
<trkpt lat="48.431516" lon="2.707945"><ele></ele><time>2017-9-18T23:10:49Z</time></trkpt>
<trkpt lat="48.431421" lon="2.707926"><ele></ele><time>2017-9-18T23:10:52Z</time></trkpt>
<trkpt lat="48.431328" lon="2.707889"><ele></ele><time>2017-9-18T23:10:55Z</time></trkpt>
<trkpt lat="48.43122" lon="2.70782"><ele></ele><time>2017-9-18T23:10:58Z</time></trkpt>
<trkpt lat="48.43103" lon="2.707669"><ele></ele><time>2017-9-18T23:11:1Z</time></trkpt>
<trkpt lat="48.430924" lon="2.707533"><ele></ele><time>2017-9-18T23:11:4Z</time></trkpt>
<trkpt lat="48.4308" lon="2.707492"><ele></ele><time>2017-9-18T23:11:7Z</time></trkpt>
<trkpt lat="48.430653" lon="2.707441"><ele></ele><time>2017-9-18T23:11:10Z</time></trkpt>
<trkpt lat="48.430529" lon="2.707437"><ele></ele><time>2017-9-18T23:11:13Z</time></trkpt>
<trkpt lat="48.430443" lon="2.707526"><ele></ele><time>2017-9-18T23:11:16Z</time></trkpt>
<trkpt lat="48.430364" lon="2.707611"><ele></ele><time>2017-9-18T23:11:19Z</time></trkpt>
<trkpt lat="48.430235" lon="2.707765"><ele></ele><time>2017-9-18T23:11:22Z</time></trkpt>
<trkpt lat="48.43018" lon="2.707912"><ele></ele><time>2017-9-18T23:11:25Z</time></trkpt>
<trkpt lat="48.430103" lon="2.708011"><ele></ele><time>2017-9-18T23:11:28Z</time></trkpt>
<trkpt lat="48.430005" lon="2.708162"><ele></ele><time>2017-9-18T23:11:31Z</time></trkpt>
<trkpt lat="48.429916" lon="2.708239"><ele></ele><time>2017-9-18T23:11:34Z</time></trkpt>
<trkpt lat="48.429825" lon="2.708373"><ele></ele><time>2017-9-18T23:11:37Z</time></trkpt>
<trkpt lat="48.429684" lon="2.708409"><ele></ele><time>2017-9-18T23:11:40Z</time></trkpt>
<trkpt lat="48.429593" lon="2.708431"><ele></ele><time>2017-9-18T23:11:43Z</time></trkpt>
<trkpt lat="48.42938" lon="2.708409"><ele></ele><time>2017-9-18T23:11:46Z</time></trkpt>
<trkpt lat="48.42929" lon="2.708437"><ele></ele><time>2017-9-18T23:11:49Z</time></trkpt>
<trkpt lat="48.429198" lon="2.708428"><ele></ele><time>2017-9-18T23:11:52Z</time></trkpt>
<trkpt lat="48.429088" lon="2.708411"><ele></ele><time>2017-9-18T23:11:55Z</time></trkpt>
<trkpt lat="48.428992" lon="2.708389"><ele></ele><time>2017-9-18T23:11:58Z</time></trkpt>
<trkpt lat="48.428906" lon="2.708446"><ele></ele><time>2017-9-18T23:12:1Z</time></trkpt>
<trkpt lat="48.428824" lon="2.708542"><ele></ele><time>2017-9-18T23:12:4Z</time></trkpt>
<trkpt lat="48.428965" lon="2.70844"><ele></ele><time>2017-9-18T23:12:7Z</time></trkpt>
<trkpt lat="48.428974" lon="2.708164"><ele></ele><time>2017-9-18T23:12:10Z</time></trkpt>
<trkpt lat="48.428872" lon="2.708168"><ele></ele><time>2017-9-18T23:12:13Z</time></trkpt>
<trkpt lat="48.428923" lon="2.70788"><ele></ele><time>2017-9-18T23:12:16Z</time></trkpt>
<trkpt lat="48.428917" lon="2.707646"><ele></ele><time>2017-9-18T23:12:19Z</time></trkpt>
<trkpt lat="48.428929" lon="2.707471"><ele></ele><time>2017-9-18T23:12:22Z</time></trkpt>
<trkpt lat="48.42896" lon="2.707338"><ele></ele><time>2017-9-18T23:12:25Z</time></trkpt>
<trkpt lat="48.428936" lon="2.707197"><ele></ele><time>2017-9-18T23:12:28Z</time></trkpt>
<trkpt lat="48.428932" lon="2.70705"><ele></ele><time>2017-9-18T23:12:31Z</time></trkpt>
<trkpt lat="48.428961" lon="2.706841"><ele></ele><time>2017-9-18T23:12:34Z</time></trkpt>
<trkpt lat="48.428956" lon="2.706654"><ele></ele><time>2017-9-18T23:12:37Z</time></trkpt>
<trkpt lat="48.428956" lon="2.706457"><ele></ele><time>2017-9-18T23:12:40Z</time></trkpt>
<trkpt lat="48.428966" lon="2.706294"><ele></ele><time>2017-9-18T23:12:43Z</time></trkpt>
<trkpt lat="48.42899" lon="2.706163"><ele></ele><time>2017-9-18T23:12:46Z</time></trkpt>
<trkpt lat="48.428986" lon="2.705998"><ele></ele><time>2017-9-18T23:12:49Z</time></trkpt>
<trkpt lat="48.429013" lon="2.705816"><ele></ele><time>2017-9-18T23:12:52Z</time></trkpt>
<trkpt lat="48.42898" lon="2.705617"><ele></ele><time>2017-9-18T23:12:55Z</time></trkpt>
<trkpt lat="48.428969" lon="2.705464"><ele></ele><time>2017-9-18T23:12:58Z</time></trkpt>
<trkpt lat="48.428998" lon="2.705312"><ele></ele><time>2017-9-18T23:13:1Z</time></trkpt>
<trkpt lat="48.428996" lon="2.705156"><ele></ele><time>2017-9-18T23:13:4Z</time></trkpt>
<trkpt lat="48.428994" lon="2.704984"><ele></ele><time>2017-9-18T23:13:7Z</time></trkpt>
<trkpt lat="48.429019" lon="2.704823"><ele></ele><time>2017-9-18T23:13:10Z</time></trkpt>
<trkpt lat="48.429042" lon="2.704486"><ele></ele><time>2017-9-18T23:13:13Z</time></trkpt>
<trkpt lat="48.429047" lon="2.704319"><ele></ele><time>2017-9-18T23:13:16Z</time></trkpt>
<trkpt lat="48.429042" lon="2.704117"><ele></ele><time>2017-9-18T23:13:19Z</time></trkpt>
<trkpt lat="48.429061" lon="2.703968"><ele></ele><time>2017-9-18T23:13:22Z</time></trkpt>
<trkpt lat="48.429055" lon="2.703801"><ele></ele><time>2017-9-18T23:13:25Z</time></trkpt>
<trkpt lat="48.429078" lon="2.703621"><ele></ele><time>2017-9-18T23:13:28Z</time></trkpt>
<trkpt lat="48.429113" lon="2.703412"><ele></ele><time>2017-9-18T23:13:31Z</time></trkpt>
<trkpt lat="48.429166" lon="2.703234"><ele></ele><time>2017-9-18T23:13:34Z</time></trkpt>
<trkpt lat="48.429149" lon="2.703094"><ele></ele><time>2017-9-18T23:13:37Z</time></trkpt>
<trkpt lat="48.429175" lon="2.702961"><ele></ele><time>2017-9-18T23:13:40Z</time></trkpt>
<trkpt lat="48.429213" lon="2.702773"><ele></ele><time>2017-9-18T23:13:43Z</time></trkpt>
<trkpt lat="48.429275" lon="2.702587"><ele></ele><time>2017-9-18T23:13:46Z</time></trkpt>
<trkpt lat="48.42931" lon="2.702401"><ele></ele><time>2017-9-18T23:13:49Z</time></trkpt>
<trkpt lat="48.429234" lon="2.702526"><ele></ele><time>2017-9-18T23:13:52Z</time></trkpt>
<trkpt lat="48.42906" lon="2.702764"><ele></ele><time>2017-9-18T23:13:55Z</time></trkpt>
<trkpt lat="48.428961" lon="2.702828"><ele></ele><time>2017-9-18T23:13:58Z</time></trkpt>
<trkpt lat="48.428875" lon="2.702899"><ele></ele><time>2017-9-18T23:14:1Z</time></trkpt>
<trkpt lat="48.428781" lon="2.702952"><ele></ele><time>2017-9-18T23:14:4Z</time></trkpt>
<trkpt lat="48.428694" lon="2.703011"><ele></ele><time>2017-9-18T23:14:7Z</time></trkpt>
<trkpt lat="48.428609" lon="2.70316"><ele></ele><time>2017-9-18T23:14:10Z</time></trkpt>
<trkpt lat="48.428461" lon="2.703218"><ele></ele><time>2017-9-18T23:14:13Z</time></trkpt>
<trkpt lat="48.428374" lon="2.703262"><ele></ele><time>2017-9-18T23:14:16Z</time></trkpt>
<trkpt lat="48.428297" lon="2.703339"><ele></ele><time>2017-9-18T23:14:19Z</time></trkpt>
<trkpt lat="48.428194" lon="2.703324"><ele></ele><time>2017-9-18T23:14:22Z</time></trkpt>
<trkpt lat="48.428082" lon="2.703208"><ele></ele><time>2017-9-18T23:14:25Z</time></trkpt>
<trkpt lat="48.427995" lon="2.703169"><ele></ele><time>2017-9-18T23:14:28Z</time></trkpt>
<trkpt lat="48.427889" lon="2.703174"><ele></ele><time>2017-9-18T23:14:31Z</time></trkpt>
<trkpt lat="48.427781" lon="2.703156"><ele></ele><time>2017-9-18T23:14:34Z</time></trkpt>
<trkpt lat="48.427658" lon="2.703158"><ele></ele><time>2017-9-18T23:14:37Z</time></trkpt>
<trkpt lat="48.427573" lon="2.703103"><ele></ele><time>2017-9-18T23:14:40Z</time></trkpt>
<trkpt lat="48.427461" lon="2.703033"><ele></ele><time>2017-9-18T23:14:43Z</time></trkpt>
<trkpt lat="48.427286" lon="2.703017"><ele></ele><time>2017-9-18T23:14:46Z</time></trkpt>
<trkpt lat="48.427053" lon="2.702958"><ele></ele><time>2017-9-18T23:14:49Z</time></trkpt>
<trkpt lat="48.426928" lon="2.702922"><ele></ele><time>2017-9-18T23:14:52Z</time></trkpt>
<trkpt lat="48.426813" lon="2.702913"><ele></ele><time>2017-9-18T23:14:55Z</time></trkpt>
<trkpt lat="48.426714" lon="2.702831"><ele></ele><time>2017-9-18T23:14:58Z</time></trkpt>
<trkpt lat="48.426619" lon="2.702793"><ele></ele><time>2017-9-18T23:15:1Z</time></trkpt>
<trkpt lat="48.426506" lon="2.70277"><ele></ele><time>2017-9-18T23:15:4Z</time></trkpt>
<trkpt lat="48.426381" lon="2.702738"><ele></ele><time>2017-9-18T23:15:7Z</time></trkpt>
<trkpt lat="48.426271" lon="2.702677"><ele></ele><time>2017-9-18T23:15:10Z</time></trkpt>
<trkpt lat="48.426111" lon="2.7026"><ele></ele><time>2017-9-18T23:15:13Z</time></trkpt>
<trkpt lat="48.425982" lon="2.7026"><ele></ele><time>2017-9-18T23:15:16Z</time></trkpt>
<trkpt lat="48.425882" lon="2.702582"><ele></ele><time>2017-9-18T23:15:19Z</time></trkpt>
<trkpt lat="48.425777" lon="2.702481"><ele></ele><time>2017-9-18T23:15:22Z</time></trkpt>
<trkpt lat="48.425665" lon="2.702462"><ele></ele><time>2017-9-18T23:15:25Z</time></trkpt>
<trkpt lat="48.42556" lon="2.702444"><ele></ele><time>2017-9-18T23:15:28Z</time></trkpt>
<trkpt lat="48.425418" lon="2.702393"><ele></ele><time>2017-9-18T23:15:31Z</time></trkpt>
<trkpt lat="48.425336" lon="2.702321"><ele></ele><time>2017-9-18T23:15:34Z</time></trkpt>
<trkpt lat="48.425252" lon="2.702266"><ele></ele><time>2017-9-18T23:15:37Z</time></trkpt>
<trkpt lat="48.425144" lon="2.702226"><ele></ele><time>2017-9-18T23:15:40Z</time></trkpt>
<trkpt lat="48.42507" lon="2.702142"><ele></ele><time>2017-9-18T23:15:43Z</time></trkpt>
<trkpt lat="48.424957" lon="2.702091"><ele></ele><time>2017-9-18T23:15:46Z</time></trkpt>
<trkpt lat="48.424815" lon="2.701855"><ele></ele><time>2017-9-18T23:15:49Z</time></trkpt>
<trkpt lat="48.424718" lon="2.701741"><ele></ele><time>2017-9-18T23:15:52Z</time></trkpt>
<trkpt lat="48.424603" lon="2.701611"><ele></ele><time>2017-9-18T23:15:55Z</time></trkpt>
<trkpt lat="48.424528" lon="2.701398"><ele></ele><time>2017-9-18T23:15:58Z</time></trkpt>
<trkpt lat="48.424429" lon="2.701237"><ele></ele><time>2017-9-18T23:16:1Z</time></trkpt>
<trkpt lat="48.424342" lon="2.701113"><ele></ele><time>2017-9-18T23:16:4Z</time></trkpt>
<trkpt lat="48.424249" lon="2.701031"><ele></ele><time>2017-9-18T23:16:7Z</time></trkpt>
<trkpt lat="48.424171" lon="2.700874"><ele></ele><time>2017-9-18T23:16:10Z</time></trkpt>
<trkpt lat="48.424139" lon="2.700701"><ele></ele><time>2017-9-18T23:16:13Z</time></trkpt>
<trkpt lat="48.424103" lon="2.700521"><ele></ele><time>2017-9-18T23:16:16Z</time></trkpt>
<trkpt lat="48.424047" lon="2.700378"><ele></ele><time>2017-9-18T23:16:19Z</time></trkpt>
<trkpt lat="48.423966" lon="2.700231"><ele></ele><time>2017-9-18T23:16:22Z</time></trkpt>
<trkpt lat="48.42388" lon="2.700085"><ele></ele><time>2017-9-18T23:16:25Z</time></trkpt>
<trkpt lat="48.423819" lon="2.699942"><ele></ele><time>2017-9-18T23:16:28Z</time></trkpt>
<trkpt lat="48.423741" lon="2.69983"><ele></ele><time>2017-9-18T23:16:31Z</time></trkpt>
<trkpt lat="48.42368" lon="2.699647"><ele></ele><time>2017-9-18T23:16:34Z</time></trkpt>
<trkpt lat="48.4236" lon="2.699522"><ele></ele><time>2017-9-18T23:16:37Z</time></trkpt>
<trkpt lat="48.423537" lon="2.699415"><ele></ele><time>2017-9-18T23:16:40Z</time></trkpt>
<trkpt lat="48.423474" lon="2.699318"><ele></ele><time>2017-9-18T23:16:43Z</time></trkpt>
<trkpt lat="48.423285" lon="2.698987"><ele></ele><time>2017-9-18T23:16:46Z</time></trkpt>
<trkpt lat="48.423194" lon="2.698889"><ele></ele><time>2017-9-18T23:16:49Z</time></trkpt>
<trkpt lat="48.423122" lon="2.698789"><ele></ele><time>2017-9-18T23:16:52Z</time></trkpt>
<trkpt lat="48.423067" lon="2.698662"><ele></ele><time>2017-9-18T23:16:55Z</time></trkpt>
<trkpt lat="48.422958" lon="2.69859"><ele></ele><time>2017-9-18T23:16:58Z</time></trkpt>
<trkpt lat="48.422921" lon="2.698439"><ele></ele><time>2017-9-18T23:17:1Z</time></trkpt>
<trkpt lat="48.422864" lon="2.698323"><ele></ele><time>2017-9-18T23:17:4Z</time></trkpt>
<trkpt lat="48.422773" lon="2.698344"><ele></ele><time>2017-9-18T23:17:7Z</time></trkpt>
<trkpt lat="48.422718" lon="2.698223"><ele></ele><time>2017-9-18T23:17:10Z</time></trkpt>
<trkpt lat="48.422678" lon="2.697971"><ele></ele><time>2017-9-18T23:17:13Z</time></trkpt>
<trkpt lat="48.422582" lon="2.697935"><ele></ele><time>2017-9-18T23:17:16Z</time></trkpt>
<trkpt lat="48.422519" lon="2.698048"><ele></ele><time>2017-9-18T23:17:19Z</time></trkpt>
<trkpt lat="48.422295" lon="2.698017"><ele></ele><time>2017-9-18T23:17:22Z</time></trkpt>
<trkpt lat="48.422173" lon="2.698104"><ele></ele><time>2017-9-18T23:17:25Z</time></trkpt>
<trkpt lat="48.422057" lon="2.698155"><ele></ele><time>2017-9-18T23:17:28Z</time></trkpt>
<trkpt lat="48.421965" lon="2.698207"><ele></ele><time>2017-9-18T23:17:31Z</time></trkpt>
<trkpt lat="48.421823" lon="2.698182"><ele></ele><time>2017-9-18T23:17:34Z</time></trkpt>
<trkpt lat="48.42173" lon="2.698151"><ele></ele><time>2017-9-18T23:17:37Z</time></trkpt>
<trkpt lat="48.421593" lon="2.698135"><ele></ele><time>2017-9-18T23:17:40Z</time></trkpt>
<trkpt lat="48.421536" lon="2.698"><ele></ele><time>2017-9-18T23:17:43Z</time></trkpt>
<trkpt lat="48.421434" lon="2.698082"><ele></ele><time>2017-9-18T23:17:46Z</time></trkpt>
<trkpt lat="48.421363" lon="2.698172"><ele></ele><time>2017-9-18T23:17:49Z</time></trkpt>
<trkpt lat="48.421109" lon="2.698308"><ele></ele><time>2017-9-18T23:17:52Z</time></trkpt>
<trkpt lat="48.42096" lon="2.698394"><ele></ele><time>2017-9-18T23:17:55Z</time></trkpt>
<trkpt lat="48.420885" lon="2.698484"><ele></ele><time>2017-9-18T23:17:58Z</time></trkpt>
<trkpt lat="48.420878" lon="2.698625"><ele></ele><time>2017-9-18T23:18:1Z</time></trkpt>
<trkpt lat="48.42078" lon="2.698592"><ele></ele><time>2017-9-18T23:18:4Z</time></trkpt>
<trkpt lat="48.420716" lon="2.698454"><ele></ele><time>2017-9-18T23:18:7Z</time></trkpt>
<trkpt lat="48.420665" lon="2.69833"><ele></ele><time>2017-9-18T23:18:10Z</time></trkpt>
<trkpt lat="48.420583" lon="2.698193"><ele></ele><time>2017-9-18T23:18:13Z</time></trkpt>
<trkpt lat="48.420489" lon="2.698081"><ele></ele><time>2017-9-18T23:18:16Z</time></trkpt>
<trkpt lat="48.420403" lon="2.697934"><ele></ele><time>2017-9-18T23:18:19Z</time></trkpt>
<trkpt lat="48.420315" lon="2.697818"><ele></ele><time>2017-9-18T23:18:22Z</time></trkpt>
<trkpt lat="48.420227" lon="2.697746"><ele></ele><time>2017-9-18T23:18:25Z</time></trkpt>
<trkpt lat="48.420129" lon="2.697566"><ele></ele><time>2017-9-18T23:18:28Z</time></trkpt>
<trkpt lat="48.420035" lon="2.697424"><ele></ele><time>2017-9-18T23:18:31Z</time></trkpt>
<trkpt lat="48.419941" lon="2.697313"><ele></ele><time>2017-9-18T23:18:34Z</time></trkpt>
<trkpt lat="48.419809" lon="2.69713"><ele></ele><time>2017-9-18T23:18:37Z</time></trkpt>
<trkpt lat="48.419603" lon="2.696845"><ele></ele><time>2017-9-18T23:18:40Z</time></trkpt>
<trkpt lat="48.419488" lon="2.696687"><ele></ele><time>2017-9-18T23:18:43Z</time></trkpt>
<trkpt lat="48.419423" lon="2.696577"><ele></ele><time>2017-9-18T23:18:46Z</time></trkpt>
<trkpt lat="48.419339" lon="2.696481"><ele></ele><time>2017-9-18T23:18:49Z</time></trkpt>
<trkpt lat="48.419275" lon="2.696353"><ele></ele><time>2017-9-18T23:18:52Z</time></trkpt>
<trkpt lat="48.419148" lon="2.696255"><ele></ele><time>2017-9-18T23:18:55Z</time></trkpt>
<trkpt lat="48.41908" lon="2.696145"><ele></ele><time>2017-9-18T23:18:58Z</time></trkpt>
<trkpt lat="48.419006" lon="2.696047"><ele></ele><time>2017-9-18T23:19:1Z</time></trkpt>
<trkpt lat="48.418891" lon="2.695905"><ele></ele><time>2017-9-18T23:19:4Z</time></trkpt>
<trkpt lat="48.418809" lon="2.695817"><ele></ele><time>2017-9-18T23:19:7Z</time></trkpt>
<trkpt lat="48.418697" lon="2.695667"><ele></ele><time>2017-9-18T23:19:10Z</time></trkpt>
<trkpt lat="48.418619" lon="2.695488"><ele></ele><time>2017-9-18T23:19:13Z</time></trkpt>
<trkpt lat="48.418558" lon="2.695336"><ele></ele><time>2017-9-18T23:19:16Z</time></trkpt>
<trkpt lat="48.41846" lon="2.695163"><ele></ele><time>2017-9-18T23:19:19Z</time></trkpt>
<trkpt lat="48.418359" lon="2.695058"><ele></ele><time>2017-9-18T23:19:22Z</time></trkpt>
<trkpt lat="48.418234" lon="2.69497"><ele></ele><time>2017-9-18T23:19:25Z</time></trkpt>
<trkpt lat="48.418153" lon="2.694883"><ele></ele><time>2017-9-18T23:19:28Z</time></trkpt>
<trkpt lat="48.41803" lon="2.694825"><ele></ele><time>2017-9-18T23:19:31Z</time></trkpt>
<trkpt lat="48.417859" lon="2.694518"><ele></ele><time>2017-9-18T23:19:34Z</time></trkpt>
<trkpt lat="48.417803" lon="2.694375"><ele></ele><time>2017-9-18T23:19:37Z</time></trkpt>
<trkpt lat="48.417743" lon="2.69427"><ele></ele><time>2017-9-18T23:19:40Z</time></trkpt>
<trkpt lat="48.417707" lon="2.694145"><ele></ele><time>2017-9-18T23:19:43Z</time></trkpt>
<trkpt lat="48.417648" lon="2.69401"><ele></ele><time>2017-9-18T23:19:46Z</time></trkpt>
<trkpt lat="48.417567" lon="2.693898"><ele></ele><time>2017-9-18T23:19:49Z</time></trkpt>
<trkpt lat="48.417499" lon="2.693757"><ele></ele><time>2017-9-18T23:19:52Z</time></trkpt>
<trkpt lat="48.417402" lon="2.69363"><ele></ele><time>2017-9-18T23:19:55Z</time></trkpt>
<trkpt lat="48.417331" lon="2.693473"><ele></ele><time>2017-9-18T23:19:58Z</time></trkpt>
<trkpt lat="48.41728" lon="2.693341"><ele></ele><time>2017-9-18T23:20:1Z</time></trkpt>
<trkpt lat="48.4172" lon="2.693233"><ele></ele><time>2017-9-18T23:20:4Z</time></trkpt>
<trkpt lat="48.417139" lon="2.693129"><ele></ele><time>2017-9-18T23:20:7Z</time></trkpt>
<trkpt lat="48.417054" lon="2.693046"><ele></ele><time>2017-9-18T23:20:10Z</time></trkpt>
<trkpt lat="48.417007" lon="2.692856"><ele></ele><time>2017-9-18T23:20:13Z</time></trkpt>
<trkpt lat="48.416998" lon="2.692714"><ele></ele><time>2017-9-18T23:20:16Z</time></trkpt>
<trkpt lat="48.416839" lon="2.692573"><ele></ele><time>2017-9-18T23:20:19Z</time></trkpt>
<trkpt lat="48.416749" lon="2.692424"><ele></ele><time>2017-9-18T23:20:22Z</time></trkpt>
<trkpt lat="48.416686" lon="2.692299"><ele></ele><time>2017-9-18T23:20:25Z</time></trkpt>
<trkpt lat="48.416638" lon="2.692182"><ele></ele><time>2017-9-18T23:20:28Z</time></trkpt>
<trkpt lat="48.416607" lon="2.692043"><ele></ele><time>2017-9-18T23:20:31Z</time></trkpt>
<trkpt lat="48.416519" lon="2.691936"><ele></ele><time>2017-9-18T23:20:34Z</time></trkpt>
<trkpt lat="48.416454" lon="2.691816"><ele></ele><time>2017-9-18T23:20:37Z</time></trkpt>
<trkpt lat="48.416396" lon="2.691694"><ele></ele><time>2017-9-18T23:20:40Z</time></trkpt>
<trkpt lat="48.416339" lon="2.691551"><ele></ele><time>2017-9-18T23:20:43Z</time></trkpt>
<trkpt lat="48.416294" lon="2.691425"><ele></ele><time>2017-9-18T23:20:46Z</time></trkpt>
<trkpt lat="48.416211" lon="2.691277"><ele></ele><time>2017-9-18T23:20:49Z</time></trkpt>
<trkpt lat="48.416049" lon="2.691028"><ele></ele><time>2017-9-18T23:20:52Z</time></trkpt>
<trkpt lat="48.415987" lon="2.6909"><ele></ele><time>2017-9-18T23:20:55Z</time></trkpt>
<trkpt lat="48.415906" lon="2.69084"><ele></ele><time>2017-9-18T23:20:58Z</time></trkpt>
<trkpt lat="48.415875" lon="2.690707"><ele></ele><time>2017-9-18T23:21:1Z</time></trkpt>
<trkpt lat="48.415818" lon="2.690562"><ele></ele><time>2017-9-18T23:21:4Z</time></trkpt>
<trkpt lat="48.415739" lon="2.690475"><ele></ele><time>2017-9-18T23:21:7Z</time></trkpt>
<trkpt lat="48.415681" lon="2.690315"><ele></ele><time>2017-9-18T23:21:10Z</time></trkpt>
<trkpt lat="48.415643" lon="2.690188"><ele></ele><time>2017-9-18T23:21:13Z</time></trkpt>
<trkpt lat="48.415574" lon="2.689903"><ele></ele><time>2017-9-18T23:21:16Z</time></trkpt>
<trkpt lat="48.415523" lon="2.689771"><ele></ele><time>2017-9-18T23:21:19Z</time></trkpt>
<trkpt lat="48.415479" lon="2.689612"><ele></ele><time>2017-9-18T23:21:22Z</time></trkpt>
<trkpt lat="48.415414" lon="2.689472"><ele></ele><time>2017-9-18T23:21:25Z</time></trkpt>
<trkpt lat="48.41541" lon="2.689317"><ele></ele><time>2017-9-18T23:21:28Z</time></trkpt>
<trkpt lat="48.415472" lon="2.689218"><ele></ele><time>2017-9-18T23:21:31Z</time></trkpt>
<trkpt lat="48.415446" lon="2.689027"><ele></ele><time>2017-9-18T23:21:34Z</time></trkpt>
<trkpt lat="48.415424" lon="2.68889"><ele></ele><time>2017-9-18T23:21:37Z</time></trkpt>
<trkpt lat="48.41538" lon="2.688588"><ele></ele><time>2017-9-18T23:21:40Z</time></trkpt>
<trkpt lat="48.415347" lon="2.68844"><ele></ele><time>2017-9-18T23:21:43Z</time></trkpt>
<trkpt lat="48.415295" lon="2.688299"><ele></ele><time>2017-9-18T23:21:46Z</time></trkpt>
<trkpt lat="48.415275" lon="2.688138"><ele></ele><time>2017-9-18T23:21:49Z</time></trkpt>
<trkpt lat="48.415243" lon="2.687984"><ele></ele><time>2017-9-18T23:21:52Z</time></trkpt>
<trkpt lat="48.415229" lon="2.687831"><ele></ele><time>2017-9-18T23:21:55Z</time></trkpt>
<trkpt lat="48.415186" lon="2.687667"><ele></ele><time>2017-9-18T23:21:58Z</time></trkpt>
<trkpt lat="48.415173" lon="2.687508"><ele></ele><time>2017-9-18T23:22:1Z</time></trkpt>
<trkpt lat="48.415135" lon="2.687333"><ele></ele><time>2017-9-18T23:22:4Z</time></trkpt>
<trkpt lat="48.415131" lon="2.687196"><ele></ele><time>2017-9-18T23:22:7Z</time></trkpt>
<trkpt lat="48.415115" lon="2.687023"><ele></ele><time>2017-9-18T23:22:10Z</time></trkpt>
<trkpt lat="48.415087" lon="2.686834"><ele></ele><time>2017-9-18T23:22:13Z</time></trkpt>
<trkpt lat="48.415067" lon="2.686692"><ele></ele><time>2017-9-18T23:22:16Z</time></trkpt>
<trkpt lat="48.415024" lon="2.686311"><ele></ele><time>2017-9-18T23:22:19Z</time></trkpt>
<trkpt lat="48.414991" lon="2.686133"><ele></ele><time>2017-9-18T23:22:22Z</time></trkpt>
<trkpt lat="48.414985" lon="2.685979"><ele></ele><time>2017-9-18T23:22:25Z</time></trkpt>
<trkpt lat="48.414915" lon="2.686101"><ele></ele><time>2017-9-18T23:22:28Z</time></trkpt>
<trkpt lat="48.41483" lon="2.686237"><ele></ele><time>2017-9-18T23:22:31Z</time></trkpt>
<trkpt lat="48.414722" lon="2.686288"><ele></ele><time>2017-9-18T23:22:34Z</time></trkpt>
<trkpt lat="48.414621" lon="2.686391"><ele></ele><time>2017-9-18T23:22:37Z</time></trkpt>
<trkpt lat="48.414701" lon="2.686296"><ele></ele><time>2017-9-18T23:22:40Z</time></trkpt>
<trkpt lat="48.414912" lon="2.686038"><ele></ele><time>2017-9-18T23:22:43Z</time></trkpt>
<trkpt lat="48.414962" lon="2.685923"><ele></ele><time>2017-9-18T23:22:46Z</time></trkpt>
<trkpt lat="48.415009" lon="2.685784"><ele></ele><time>2017-9-18T23:22:49Z</time></trkpt>
<trkpt lat="48.415027" lon="2.68563"><ele></ele><time>2017-9-18T23:22:52Z</time></trkpt>
<trkpt lat="48.41506" lon="2.685428"><ele></ele><time>2017-9-18T23:22:55Z</time></trkpt>
<trkpt lat="48.415131" lon="2.68529"><ele></ele><time>2017-9-18T23:22:58Z</time></trkpt>
<trkpt lat="48.415175" lon="2.68516"><ele></ele><time>2017-9-18T23:23:1Z</time></trkpt>
<trkpt lat="48.41524" lon="2.685008"><ele></ele><time>2017-9-18T23:23:4Z</time></trkpt>
<trkpt lat="48.415262" lon="2.684816"><ele></ele><time>2017-9-18T23:23:7Z</time></trkpt>
<trkpt lat="48.415321" lon="2.684604"><ele></ele><time>2017-9-18T23:23:10Z</time></trkpt>
<trkpt lat="48.415367" lon="2.684443"><ele></ele><time>2017-9-18T23:23:13Z</time></trkpt>
<trkpt lat="48.415408" lon="2.684219"><ele></ele><time>2017-9-18T23:23:16Z</time></trkpt>
<trkpt lat="48.415478" lon="2.684053"><ele></ele><time>2017-9-18T23:23:19Z</time></trkpt>
<trkpt lat="48.415479" lon="2.683905"><ele></ele><time>2017-9-18T23:23:22Z</time></trkpt>
<trkpt lat="48.415511" lon="2.683737"><ele></ele><time>2017-9-18T23:23:25Z</time></trkpt>
<trkpt lat="48.415542" lon="2.68352"><ele></ele><time>2017-9-18T23:23:28Z</time></trkpt>
<trkpt lat="48.415599" lon="2.683359"><ele></ele><time>2017-9-18T23:23:31Z</time></trkpt>
<trkpt lat="48.415645" lon="2.683183"><ele></ele><time>2017-9-18T23:23:34Z</time></trkpt>
<trkpt lat="48.415662" lon="2.682987"><ele></ele><time>2017-9-18T23:23:37Z</time></trkpt>
<trkpt lat="48.415786" lon="2.682658"><ele></ele><time>2017-9-18T23:23:40Z</time></trkpt>
<trkpt lat="48.415789" lon="2.682506"><ele></ele><time>2017-9-18T23:23:43Z</time></trkpt>
<trkpt lat="48.415866" lon="2.682362"><ele></ele><time>2017-9-18T23:23:46Z</time></trkpt>
<trkpt lat="48.415894" lon="2.682216"><ele></ele><time>2017-9-18T23:23:49Z</time></trkpt>
<trkpt lat="48.415959" lon="2.682033"><ele></ele><time>2017-9-18T23:23:52Z</time></trkpt>
<trkpt lat="48.415985" lon="2.681896"><ele></ele><time>2017-9-18T23:23:55Z</time></trkpt>
<trkpt lat="48.416002" lon="2.681751"><ele></ele><time>2017-9-18T23:23:58Z</time></trkpt>
<trkpt lat="48.41604" lon="2.681556"><ele></ele><time>2017-9-18T23:24:1Z</time></trkpt>
<trkpt lat="48.416079" lon="2.681427"><ele></ele><time>2017-9-18T23:24:4Z</time></trkpt>
<trkpt lat="48.416146" lon="2.681272"><ele></ele><time>2017-9-18T23:24:7Z</time></trkpt>
<trkpt lat="48.416189" lon="2.681152"><ele></ele><time>2017-9-18T23:24:10Z</time></trkpt>
<trkpt lat="48.416245" lon="2.680958"><ele></ele><time>2017-9-18T23:24:13Z</time></trkpt>
<trkpt lat="48.41628" lon="2.68082"><ele></ele><time>2017-9-18T23:24:16Z</time></trkpt>
<trkpt lat="48.416348" lon="2.680655"><ele></ele><time>2017-9-18T23:24:19Z</time></trkpt>
<trkpt lat="48.416409" lon="2.680526"><ele></ele><time>2017-9-18T23:24:22Z</time></trkpt>
<trkpt lat="48.416394" lon="2.680334"><ele></ele><time>2017-9-18T23:24:25Z</time></trkpt>
<trkpt lat="48.416447" lon="2.680188"><ele></ele><time>2017-9-18T23:24:28Z</time></trkpt>
<trkpt lat="48.416478" lon="2.679999"><ele></ele><time>2017-9-18T23:24:31Z</time></trkpt>
<trkpt lat="48.416478" lon="2.679854"><ele></ele><time>2017-9-18T23:24:34Z</time></trkpt>
<trkpt lat="48.416488" lon="2.679705"><ele></ele><time>2017-9-18T23:24:37Z</time></trkpt>
<trkpt lat="48.41654" lon="2.679537"><ele></ele><time>2017-9-18T23:24:40Z</time></trkpt>
<trkpt lat="48.416665" lon="2.679282"><ele></ele><time>2017-9-18T23:24:43Z</time></trkpt>
<trkpt lat="48.416719" lon="2.679155"><ele></ele><time>2017-9-18T23:24:46Z</time></trkpt>
<trkpt lat="48.416734" lon="2.678994"><ele></ele><time>2017-9-18T23:24:49Z</time></trkpt>
<trkpt lat="48.416783" lon="2.678859"><ele></ele><time>2017-9-18T23:24:52Z</time></trkpt>
<trkpt lat="48.416835" lon="2.678718"><ele></ele><time>2017-9-18T23:24:55Z</time></trkpt>
<trkpt lat="48.416901" lon="2.678584"><ele></ele><time>2017-9-18T23:24:58Z</time></trkpt>
<trkpt lat="48.416887" lon="2.678414"><ele></ele><time>2017-9-18T23:25:1Z</time></trkpt>
<trkpt lat="48.416944" lon="2.678295"><ele></ele><time>2017-9-18T23:25:4Z</time></trkpt>
<trkpt lat="48.416927" lon="2.678123"><ele></ele><time>2017-9-18T23:25:7Z</time></trkpt>
<trkpt lat="48.416929" lon="2.67796"><ele></ele><time>2017-9-18T23:25:10Z</time></trkpt>
<trkpt lat="48.416995" lon="2.677769"><ele></ele><time>2017-9-18T23:25:13Z</time></trkpt>
<trkpt lat="48.41705" lon="2.677636"><ele></ele><time>2017-9-18T23:25:16Z</time></trkpt>
<trkpt lat="48.417093" lon="2.67745"><ele></ele><time>2017-9-18T23:25:19Z</time></trkpt>
<trkpt lat="48.417147" lon="2.677274"><ele></ele><time>2017-9-18T23:25:22Z</time></trkpt>
<trkpt lat="48.417205" lon="2.677128"><ele></ele><time>2017-9-18T23:25:25Z</time></trkpt>
<trkpt lat="48.417247" lon="2.676951"><ele></ele><time>2017-9-18T23:25:28Z</time></trkpt>
<trkpt lat="48.417287" lon="2.676753"><ele></ele><time>2017-9-18T23:25:31Z</time></trkpt>
<trkpt lat="48.417338" lon="2.676562"><ele></ele><time>2017-9-18T23:25:34Z</time></trkpt>
<trkpt lat="48.417365" lon="2.676431"><ele></ele><time>2017-9-18T23:25:37Z</time></trkpt>
<trkpt lat="48.417399" lon="2.676254"><ele></ele><time>2017-9-18T23:25:40Z</time></trkpt>
<trkpt lat="48.41751" lon="2.675911"><ele></ele><time>2017-9-18T23:25:43Z</time></trkpt>
<trkpt lat="48.417522" lon="2.675758"><ele></ele><time>2017-9-18T23:25:46Z</time></trkpt>
<trkpt lat="48.417582" lon="2.675511"><ele></ele><time>2017-9-18T23:25:49Z</time></trkpt>
<trkpt lat="48.417624" lon="2.675387"><ele></ele><time>2017-9-18T23:25:52Z</time></trkpt>
<trkpt lat="48.417677" lon="2.675194"><ele></ele><time>2017-9-18T23:25:55Z</time></trkpt>
<trkpt lat="48.417734" lon="2.675051"><ele></ele><time>2017-9-18T23:25:58Z</time></trkpt>
<trkpt lat="48.417767" lon="2.67492"><ele></ele><time>2017-9-18T23:26:1Z</time></trkpt>
<trkpt lat="48.41783" lon="2.674737"><ele></ele><time>2017-9-18T23:26:4Z</time></trkpt>
<trkpt lat="48.41785" lon="2.674588"><ele></ele><time>2017-9-18T23:26:7Z</time></trkpt>
<trkpt lat="48.417898" lon="2.674376"><ele></ele><time>2017-9-18T23:26:10Z</time></trkpt>
<trkpt lat="48.417955" lon="2.674178"><ele></ele><time>2017-9-18T23:26:13Z</time></trkpt>
<trkpt lat="48.418009" lon="2.673998"><ele></ele><time>2017-9-18T23:26:16Z</time></trkpt>
<trkpt lat="48.418077" lon="2.673791"><ele></ele><time>2017-9-18T23:26:19Z</time></trkpt>
<trkpt lat="48.418146" lon="2.673563"><ele></ele><time>2017-9-18T23:26:22Z</time></trkpt>
<trkpt lat="48.418174" lon="2.673421"><ele></ele><time>2017-9-18T23:26:25Z</time></trkpt>
<trkpt lat="48.418214" lon="2.673296"><ele></ele><time>2017-9-18T23:26:28Z</time></trkpt>
<trkpt lat="48.418137" lon="2.673221"><ele></ele><time>2017-9-18T23:26:31Z</time></trkpt>
<trkpt lat="48.418017" lon="2.673315"><ele></ele><time>2017-9-18T23:26:34Z</time></trkpt>
<trkpt lat="48.41788" lon="2.673346"><ele></ele><time>2017-9-18T23:26:37Z</time></trkpt>
<trkpt lat="48.417783" lon="2.673339"><ele></ele><time>2017-9-18T23:26:40Z</time></trkpt>
<trkpt lat="48.417665" lon="2.67334"><ele></ele><time>2017-9-18T23:26:43Z</time></trkpt>
<trkpt lat="48.41745" lon="2.673319"><ele></ele><time>2017-9-18T23:26:46Z</time></trkpt>
<trkpt lat="48.417333" lon="2.673289"><ele></ele><time>2017-9-18T23:26:49Z</time></trkpt>
<trkpt lat="48.417215" lon="2.673226"><ele></ele><time>2017-9-18T23:26:52Z</time></trkpt>
<trkpt lat="48.417114" lon="2.673289"><ele></ele><time>2017-9-18T23:26:55Z</time></trkpt>
<trkpt lat="48.417031" lon="2.673359"><ele></ele><time>2017-9-18T23:26:58Z</time></trkpt>
<trkpt lat="48.416927" lon="2.673436"><ele></ele><time>2017-9-18T23:27:1Z</time></trkpt>
<trkpt lat="48.416829" lon="2.673442"><ele></ele><time>2017-9-18T23:27:4Z</time></trkpt>
<trkpt lat="48.416738" lon="2.67347"><ele></ele><time>2017-9-18T23:27:7Z</time></trkpt>
<trkpt lat="48.416635" lon="2.673516"><ele></ele><time>2017-9-18T23:27:10Z</time></trkpt>
<trkpt lat="48.41652" lon="2.6736"><ele></ele><time>2017-9-18T23:27:13Z</time></trkpt>
<trkpt lat="48.416398" lon="2.673649"><ele></ele><time>2017-9-18T23:27:16Z</time></trkpt>
<trkpt lat="48.416295" lon="2.673632"><ele></ele><time>2017-9-18T23:27:19Z</time></trkpt>
<trkpt lat="48.416194" lon="2.673617"><ele></ele><time>2017-9-18T23:27:22Z</time></trkpt>
<trkpt lat="48.416092" lon="2.673599"><ele></ele><time>2017-9-18T23:27:25Z</time></trkpt>
<trkpt lat="48.415994" lon="2.673594"><ele></ele><time>2017-9-18T23:27:28Z</time></trkpt>
<trkpt lat="48.415836" lon="2.673576"><ele></ele><time>2017-9-18T23:27:31Z</time></trkpt>
<trkpt lat="48.415702" lon="2.673518"><ele></ele><time>2017-9-18T23:27:34Z</time></trkpt>
<trkpt lat="48.415568" lon="2.6735"><ele></ele><time>2017-9-18T23:27:37Z</time></trkpt>
<trkpt lat="48.415338" lon="2.673537"><ele></ele><time>2017-9-18T23:27:40Z</time></trkpt>
<trkpt lat="48.415234" lon="2.673521"><ele></ele><time>2017-9-18T23:27:43Z</time></trkpt>
<trkpt lat="48.415081" lon="2.673509"><ele></ele><time>2017-9-18T23:27:46Z</time></trkpt>
<trkpt lat="48.414965" lon="2.673448"><ele></ele><time>2017-9-18T23:27:49Z</time></trkpt>
<trkpt lat="48.414876" lon="2.673507"><ele></ele><time>2017-9-18T23:27:52Z</time></trkpt>
<trkpt lat="48.414765" lon="2.673471"><ele></ele><time>2017-9-18T23:27:55Z</time></trkpt>
<trkpt lat="48.414601" lon="2.673492"><ele></ele><time>2017-9-18T23:27:58Z</time></trkpt>
<trkpt lat="48.414475" lon="2.673542"><ele></ele><time>2017-9-18T23:28:1Z</time></trkpt>
<trkpt lat="48.41434" lon="2.673637"><ele></ele><time>2017-9-18T23:28:4Z</time></trkpt>
<trkpt lat="48.414278" lon="2.673743"><ele></ele><time>2017-9-18T23:28:7Z</time></trkpt>
<trkpt lat="48.414178" lon="2.673846"><ele></ele><time>2017-9-18T23:28:10Z</time></trkpt>
<trkpt lat="48.414118" lon="2.673958"><ele></ele><time>2017-9-18T23:28:13Z</time></trkpt>
<trkpt lat="48.414051" lon="2.674103"><ele></ele><time>2017-9-18T23:28:16Z</time></trkpt>
<trkpt lat="48.414036" lon="2.674252"><ele></ele><time>2017-9-18T23:28:19Z</time></trkpt>
<trkpt lat="48.413946" lon="2.674344"><ele></ele><time>2017-9-18T23:28:22Z</time></trkpt>
<trkpt lat="48.413879" lon="2.674455"><ele></ele><time>2017-9-18T23:28:25Z</time></trkpt>
<trkpt lat="48.413794" lon="2.674544"><ele></ele><time>2017-9-18T23:28:28Z</time></trkpt>
<trkpt lat="48.413697" lon="2.674592"><ele></ele><time>2017-9-18T23:28:31Z</time></trkpt>
<trkpt lat="48.413621" lon="2.674806"><ele></ele><time>2017-9-18T23:28:34Z</time></trkpt>
<trkpt lat="48.413539" lon="2.674929"><ele></ele><time>2017-9-18T23:28:37Z</time></trkpt>
<trkpt lat="48.413463" lon="2.674848"><ele></ele><time>2017-9-18T23:28:40Z</time></trkpt>
<trkpt lat="48.413391" lon="2.67474"><ele></ele><time>2017-9-18T23:28:43Z</time></trkpt>
<trkpt lat="48.413418" lon="2.674592"><ele></ele><time>2017-9-18T23:28:46Z</time></trkpt>
<trkpt lat="48.413428" lon="2.674292"><ele></ele><time>2017-9-18T23:28:49Z</time></trkpt>
<trkpt lat="48.413455" lon="2.674126"><ele></ele><time>2017-9-18T23:28:52Z</time></trkpt>
<trkpt lat="48.413453" lon="2.673947"><ele></ele><time>2017-9-18T23:28:55Z</time></trkpt>
<trkpt lat="48.413477" lon="2.673749"><ele></ele><time>2017-9-18T23:28:58Z</time></trkpt>
<trkpt lat="48.413487" lon="2.673553"><ele></ele><time>2017-9-18T23:29:1Z</time></trkpt>
<trkpt lat="48.413462" lon="2.673378"><ele></ele><time>2017-9-18T23:29:4Z</time></trkpt>
<trkpt lat="48.413392" lon="2.673169"><ele></ele><time>2017-9-18T23:29:7Z</time></trkpt>
<trkpt lat="48.413338" lon="2.673016"><ele></ele><time>2017-9-18T23:29:10Z</time></trkpt>
<trkpt lat="48.413308" lon="2.672843"><ele></ele><time>2017-9-18T23:29:13Z</time></trkpt>
<trkpt lat="48.413255" lon="2.672718"><ele></ele><time>2017-9-18T23:29:16Z</time></trkpt>
<trkpt lat="48.413219" lon="2.672585"><ele></ele><time>2017-9-18T23:29:19Z</time></trkpt>
<trkpt lat="48.413164" lon="2.672451"><ele></ele><time>2017-9-18T23:29:22Z</time></trkpt>
<trkpt lat="48.413123" lon="2.672295"><ele></ele><time>2017-9-18T23:29:25Z</time></trkpt>
<trkpt lat="48.413104" lon="2.67214"><ele></ele><time>2017-9-18T23:29:28Z</time></trkpt>
<trkpt lat="48.413026" lon="2.672045"><ele></ele><time>2017-9-18T23:29:31Z</time></trkpt>
<trkpt lat="48.413019" lon="2.671903"><ele></ele><time>2017-9-18T23:29:34Z</time></trkpt>
<trkpt lat="48.413019" lon="2.671737"><ele></ele><time>2017-9-18T23:29:37Z</time></trkpt>
<trkpt lat="48.413001" lon="2.671422"><ele></ele><time>2017-9-18T23:29:40Z</time></trkpt>
<trkpt lat="48.412978" lon="2.67128"><ele></ele><time>2017-9-18T23:29:43Z</time></trkpt>
<trkpt lat="48.412904" lon="2.671174"><ele></ele><time>2017-9-18T23:29:46Z</time></trkpt>
<trkpt lat="48.41286" lon="2.67101"><ele></ele><time>2017-9-18T23:29:49Z</time></trkpt>
<trkpt lat="48.412857" lon="2.670852"><ele></ele><time>2017-9-18T23:29:52Z</time></trkpt>
<trkpt lat="48.412886" lon="2.670714"><ele></ele><time>2017-9-18T23:29:55Z</time></trkpt>
<trkpt lat="48.412881" lon="2.670552"><ele></ele><time>2017-9-18T23:29:58Z</time></trkpt>
<trkpt lat="48.412858" lon="2.670405"><ele></ele><time>2017-9-18T23:30:1Z</time></trkpt>
<trkpt lat="48.412873" lon="2.670246"><ele></ele><time>2017-9-18T23:30:4Z</time></trkpt>
<trkpt lat="48.412838" lon="2.670098"><ele></ele><time>2017-9-18T23:30:7Z</time></trkpt>
<trkpt lat="48.412886" lon="2.669947"><ele></ele><time>2017-9-18T23:30:10Z</time></trkpt>
<trkpt lat="48.412976" lon="2.669816"><ele></ele><time>2017-9-18T23:30:13Z</time></trkpt>
<trkpt lat="48.413044" lon="2.669693"><ele></ele><time>2017-9-18T23:30:16Z</time></trkpt>
<trkpt lat="48.413082" lon="2.669414"><ele></ele><time>2017-9-18T23:30:19Z</time></trkpt>
<trkpt lat="48.413061" lon="2.669176"><ele></ele><time>2017-9-18T23:30:22Z</time></trkpt>
<trkpt lat="48.413112" lon="2.669015"><ele></ele><time>2017-9-18T23:30:25Z</time></trkpt>
<trkpt lat="48.413162" lon="2.668852"><ele></ele><time>2017-9-18T23:30:28Z</time></trkpt>
<trkpt lat="48.413208" lon="2.668644"><ele></ele><time>2017-9-18T23:30:31Z</time></trkpt>
<trkpt lat="48.413276" lon="2.66845"><ele></ele><time>2017-9-18T23:30:34Z</time></trkpt>
<trkpt lat="48.41341" lon="2.668287"><ele></ele><time>2017-9-18T23:30:37Z</time></trkpt>
<trkpt lat="48.413478" lon="2.668128"><ele></ele><time>2017-9-18T23:30:40Z</time></trkpt>
<trkpt lat="48.413539" lon="2.667988"><ele></ele><time>2017-9-18T23:30:43Z</time></trkpt>
<trkpt lat="48.41358" lon="2.667818"><ele></ele><time>2017-9-18T23:30:46Z</time></trkpt>
<trkpt lat="48.413641" lon="2.667693"><ele></ele><time>2017-9-18T23:30:49Z</time></trkpt>
<trkpt lat="48.413721" lon="2.667558"><ele></ele><time>2017-9-18T23:30:52Z</time></trkpt>
<trkpt lat="48.413804" lon="2.667459"><ele></ele><time>2017-9-18T23:30:55Z</time></trkpt>
<trkpt lat="48.413799" lon="2.667323"><ele></ele><time>2017-9-18T23:30:58Z</time></trkpt>
<trkpt lat="48.41376" lon="2.667176"><ele></ele><time>2017-9-18T23:31:1Z</time></trkpt>
<trkpt lat="48.413741" lon="2.66704"><ele></ele><time>2017-9-18T23:31:4Z</time></trkpt>
<trkpt lat="48.413688" lon="2.666762"><ele></ele><time>2017-9-18T23:31:7Z</time></trkpt>
<trkpt lat="48.413572" lon="2.666589"><ele></ele><time>2017-9-18T23:31:10Z</time></trkpt>
<trkpt lat="48.413505" lon="2.66628"><ele></ele><time>2017-9-18T23:31:13Z</time></trkpt>
<trkpt lat="48.413419" lon="2.666141"><ele></ele><time>2017-9-18T23:31:16Z</time></trkpt>
<trkpt lat="48.413358" lon="2.666034"><ele></ele><time>2017-9-18T23:31:19Z</time></trkpt>
<trkpt lat="48.413278" lon="2.665946"><ele></ele><time>2017-9-18T23:31:22Z</time></trkpt>
<trkpt lat="48.413179" lon="2.665906"><ele></ele><time>2017-9-18T23:31:25Z</time></trkpt>
<trkpt lat="48.413074" lon="2.665835"><ele></ele><time>2017-9-18T23:31:28Z</time></trkpt>
<trkpt lat="48.413001" lon="2.665742"><ele></ele><time>2017-9-18T23:31:31Z</time></trkpt>
<trkpt lat="48.412947" lon="2.665613"><ele></ele><time>2017-9-18T23:31:34Z</time></trkpt>
<trkpt lat="48.412918" lon="2.665477"><ele></ele><time>2017-9-18T23:31:37Z</time></trkpt>
<trkpt lat="48.412883" lon="2.665324"><ele></ele><time>2017-9-18T23:31:40Z</time></trkpt>
<trkpt lat="48.412865" lon="2.665188"><ele></ele><time>2017-9-18T23:31:43Z</time></trkpt>
<trkpt lat="48.412831" lon="2.664921"><ele></ele><time>2017-9-18T23:31:46Z</time></trkpt>
<trkpt lat="48.412823" lon="2.664773"><ele></ele><time>2017-9-18T23:31:49Z</time></trkpt>
<trkpt lat="48.412789" lon="2.664628"><ele></ele><time>2017-9-18T23:31:52Z</time></trkpt>
<trkpt lat="48.412722" lon="2.664452"><ele></ele><time>2017-9-18T23:31:55Z</time></trkpt>
<trkpt lat="48.41277" lon="2.664299"><ele></ele><time>2017-9-18T23:31:58Z</time></trkpt>
<trkpt lat="48.41275" lon="2.664142"><ele></ele><time>2017-9-18T23:32:1Z</time></trkpt>
<trkpt lat="48.412717" lon="2.664013"><ele></ele><time>2017-9-18T23:32:4Z</time></trkpt>
<trkpt lat="48.412749" lon="2.663863"><ele></ele><time>2017-9-18T23:32:7Z</time></trkpt>
<trkpt lat="48.41279" lon="2.663541"><ele></ele><time>2017-9-18T23:32:10Z</time></trkpt>
<trkpt lat="48.412788" lon="2.663403"><ele></ele><time>2017-9-18T23:32:13Z</time></trkpt>
<trkpt lat="48.412811" lon="2.66322"><ele></ele><time>2017-9-18T23:32:16Z</time></trkpt>
<trkpt lat="48.412817" lon="2.66307"><ele></ele><time>2017-9-18T23:32:19Z</time></trkpt>
<trkpt lat="48.412872" lon="2.662929"><ele></ele><time>2017-9-18T23:32:22Z</time></trkpt>
<trkpt lat="48.412909" lon="2.662722"><ele></ele><time>2017-9-18T23:32:25Z</time></trkpt>
<trkpt lat="48.412932" lon="2.662502"><ele></ele><time>2017-9-18T23:32:28Z</time></trkpt>
<trkpt lat="48.412965" lon="2.662283"><ele></ele><time>2017-9-18T23:32:31Z</time></trkpt>
<trkpt lat="48.412959" lon="2.662137"><ele></ele><time>2017-9-18T23:32:34Z</time></trkpt>
<trkpt lat="48.413007" lon="2.661976"><ele></ele><time>2017-9-18T23:32:37Z</time></trkpt>
<trkpt lat="48.413025" lon="2.661838"><ele></ele><time>2017-9-18T23:32:40Z</time></trkpt>
<trkpt lat="48.412997" lon="2.66163"><ele></ele><time>2017-9-18T23:32:43Z</time></trkpt>
<trkpt lat="48.412925" lon="2.661538"><ele></ele><time>2017-9-18T23:32:46Z</time></trkpt>
<trkpt lat="48.412851" lon="2.661446"><ele></ele><time>2017-9-18T23:32:49Z</time></trkpt>
<trkpt lat="48.412738" lon="2.661484"><ele></ele><time>2017-9-18T23:32:52Z</time></trkpt>
<trkpt lat="48.412643" lon="2.661509"><ele></ele><time>2017-9-18T23:32:55Z</time></trkpt>
<trkpt lat="48.412515" lon="2.661498"><ele></ele><time>2017-9-18T23:32:58Z</time></trkpt>
<trkpt lat="48.412404" lon="2.661509"><ele></ele><time>2017-9-18T23:33:1Z</time></trkpt>
<trkpt lat="48.412313" lon="2.661482"><ele></ele><time>2017-9-18T23:33:4Z</time></trkpt>
<trkpt lat="48.412312" lon="2.661317"><ele></ele><time>2017-9-18T23:33:7Z</time></trkpt>
<trkpt lat="48.412165" lon="2.661422"><ele></ele><time>2017-9-18T23:33:10Z</time></trkpt>
<trkpt lat="48.411965" lon="2.661658"><ele></ele><time>2017-9-18T23:33:13Z</time></trkpt>
<trkpt lat="48.411866" lon="2.661795"><ele></ele><time>2017-9-18T23:33:16Z</time></trkpt>
<trkpt lat="48.411748" lon="2.66182"><ele></ele><time>2017-9-18T23:33:19Z</time></trkpt>
<trkpt lat="48.411657" lon="2.661887"><ele></ele><time>2017-9-18T23:33:22Z</time></trkpt>
<trkpt lat="48.411573" lon="2.661967"><ele></ele><time>2017-9-18T23:33:25Z</time></trkpt>
<trkpt lat="48.411643" lon="2.662054"><ele></ele><time>2017-9-18T23:33:28Z</time></trkpt>
<trkpt lat="48.411572" lon="2.662164"><ele></ele><time>2017-9-18T23:33:31Z</time></trkpt>
<trkpt lat="48.411326" lon="2.662175"><ele></ele><time>2017-9-18T23:33:34Z</time></trkpt>
<trkpt lat="48.411228" lon="2.662195"><ele></ele><time>2017-9-18T23:33:37Z</time></trkpt>
<trkpt lat="48.411128" lon="2.662201"><ele></ele><time>2017-9-18T23:33:40Z</time></trkpt>
<trkpt lat="48.411041" lon="2.662261"><ele></ele><time>2017-9-18T23:33:43Z</time></trkpt>
<trkpt lat="48.41098" lon="2.662383"><ele></ele><time>2017-9-18T23:33:46Z</time></trkpt>
<trkpt lat="48.410892" lon="2.662427"><ele></ele><time>2017-9-18T23:33:49Z</time></trkpt>
<trkpt lat="48.410791" lon="2.662446"><ele></ele><time>2017-9-18T23:33:52Z</time></trkpt>
<trkpt lat="48.410695" lon="2.662479"><ele></ele><time>2017-9-18T23:33:55Z</time></trkpt>
<trkpt lat="48.410523" lon="2.662617"><ele></ele><time>2017-9-18T23:33:58Z</time></trkpt>
<trkpt lat="48.410426" lon="2.662675"><ele></ele><time>2017-9-18T23:34:1Z</time></trkpt>
<trkpt lat="48.410337" lon="2.662763"><ele></ele><time>2017-9-18T23:34:4Z</time></trkpt>
<trkpt lat="48.410296" lon="2.662884"><ele></ele><time>2017-9-18T23:34:7Z</time></trkpt>
<trkpt lat="48.410209" lon="2.662936"><ele></ele><time>2017-9-18T23:34:10Z</time></trkpt>
<trkpt lat="48.410102" lon="2.662952"><ele></ele><time>2017-9-18T23:34:13Z</time></trkpt>
<trkpt lat="48.410013" lon="2.662988"><ele></ele><time>2017-9-18T23:34:16Z</time></trkpt>
<trkpt lat="48.409917" lon="2.662981"><ele></ele><time>2017-9-18T23:34:19Z</time></trkpt>
<trkpt lat="48.409835" lon="2.663042"><ele></ele><time>2017-9-18T23:34:22Z</time></trkpt>
<trkpt lat="48.409752" lon="2.663148"><ele></ele><time>2017-9-18T23:34:25Z</time></trkpt>
<trkpt lat="48.409683" lon="2.663243"><ele></ele><time>2017-9-18T23:34:28Z</time></trkpt>
<trkpt lat="48.409504" lon="2.663313"><ele></ele><time>2017-9-18T23:34:31Z</time></trkpt>
<trkpt lat="48.409423" lon="2.663426"><ele></ele><time>2017-9-18T23:34:34Z</time></trkpt>
<trkpt lat="48.409308" lon="2.663462"><ele></ele><time>2017-9-18T23:34:37Z</time></trkpt>
<trkpt lat="48.409223" lon="2.663511"><ele></ele><time>2017-9-18T23:34:40Z</time></trkpt>
<trkpt lat="48.409112" lon="2.663552"><ele></ele><time>2017-9-18T23:34:43Z</time></trkpt>
<trkpt lat="48.40902" lon="2.663619"><ele></ele><time>2017-9-18T23:34:46Z</time></trkpt>
<trkpt lat="48.408918" lon="2.663683"><ele></ele><time>2017-9-18T23:34:49Z</time></trkpt>
<trkpt lat="48.408847" lon="2.663769"><ele></ele><time>2017-9-18T23:34:52Z</time></trkpt>
<trkpt lat="48.408757" lon="2.663824"><ele></ele><time>2017-9-18T23:34:55Z</time></trkpt>
<trkpt lat="48.408661" lon="2.663852"><ele></ele><time>2017-9-18T23:34:58Z</time></trkpt>
<trkpt lat="48.408535" lon="2.663964"><ele></ele><time>2017-9-18T23:35:1Z</time></trkpt>
<trkpt lat="48.408429" lon="2.664005"><ele></ele><time>2017-9-18T23:35:4Z</time></trkpt>
<trkpt lat="48.408274" lon="2.664142"><ele></ele><time>2017-9-18T23:35:7Z</time></trkpt>
<trkpt lat="48.408194" lon="2.664223"><ele></ele><time>2017-9-18T23:35:10Z</time></trkpt>
<trkpt lat="48.408063" lon="2.664261"><ele></ele><time>2017-9-18T23:35:13Z</time></trkpt>
<trkpt lat="48.408028" lon="2.663928"><ele></ele><time>2017-9-18T23:35:16Z</time></trkpt>
<trkpt lat="48.408023" lon="2.663686"><ele></ele><time>2017-9-18T23:35:19Z</time></trkpt>
<trkpt lat="48.408041" lon="2.663547"><ele></ele><time>2017-9-18T23:35:22Z</time></trkpt>
<trkpt lat="48.408032" lon="2.663384"><ele></ele><time>2017-9-18T23:35:25Z</time></trkpt>
<trkpt lat="48.408019" lon="2.663117"><ele></ele><time>2017-9-18T23:35:28Z</time></trkpt>
<trkpt lat="48.408034" lon="2.66283"><ele></ele><time>2017-9-18T23:35:31Z</time></trkpt>
<trkpt lat="48.408017" lon="2.662622"><ele></ele><time>2017-9-18T23:35:34Z</time></trkpt>
<trkpt lat="48.408032" lon="2.662455"><ele></ele><time>2017-9-18T23:35:37Z</time></trkpt>
<trkpt lat="48.407999" lon="2.662308"><ele></ele><time>2017-9-18T23:35:40Z</time></trkpt>
<trkpt lat="48.407967" lon="2.662166"><ele></ele><time>2017-9-18T23:35:43Z</time></trkpt>
<trkpt lat="48.40794" lon="2.662005"><ele></ele><time>2017-9-18T23:35:46Z</time></trkpt>
<trkpt lat="48.407891" lon="2.661858"><ele></ele><time>2017-9-18T23:35:49Z</time></trkpt>
<trkpt lat="48.40786" lon="2.661687"><ele></ele><time>2017-9-18T23:35:52Z</time></trkpt>
<trkpt lat="48.407828" lon="2.661513"><ele></ele><time>2017-9-18T23:35:55Z</time></trkpt>
<trkpt lat="48.407774" lon="2.661338"><ele></ele><time>2017-9-18T23:35:58Z</time></trkpt>
<trkpt lat="48.407746" lon="2.661203"><ele></ele><time>2017-9-18T23:36:1Z</time></trkpt>
<trkpt lat="48.407725" lon="2.66107"><ele></ele><time>2017-9-18T23:36:4Z</time></trkpt>
<trkpt lat="48.407693" lon="2.660876"><ele></ele><time>2017-9-18T23:36:7Z</time></trkpt>
<trkpt lat="48.407684" lon="2.660678"><ele></ele><time>2017-9-18T23:36:10Z</time></trkpt>
<trkpt lat="48.407652" lon="2.66054"><ele></ele><time>2017-9-18T23:36:13Z</time></trkpt>
<trkpt lat="48.40762" lon="2.660364"><ele></ele><time>2017-9-18T23:36:16Z</time></trkpt>
<trkpt lat="48.407613" lon="2.660186"><ele></ele><time>2017-9-18T23:36:19Z</time></trkpt>
<trkpt lat="48.407588" lon="2.660032"><ele></ele><time>2017-9-18T23:36:22Z</time></trkpt>
<trkpt lat="48.407557" lon="2.65987"><ele></ele><time>2017-9-18T23:36:25Z</time></trkpt>
<trkpt lat="48.407538" lon="2.659534"><ele></ele><time>2017-9-18T23:36:28Z</time></trkpt>
<trkpt lat="48.407526" lon="2.659375"><ele></ele><time>2017-9-18T23:36:31Z</time></trkpt>
<trkpt lat="48.407542" lon="2.659229"><ele></ele><time>2017-9-18T23:36:34Z</time></trkpt>
<trkpt lat="48.407576" lon="2.659056"><ele></ele><time>2017-9-18T23:36:37Z</time></trkpt>
<trkpt lat="48.407608" lon="2.658893"><ele></ele><time>2017-9-18T23:36:40Z</time></trkpt>
<trkpt lat="48.407632" lon="2.658712"><ele></ele><time>2017-9-18T23:36:43Z</time></trkpt>
<trkpt lat="48.407663" lon="2.658534"><ele></ele><time>2017-9-18T23:36:46Z</time></trkpt>
<trkpt lat="48.407704" lon="2.658369"><ele></ele><time>2017-9-18T23:36:49Z</time></trkpt>
<trkpt lat="48.407748" lon="2.658222"><ele></ele><time>2017-9-18T23:36:52Z</time></trkpt>
<trkpt lat="48.407706" lon="2.658056"><ele></ele><time>2017-9-18T23:36:55Z</time></trkpt>
<trkpt lat="48.407776" lon="2.657898"><ele></ele><time>2017-9-18T23:36:58Z</time></trkpt>
<trkpt lat="48.407767" lon="2.65757"><ele></ele><time>2017-9-18T23:37:1Z</time></trkpt>
<trkpt lat="48.407763" lon="2.657426"><ele></ele><time>2017-9-18T23:37:4Z</time></trkpt>
<trkpt lat="48.407774" lon="2.657249"><ele></ele><time>2017-9-18T23:37:7Z</time></trkpt>
<trkpt lat="48.407813" lon="2.657094"><ele></ele><time>2017-9-18T23:37:10Z</time></trkpt>
<trkpt lat="48.407817" lon="2.656931"><ele></ele><time>2017-9-18T23:37:13Z</time></trkpt>
<trkpt lat="48.407845" lon="2.656796"><ele></ele><time>2017-9-18T23:37:16Z</time></trkpt>
<trkpt lat="48.407926" lon="2.656549"><ele></ele><time>2017-9-18T23:37:19Z</time></trkpt>
<trkpt lat="48.407938" lon="2.65634"><ele></ele><time>2017-9-18T23:37:22Z</time></trkpt>
<trkpt lat="48.407918" lon="2.656122"><ele></ele><time>2017-9-18T23:37:25Z</time></trkpt>
<trkpt lat="48.40792" lon="2.655967"><ele></ele><time>2017-9-18T23:37:28Z</time></trkpt>
<trkpt lat="48.407893" lon="2.655826"><ele></ele><time>2017-9-18T23:37:31Z</time></trkpt>
<trkpt lat="48.407865" lon="2.655621"><ele></ele><time>2017-9-18T23:37:34Z</time></trkpt>
<trkpt lat="48.407759" lon="2.655496"><ele></ele><time>2017-9-18T23:37:37Z</time></trkpt>
<trkpt lat="48.407695" lon="2.655399"><ele></ele><time>2017-9-18T23:37:40Z</time></trkpt>
<trkpt lat="48.407622" lon="2.655301"><ele></ele><time>2017-9-18T23:37:43Z</time></trkpt>
<trkpt lat="48.407608" lon="2.655162"><ele></ele><time>2017-9-18T23:37:46Z</time></trkpt>
<trkpt lat="48.407569" lon="2.655032"><ele></ele><time>2017-9-18T23:37:49Z</time></trkpt>
<trkpt lat="48.407551" lon="2.654859"><ele></ele><time>2017-9-18T23:37:52Z</time></trkpt>
<trkpt lat="48.407621" lon="2.654773"><ele></ele><time>2017-9-18T23:37:55Z</time></trkpt>
<trkpt lat="48.407656" lon="2.654616"><ele></ele><time>2017-9-18T23:37:58Z</time></trkpt>
<trkpt lat="48.407704" lon="2.654461"><ele></ele><time>2017-9-18T23:38:1Z</time></trkpt>
<trkpt lat="48.407769" lon="2.65405"><ele></ele><time>2017-9-18T23:38:4Z</time></trkpt>
<trkpt lat="48.407748" lon="2.653793"><ele></ele><time>2017-9-18T23:38:7Z</time></trkpt>
<trkpt lat="48.407779" lon="2.653659"><ele></ele><time>2017-9-18T23:38:10Z</time></trkpt>
<trkpt lat="48.407788" lon="2.653486"><ele></ele><time>2017-9-18T23:38:13Z</time></trkpt>
<trkpt lat="48.407788" lon="2.653286"><ele></ele><time>2017-9-18T23:38:16Z</time></trkpt>
<trkpt lat="48.407789" lon="2.653109"><ele></ele><time>2017-9-18T23:38:19Z</time></trkpt>
<trkpt lat="48.407801" lon="2.65288"><ele></ele><time>2017-9-18T23:38:22Z</time></trkpt>
<trkpt lat="48.407799" lon="2.652688"><ele></ele><time>2017-9-18T23:38:25Z</time></trkpt>
<trkpt lat="48.40779" lon="2.65251"><ele></ele><time>2017-9-18T23:38:28Z</time></trkpt>
<trkpt lat="48.407832" lon="2.652337"><ele></ele><time>2017-9-18T23:38:31Z</time></trkpt>
<trkpt lat="48.407827" lon="2.652114"><ele></ele><time>2017-9-18T23:38:34Z</time></trkpt>
<trkpt lat="48.407793" lon="2.651973"><ele></ele><time>2017-9-18T23:38:37Z</time></trkpt>
<trkpt lat="48.407843" lon="2.651824"><ele></ele><time>2017-9-18T23:38:40Z</time></trkpt>
<trkpt lat="48.40782" lon="2.651688"><ele></ele><time>2017-9-18T23:38:43Z</time></trkpt>
<trkpt lat="48.407869" lon="2.65156"><ele></ele><time>2017-9-18T23:38:46Z</time></trkpt>
<trkpt lat="48.407863" lon="2.65134"><ele></ele><time>2017-9-18T23:38:49Z</time></trkpt>
<trkpt lat="48.407771" lon="2.651177"><ele></ele><time>2017-9-18T23:38:52Z</time></trkpt>
<trkpt lat="48.407612" lon="2.651018"><ele></ele><time>2017-9-18T23:38:55Z</time></trkpt>
<trkpt lat="48.407533" lon="2.650922"><ele></ele><time>2017-9-18T23:38:58Z</time></trkpt>
<trkpt lat="48.407441" lon="2.650831"><ele></ele><time>2017-9-18T23:39:1Z</time></trkpt>
<trkpt lat="48.407363" lon="2.650754"><ele></ele><time>2017-9-18T23:39:4Z</time></trkpt>
<trkpt lat="48.407266" lon="2.650673"><ele></ele><time>2017-9-18T23:39:7Z</time></trkpt>
<trkpt lat="48.407094" lon="2.650342"><ele></ele><time>2017-9-18T23:39:10Z</time></trkpt>
<trkpt lat="48.407064" lon="2.650165"><ele></ele><time>2017-9-18T23:39:13Z</time></trkpt>
<trkpt lat="48.40697" lon="2.650076"><ele></ele><time>2017-9-18T23:39:16Z</time></trkpt>
<trkpt lat="48.406887" lon="2.649877"><ele></ele><time>2017-9-18T23:39:19Z</time></trkpt>
<trkpt lat="48.406825" lon="2.64977"><ele></ele><time>2017-9-18T23:39:22Z</time></trkpt>
<trkpt lat="48.406762" lon="2.64955"><ele></ele><time>2017-9-18T23:39:25Z</time></trkpt>
<trkpt lat="48.406675" lon="2.649367"><ele></ele><time>2017-9-18T23:39:28Z</time></trkpt>
<trkpt lat="48.406624" lon="2.649237"><ele></ele><time>2017-9-18T23:39:31Z</time></trkpt>
<trkpt lat="48.406634" lon="2.649006"><ele></ele><time>2017-9-18T23:39:34Z</time></trkpt>
<trkpt lat="48.406639" lon="2.648864"><ele></ele><time>2017-9-18T23:39:37Z</time></trkpt>
<trkpt lat="48.406599" lon="2.648675"><ele></ele><time>2017-9-18T23:39:40Z</time></trkpt>
<trkpt lat="48.406565" lon="2.648547"><ele></ele><time>2017-9-18T23:39:43Z</time></trkpt>
<trkpt lat="48.406581" lon="2.648397"><ele></ele><time>2017-9-18T23:39:46Z</time></trkpt>
<trkpt lat="48.406506" lon="2.648293"><ele></ele><time>2017-9-18T23:39:49Z</time></trkpt>
<trkpt lat="48.406428" lon="2.648214"><ele></ele><time>2017-9-18T23:39:52Z</time></trkpt>
<trkpt lat="48.4062" lon="2.648085"><ele></ele><time>2017-9-18T23:39:55Z</time></trkpt>
<trkpt lat="48.40607" lon="2.648061"><ele></ele><time>2017-9-18T23:39:58Z</time></trkpt>
<trkpt lat="48.405907" lon="2.647981"><ele></ele><time>2017-9-18T23:40:1Z</time></trkpt>
<trkpt lat="48.40577" lon="2.647864"><ele></ele><time>2017-9-18T23:40:4Z</time></trkpt>
<trkpt lat="48.405663" lon="2.647835"><ele></ele><time>2017-9-18T23:40:7Z</time></trkpt>
<trkpt lat="48.405567" lon="2.647823"><ele></ele><time>2017-9-18T23:40:10Z</time></trkpt>
<trkpt lat="48.405471" lon="2.647781"><ele></ele><time>2017-9-18T23:40:13Z</time></trkpt>
<trkpt lat="48.405334" lon="2.647714"><ele></ele><time>2017-9-18T23:40:16Z</time></trkpt>
<trkpt lat="48.405257" lon="2.647625"><ele></ele><time>2017-9-18T23:40:19Z</time></trkpt>
<trkpt lat="48.405157" lon="2.647695"><ele></ele><time>2017-9-18T23:40:22Z</time></trkpt>
<trkpt lat="48.405066" lon="2.647684"><ele></ele><time>2017-9-18T23:40:25Z</time></trkpt>
<trkpt lat="48.404976" lon="2.647609"><ele></ele><time>2017-9-18T23:40:28Z</time></trkpt>
<trkpt lat="48.404886" lon="2.647593"><ele></ele><time>2017-9-18T23:40:31Z</time></trkpt>
<trkpt lat="48.404787" lon="2.647534"><ele></ele><time>2017-9-18T23:40:34Z</time></trkpt>
<trkpt lat="48.404701" lon="2.647453"><ele></ele><time>2017-9-18T23:40:37Z</time></trkpt>
<trkpt lat="48.404537" lon="2.647326"><ele></ele><time>2017-9-18T23:40:40Z</time></trkpt>
<trkpt lat="48.404391" lon="2.647277"><ele></ele><time>2017-9-18T23:40:43Z</time></trkpt>
<trkpt lat="48.404324" lon="2.647174"><ele></ele><time>2017-9-18T23:40:46Z</time></trkpt>
<trkpt lat="48.404173" lon="2.64698"><ele></ele><time>2017-9-18T23:40:49Z</time></trkpt>
<trkpt lat="48.404139" lon="2.646858"><ele></ele><time>2017-9-18T23:40:52Z</time></trkpt>
<trkpt lat="48.404059" lon="2.646783"><ele></ele><time>2017-9-18T23:40:55Z</time></trkpt>
<trkpt lat="48.403825" lon="2.646307"><ele></ele><time>2017-9-18T23:40:58Z</time></trkpt>
<trkpt lat="48.403753" lon="2.64615"><ele></ele><time>2017-9-18T23:41:1Z</time></trkpt>
<trkpt lat="48.403689" lon="2.646001"><ele></ele><time>2017-9-18T23:41:4Z</time></trkpt>
<trkpt lat="48.403662" lon="2.645836"><ele></ele><time>2017-9-18T23:41:7Z</time></trkpt>
<trkpt lat="48.403669" lon="2.645701"><ele></ele><time>2017-9-18T23:41:10Z</time></trkpt>
<trkpt lat="48.40363" lon="2.645562"><ele></ele><time>2017-9-18T23:41:13Z</time></trkpt>
<trkpt lat="48.403598" lon="2.645432"><ele></ele><time>2017-9-18T23:41:16Z</time></trkpt>
<trkpt lat="48.40352" lon="2.645318"><ele></ele><time>2017-9-18T23:41:19Z</time></trkpt>
<trkpt lat="48.403411" lon="2.645198"><ele></ele><time>2017-9-18T23:41:22Z</time></trkpt>
<trkpt lat="48.403256" lon="2.645217"><ele></ele><time>2017-9-18T23:41:25Z</time></trkpt>
<trkpt lat="48.403139" lon="2.645121"><ele></ele><time>2017-9-18T23:41:28Z</time></trkpt>
<trkpt lat="48.403073" lon="2.645024"><ele></ele><time>2017-9-18T23:41:31Z</time></trkpt>
<trkpt lat="48.403055" lon="2.644882"><ele></ele><time>2017-9-18T23:41:34Z</time></trkpt>
<trkpt lat="48.403022" lon="2.644731"><ele></ele><time>2017-9-18T23:41:37Z</time></trkpt>
<trkpt lat="48.403008" lon="2.644589"><ele></ele><time>2017-9-18T23:41:40Z</time></trkpt>
<trkpt lat="48.402983" lon="2.644415"><ele></ele><time>2017-9-18T23:41:43Z</time></trkpt>
<trkpt lat="48.403002" lon="2.644245"><ele></ele><time>2017-9-18T23:41:46Z</time></trkpt>
<trkpt lat="48.403091" lon="2.64391"><ele></ele><time>2017-9-18T23:41:49Z</time></trkpt>
<trkpt lat="48.403119" lon="2.643724"><ele></ele><time>2017-9-18T23:41:52Z</time></trkpt>
<trkpt lat="48.403118" lon="2.643528"><ele></ele><time>2017-9-18T23:41:55Z</time></trkpt>
<trkpt lat="48.403184" lon="2.643392"><ele></ele><time>2017-9-18T23:41:58Z</time></trkpt>
<trkpt lat="48.403234" lon="2.643259"><ele></ele><time>2017-9-18T23:42:1Z</time></trkpt>
<trkpt lat="48.403277" lon="2.643131"><ele></ele><time>2017-9-18T23:42:4Z</time></trkpt>
<trkpt lat="48.403301" lon="2.642991"><ele></ele><time>2017-9-18T23:42:7Z</time></trkpt>
<trkpt lat="48.40331" lon="2.64285"><ele></ele><time>2017-9-18T23:42:10Z</time></trkpt>
<trkpt lat="48.403333" lon="2.642686"><ele></ele><time>2017-9-18T23:42:13Z</time></trkpt>
<trkpt lat="48.403331" lon="2.642522"><ele></ele><time>2017-9-18T23:42:16Z</time></trkpt>
<trkpt lat="48.403339" lon="2.642373"><ele></ele><time>2017-9-18T23:42:19Z</time></trkpt>
<trkpt lat="48.403397" lon="2.642239"><ele></ele><time>2017-9-18T23:42:22Z</time></trkpt>
<trkpt lat="48.403386" lon="2.641944"><ele></ele><time>2017-9-18T23:42:25Z</time></trkpt>
<trkpt lat="48.403408" lon="2.641803"><ele></ele><time>2017-9-18T23:42:28Z</time></trkpt>
<trkpt lat="48.40343" lon="2.641648"><ele></ele><time>2017-9-18T23:42:31Z</time></trkpt>
<trkpt lat="48.403437" lon="2.641484"><ele></ele><time>2017-9-18T23:42:34Z</time></trkpt>
<trkpt lat="48.403461" lon="2.641342"><ele></ele><time>2017-9-18T23:42:37Z</time></trkpt>
<trkpt lat="48.403446" lon="2.641194"><ele></ele><time>2017-9-18T23:42:40Z</time></trkpt>
<trkpt lat="48.403474" lon="2.641064"><ele></ele><time>2017-9-18T23:42:43Z</time></trkpt>
<trkpt lat="48.403496" lon="2.640925"><ele></ele><time>2017-9-18T23:42:46Z</time></trkpt>
<trkpt lat="48.403496" lon="2.640774"><ele></ele><time>2017-9-18T23:42:49Z</time></trkpt>
<trkpt lat="48.403517" lon="2.640627"><ele></ele><time>2017-9-18T23:42:52Z</time></trkpt>
<trkpt lat="48.40359" lon="2.640341"><ele></ele><time>2017-9-18T23:42:55Z</time></trkpt>
<trkpt lat="48.403611" lon="2.6402"><ele></ele><time>2017-9-18T23:42:58Z</time></trkpt>
<trkpt lat="48.403649" lon="2.640064"><ele></ele><time>2017-9-18T23:43:1Z</time></trkpt>
<trkpt lat="48.403653" lon="2.639895"><ele></ele><time>2017-9-18T23:43:4Z</time></trkpt>
<trkpt lat="48.403753" lon="2.639864"><ele></ele><time>2017-9-18T23:43:7Z</time></trkpt>
<trkpt lat="48.403716" lon="2.639736"><ele></ele><time>2017-9-18T23:43:10Z</time></trkpt>
<trkpt lat="48.403807" lon="2.639661"><ele></ele><time>2017-9-18T23:43:13Z</time></trkpt>
<trkpt lat="48.403795" lon="2.639496"><ele></ele><time>2017-9-18T23:43:16Z</time></trkpt>
<trkpt lat="48.403879" lon="2.639383"><ele></ele><time>2017-9-18T23:43:19Z</time></trkpt>
<trkpt lat="48.403929" lon="2.639112"><ele></ele><time>2017-9-18T23:43:22Z</time></trkpt>
<trkpt lat="48.403953" lon="2.638938"><ele></ele><time>2017-9-18T23:43:25Z</time></trkpt>
<trkpt lat="48.404006" lon="2.638806"><ele></ele><time>2017-9-18T23:43:28Z</time></trkpt>
<trkpt lat="48.404029" lon="2.638619"><ele></ele><time>2017-9-18T23:43:31Z</time></trkpt>
<trkpt lat="48.404009" lon="2.638452"><ele></ele><time>2017-9-18T23:43:34Z</time></trkpt>
<trkpt lat="48.404052" lon="2.63832"><ele></ele><time>2017-9-18T23:43:37Z</time></trkpt>
<trkpt lat="48.404125" lon="2.638236"><ele></ele><time>2017-9-18T23:43:40Z</time></trkpt>
<trkpt lat="48.404166" lon="2.638109"><ele></ele><time>2017-9-18T23:43:43Z</time></trkpt>
<trkpt lat="48.40421" lon="2.637914"><ele></ele><time>2017-9-18T23:43:46Z</time></trkpt>
<trkpt lat="48.404386" lon="2.637753"><ele></ele><time>2017-9-18T23:43:49Z</time></trkpt>
<trkpt lat="48.404472" lon="2.637628"><ele></ele><time>2017-9-18T23:43:52Z</time></trkpt>
<trkpt lat="48.404585" lon="2.6375"><ele></ele><time>2017-9-18T23:43:55Z</time></trkpt>
<trkpt lat="48.404669" lon="2.637447"><ele></ele><time>2017-9-18T23:43:58Z</time></trkpt>
<trkpt lat="48.404765" lon="2.637471"><ele></ele><time>2017-9-18T23:44:1Z</time></trkpt>
<trkpt lat="48.404861" lon="2.637418"><ele></ele><time>2017-9-18T23:44:4Z</time></trkpt>
<trkpt lat="48.404981" lon="2.637342"><ele></ele><time>2017-9-18T23:44:7Z</time></trkpt>
<trkpt lat="48.405092" lon="2.637242"><ele></ele><time>2017-9-18T23:44:10Z</time></trkpt>
<trkpt lat="48.405183" lon="2.637214"><ele></ele><time>2017-9-18T23:44:13Z</time></trkpt>
<trkpt lat="48.405282" lon="2.637182"><ele></ele><time>2017-9-18T23:44:16Z</time></trkpt>
<trkpt lat="48.40541" lon="2.637164"><ele></ele><time>2017-9-18T23:44:19Z</time></trkpt>
<trkpt lat="48.40554" lon="2.637138"><ele></ele><time>2017-9-18T23:44:22Z</time></trkpt>
<trkpt lat="48.405628" lon="2.637095"><ele></ele><time>2017-9-18T23:44:25Z</time></trkpt>
<trkpt lat="48.405745" lon="2.637021"><ele></ele><time>2017-9-18T23:44:28Z</time></trkpt>
<trkpt lat="48.405848" lon="2.636979"><ele></ele><time>2017-9-18T23:44:31Z</time></trkpt>
<trkpt lat="48.405909" lon="2.636771"><ele></ele><time>2017-9-18T23:44:34Z</time></trkpt>
<trkpt lat="48.405886" lon="2.636432"><ele></ele><time>2017-9-18T23:44:37Z</time></trkpt>
<trkpt lat="48.405875" lon="2.636266"><ele></ele><time>2017-9-18T23:44:40Z</time></trkpt>
<trkpt lat="48.405928" lon="2.636127"><ele></ele><time>2017-9-18T23:44:43Z</time></trkpt>
<trkpt lat="48.405862" lon="2.636015"><ele></ele><time>2017-9-18T23:44:46Z</time></trkpt>
<trkpt lat="48.405794" lon="2.635913"><ele></ele><time>2017-9-18T23:44:49Z</time></trkpt>
<trkpt lat="48.405685" lon="2.635808"><ele></ele><time>2017-9-18T23:44:52Z</time></trkpt>
<trkpt lat="48.405599" lon="2.635709"><ele></ele><time>2017-9-18T23:44:55Z</time></trkpt>
<trkpt lat="48.405585" lon="2.635558"><ele></ele><time>2017-9-18T23:44:58Z</time></trkpt>
<trkpt lat="48.40553" lon="2.635426"><ele></ele><time>2017-9-18T23:45:1Z</time></trkpt>
<trkpt lat="48.405437" lon="2.635388"><ele></ele><time>2017-9-18T23:45:4Z</time></trkpt>
<trkpt lat="48.405357" lon="2.635311"><ele></ele><time>2017-9-18T23:45:7Z</time></trkpt>
<trkpt lat="48.405248" lon="2.635249"><ele></ele><time>2017-9-18T23:45:10Z</time></trkpt>
<trkpt lat="48.405146" lon="2.635187"><ele></ele><time>2017-9-18T23:45:13Z</time></trkpt>
<trkpt lat="48.405049" lon="2.635114"><ele></ele><time>2017-9-18T23:45:16Z</time></trkpt>
<trkpt lat="48.405044" lon="2.634972"><ele></ele><time>2017-9-18T23:45:19Z</time></trkpt>
<trkpt lat="48.404912" lon="2.634735"><ele></ele><time>2017-9-18T23:45:22Z</time></trkpt>
<trkpt lat="48.404848" lon="2.634638"><ele></ele><time>2017-9-18T23:45:25Z</time></trkpt>
<trkpt lat="48.404748" lon="2.634554"><ele></ele><time>2017-9-18T23:45:28Z</time></trkpt>
<trkpt lat="48.404708" lon="2.634419"><ele></ele><time>2017-9-18T23:45:31Z</time></trkpt>
<trkpt lat="48.404733" lon="2.63426"><ele></ele><time>2017-9-18T23:45:34Z</time></trkpt>
<trkpt lat="48.40475" lon="2.634113"><ele></ele><time>2017-9-18T23:45:37Z</time></trkpt>
<trkpt lat="48.404764" lon="2.633946"><ele></ele><time>2017-9-18T23:45:40Z</time></trkpt>
<trkpt lat="48.404797" lon="2.633814"><ele></ele><time>2017-9-18T23:45:43Z</time></trkpt>
<trkpt lat="48.40481" lon="2.633669"><ele></ele><time>2017-9-18T23:45:46Z</time></trkpt>
<trkpt lat="48.404784" lon="2.633516"><ele></ele><time>2017-9-18T23:45:49Z</time></trkpt>
<trkpt lat="48.404807" lon="2.633367"><ele></ele><time>2017-9-18T23:45:52Z</time></trkpt>
<trkpt lat="48.404841" lon="2.633173"><ele></ele><time>2017-9-18T23:45:55Z</time></trkpt>
<trkpt lat="48.40486" lon="2.632987"><ele></ele><time>2017-9-18T23:45:58Z</time></trkpt>
<trkpt lat="48.40488" lon="2.632842"><ele></ele><time>2017-9-18T23:46:1Z</time></trkpt>
<trkpt lat="48.404876" lon="2.632653"><ele></ele><time>2017-9-18T23:46:4Z</time></trkpt>
<trkpt lat="48.404923" lon="2.63248"><ele></ele><time>2017-9-18T23:46:7Z</time></trkpt>
<trkpt lat="48.404962" lon="2.632336"><ele></ele><time>2017-9-18T23:46:10Z</time></trkpt>
<trkpt lat="48.404976" lon="2.632153"><ele></ele><time>2017-9-18T23:46:13Z</time></trkpt>
<trkpt lat="48.404998" lon="2.631961"><ele></ele><time>2017-9-18T23:46:16Z</time></trkpt>
<trkpt lat="48.405005" lon="2.631608"><ele></ele><time>2017-9-18T23:46:19Z</time></trkpt>
<trkpt lat="48.405" lon="2.631459"><ele></ele><time>2017-9-18T23:46:22Z</time></trkpt>
<trkpt lat="48.404985" lon="2.631288"><ele></ele><time>2017-9-18T23:46:25Z</time></trkpt>
<trkpt lat="48.404972" lon="2.631085"><ele></ele><time>2017-9-18T23:46:28Z</time></trkpt>
<trkpt lat="48.40498" lon="2.630946"><ele></ele><time>2017-9-18T23:46:31Z</time></trkpt>
<trkpt lat="48.404999" lon="2.630798"><ele></ele><time>2017-9-18T23:46:34Z</time></trkpt>
<trkpt lat="48.405013" lon="2.630602"><ele></ele><time>2017-9-18T23:46:37Z</time></trkpt>
<trkpt lat="48.405039" lon="2.630412"><ele></ele><time>2017-9-18T23:46:40Z</time></trkpt>
<trkpt lat="48.405067" lon="2.630168"><ele></ele><time>2017-9-18T23:46:43Z</time></trkpt>
<trkpt lat="48.405069" lon="2.629825"><ele></ele><time>2017-9-18T23:46:46Z</time></trkpt>
<trkpt lat="48.405081" lon="2.629615"><ele></ele><time>2017-9-18T23:46:49Z</time></trkpt>
<trkpt lat="48.405112" lon="2.629358"><ele></ele><time>2017-9-18T23:46:52Z</time></trkpt>
<trkpt lat="48.405102" lon="2.629222"><ele></ele><time>2017-9-18T23:46:55Z</time></trkpt>
<trkpt lat="48.405129" lon="2.628914"><ele></ele><time>2017-9-18T23:46:58Z</time></trkpt>
<trkpt lat="48.405123" lon="2.62875"><ele></ele><time>2017-9-18T23:47:1Z</time></trkpt>
<trkpt lat="48.405128" lon="2.6286"><ele></ele><time>2017-9-18T23:47:4Z</time></trkpt>
<trkpt lat="48.405221" lon="2.62837"><ele></ele><time>2017-9-18T23:47:7Z</time></trkpt>
<trkpt lat="48.405257" lon="2.628175"><ele></ele><time>2017-9-18T23:47:10Z</time></trkpt>
<trkpt lat="48.405262" lon="2.628006"><ele></ele><time>2017-9-18T23:47:13Z</time></trkpt>
<trkpt lat="48.405275" lon="2.627809"><ele></ele><time>2017-9-18T23:47:16Z</time></trkpt>
<trkpt lat="48.405316" lon="2.627567"><ele></ele><time>2017-9-18T23:47:19Z</time></trkpt>
<trkpt lat="48.405328" lon="2.627391"><ele></ele><time>2017-9-18T23:47:22Z</time></trkpt>
<trkpt lat="48.405322" lon="2.627172"><ele></ele><time>2017-9-18T23:47:25Z</time></trkpt>
<trkpt lat="48.405324" lon="2.62703"><ele></ele><time>2017-9-18T23:47:28Z</time></trkpt>
<trkpt lat="48.405321" lon="2.626851"><ele></ele><time>2017-9-18T23:47:31Z</time></trkpt>
<trkpt lat="48.405329" lon="2.62669"><ele></ele><time>2017-9-18T23:47:34Z</time></trkpt>
<trkpt lat="48.405405" lon="2.626308"><ele></ele><time>2017-9-18T23:47:37Z</time></trkpt>
<trkpt lat="48.405434" lon="2.626117"><ele></ele><time>2017-9-18T23:47:40Z</time></trkpt>
<trkpt lat="48.405458" lon="2.625954"><ele></ele><time>2017-9-18T23:47:43Z</time></trkpt>
<trkpt lat="48.405483" lon="2.625815"><ele></ele><time>2017-9-18T23:47:46Z</time></trkpt>
<trkpt lat="48.405475" lon="2.62568"><ele></ele><time>2017-9-18T23:47:49Z</time></trkpt>
<trkpt lat="48.405502" lon="2.625509"><ele></ele><time>2017-9-18T23:47:52Z</time></trkpt>
<trkpt lat="48.405542" lon="2.62537"><ele></ele><time>2017-9-18T23:47:55Z</time></trkpt>
<trkpt lat="48.40567" lon="2.625367"><ele></ele><time>2017-9-18T23:47:58Z</time></trkpt>
<trkpt lat="48.405785" lon="2.625434"><ele></ele><time>2017-9-18T23:48:1Z</time></trkpt>
<trkpt lat="48.405897" lon="2.625516"><ele></ele><time>2017-9-18T23:48:4Z</time></trkpt>
<trkpt lat="48.405984" lon="2.625552"><ele></ele><time>2017-9-18T23:48:7Z</time></trkpt>
<trkpt lat="48.406086" lon="2.625572"><ele></ele><time>2017-9-18T23:48:10Z</time></trkpt>
<trkpt lat="48.406194" lon="2.625675"><ele></ele><time>2017-9-18T23:48:13Z</time></trkpt>
<trkpt lat="48.406275" lon="2.625747"><ele></ele><time>2017-9-18T23:48:16Z</time></trkpt>
<trkpt lat="48.406395" lon="2.625777"><ele></ele><time>2017-9-18T23:48:19Z</time></trkpt>
<trkpt lat="48.406468" lon="2.625906"><ele></ele><time>2017-9-18T23:48:22Z</time></trkpt>
<trkpt lat="48.406541" lon="2.626078"><ele></ele><time>2017-9-18T23:48:25Z</time></trkpt>
<trkpt lat="48.406618" lon="2.626201"><ele></ele><time>2017-9-18T23:48:28Z</time></trkpt>
<trkpt lat="48.406686" lon="2.626312"><ele></ele><time>2017-9-18T23:48:31Z</time></trkpt>
<trkpt lat="48.406785" lon="2.626436"><ele></ele><time>2017-9-18T23:48:34Z</time></trkpt>
<trkpt lat="48.407022" lon="2.626595"><ele></ele><time>2017-9-18T23:48:37Z</time></trkpt>
<trkpt lat="48.407069" lon="2.626441"><ele></ele><time>2017-9-18T23:48:40Z</time></trkpt>
<trkpt lat="48.407087" lon="2.626304"><ele></ele><time>2017-9-18T23:48:43Z</time></trkpt>
<trkpt lat="48.407121" lon="2.626172"><ele></ele><time>2017-9-18T23:48:46Z</time></trkpt>
<trkpt lat="48.407143" lon="2.625979"><ele></ele><time>2017-9-18T23:48:49Z</time></trkpt>
<trkpt lat="48.407178" lon="2.625779"><ele></ele><time>2017-9-18T23:48:52Z</time></trkpt>
<trkpt lat="48.407183" lon="2.625579"><ele></ele><time>2017-9-18T23:48:55Z</time></trkpt>
<trkpt lat="48.407178" lon="2.625367"><ele></ele><time>2017-9-18T23:48:58Z</time></trkpt>
<trkpt lat="48.407147" lon="2.625231"><ele></ele><time>2017-9-18T23:49:1Z</time></trkpt>
<trkpt lat="48.407129" lon="2.625092"><ele></ele><time>2017-9-18T23:49:4Z</time></trkpt>
<trkpt lat="48.407139" lon="2.624906"><ele></ele><time>2017-9-18T23:49:7Z</time></trkpt>
<trkpt lat="48.407172" lon="2.624775"><ele></ele><time>2017-9-18T23:49:10Z</time></trkpt>
<trkpt lat="48.407205" lon="2.624595"><ele></ele><time>2017-9-18T23:49:13Z</time></trkpt>
<trkpt lat="48.407226" lon="2.624388"><ele></ele><time>2017-9-18T23:49:16Z</time></trkpt>
<trkpt lat="48.407233" lon="2.624202"><ele></ele><time>2017-9-18T23:49:19Z</time></trkpt>
<trkpt lat="48.407252" lon="2.624062"><ele></ele><time>2017-9-18T23:49:22Z</time></trkpt>
<trkpt lat="48.407292" lon="2.623897"><ele></ele><time>2017-9-18T23:49:25Z</time></trkpt>
<trkpt lat="48.407322" lon="2.623767"><ele></ele><time>2017-9-18T23:49:28Z</time></trkpt>
<trkpt lat="48.407358" lon="2.62359"><ele></ele><time>2017-9-18T23:49:31Z</time></trkpt>
<trkpt lat="48.407399" lon="2.623402"><ele></ele><time>2017-9-18T23:49:34Z</time></trkpt>
<trkpt lat="48.407468" lon="2.623286"><ele></ele><time>2017-9-18T23:49:37Z</time></trkpt>
<trkpt lat="48.407587" lon="2.622993"><ele></ele><time>2017-9-18T23:49:40Z</time></trkpt>
<trkpt lat="48.407638" lon="2.622873"><ele></ele><time>2017-9-18T23:49:43Z</time></trkpt>
<trkpt lat="48.407697" lon="2.622649"><ele></ele><time>2017-9-18T23:49:46Z</time></trkpt>
<trkpt lat="48.407736" lon="2.622486"><ele></ele><time>2017-9-18T23:49:49Z</time></trkpt>
<trkpt lat="48.407759" lon="2.622306"><ele></ele><time>2017-9-18T23:49:52Z</time></trkpt>
<trkpt lat="48.407802" lon="2.622169"><ele></ele><time>2017-9-18T23:49:55Z</time></trkpt>
<trkpt lat="48.407875" lon="2.622045"><ele></ele><time>2017-9-18T23:49:58Z</time></trkpt>
<trkpt lat="48.407954" lon="2.62195"><ele></ele><time>2017-9-18T23:50:1Z</time></trkpt>
<trkpt lat="48.407988" lon="2.621824"><ele></ele><time>2017-9-18T23:50:4Z</time></trkpt>
<trkpt lat="48.408026" lon="2.62164"><ele></ele><time>2017-9-18T23:50:7Z</time></trkpt>
<trkpt lat="48.408097" lon="2.621516"><ele></ele><time>2017-9-18T23:50:10Z</time></trkpt>
<trkpt lat="48.408135" lon="2.621365"><ele></ele><time>2017-9-18T23:50:13Z</time></trkpt>
<trkpt lat="48.408141" lon="2.621174"><ele></ele><time>2017-9-18T23:50:16Z</time></trkpt>
<trkpt lat="48.408123" lon="2.621026"><ele></ele><time>2017-9-18T23:50:19Z</time></trkpt>
<trkpt lat="48.408121" lon="2.620805"><ele></ele><time>2017-9-18T23:50:22Z</time></trkpt>
<trkpt lat="48.408127" lon="2.620632"><ele></ele><time>2017-9-18T23:50:25Z</time></trkpt>
<trkpt lat="48.40811" lon="2.620451"><ele></ele><time>2017-9-18T23:50:28Z</time></trkpt>
<trkpt lat="48.408109" lon="2.620312"><ele></ele><time>2017-9-18T23:50:31Z</time></trkpt>
<trkpt lat="48.408077" lon="2.620152"><ele></ele><time>2017-9-18T23:50:34Z</time></trkpt>
<trkpt lat="48.408067" lon="2.619938"><ele></ele><time>2017-9-18T23:50:37Z</time></trkpt>
<trkpt lat="48.408024" lon="2.619619"><ele></ele><time>2017-9-18T23:50:40Z</time></trkpt>
<trkpt lat="48.408033" lon="2.619406"><ele></ele><time>2017-9-18T23:50:43Z</time></trkpt>
<trkpt lat="48.408032" lon="2.619246"><ele></ele><time>2017-9-18T23:50:46Z</time></trkpt>
<trkpt lat="48.408021" lon="2.619101"><ele></ele><time>2017-9-18T23:50:49Z</time></trkpt>
<trkpt lat="48.407999" lon="2.618901"><ele></ele><time>2017-9-18T23:50:52Z</time></trkpt>
<trkpt lat="48.408021" lon="2.618689"><ele></ele><time>2017-9-18T23:50:55Z</time></trkpt>
<trkpt lat="48.408022" lon="2.618535"><ele></ele><time>2017-9-18T23:50:58Z</time></trkpt>
<trkpt lat="48.408036" lon="2.618393"><ele></ele><time>2017-9-18T23:51:1Z</time></trkpt>
<trkpt lat="48.408012" lon="2.618202"><ele></ele><time>2017-9-18T23:51:4Z</time></trkpt>
<trkpt lat="48.408131" lon="2.618185"><ele></ele><time>2017-9-18T23:51:7Z</time></trkpt>
<trkpt lat="48.408228" lon="2.618168"><ele></ele><time>2017-9-18T23:51:10Z</time></trkpt>
<trkpt lat="48.40816" lon="2.618072"><ele></ele><time>2017-9-18T23:51:13Z</time></trkpt>
<trkpt lat="48.408193" lon="2.617899"><ele></ele><time>2017-9-18T23:51:16Z</time></trkpt>
<trkpt lat="48.408205" lon="2.617698"><ele></ele><time>2017-9-18T23:51:19Z</time></trkpt>
<trkpt lat="48.40822" lon="2.61749"><ele></ele><time>2017-9-18T23:51:22Z</time></trkpt>
<trkpt lat="48.408257" lon="2.617331"><ele></ele><time>2017-9-18T23:51:25Z</time></trkpt>
<trkpt lat="48.408311" lon="2.616997"><ele></ele><time>2017-9-18T23:51:28Z</time></trkpt>
<trkpt lat="48.408338" lon="2.616848"><ele></ele><time>2017-9-18T23:51:31Z</time></trkpt>
<trkpt lat="48.408369" lon="2.616715"><ele></ele><time>2017-9-18T23:51:34Z</time></trkpt>
<trkpt lat="48.408365" lon="2.616543"><ele></ele><time>2017-9-18T23:51:37Z</time></trkpt>
<trkpt lat="48.408375" lon="2.616324"><ele></ele><time>2017-9-18T23:51:40Z</time></trkpt>
<trkpt lat="48.408381" lon="2.616174"><ele></ele><time>2017-9-18T23:51:43Z</time></trkpt>
<trkpt lat="48.408389" lon="2.616007"><ele></ele><time>2017-9-18T23:51:46Z</time></trkpt>
<trkpt lat="48.408418" lon="2.615833"><ele></ele><time>2017-9-18T23:51:49Z</time></trkpt>
<trkpt lat="48.40849" lon="2.615702"><ele></ele><time>2017-9-18T23:51:52Z</time></trkpt>
<trkpt lat="48.408592" lon="2.615616"><ele></ele><time>2017-9-18T23:51:55Z</time></trkpt>
<trkpt lat="48.408669" lon="2.61553"><ele></ele><time>2017-9-18T23:51:58Z</time></trkpt>
<trkpt lat="48.408751" lon="2.615428"><ele></ele><time>2017-9-18T23:52:1Z</time></trkpt>
<trkpt lat="48.408806" lon="2.615312"><ele></ele><time>2017-9-18T23:52:4Z</time></trkpt>
<trkpt lat="48.408918" lon="2.615166"><ele></ele><time>2017-9-18T23:52:7Z</time></trkpt>
<trkpt lat="48.408999" lon="2.615003"><ele></ele><time>2017-9-18T23:52:10Z</time></trkpt>
<trkpt lat="48.409033" lon="2.614869"><ele></ele><time>2017-9-18T23:52:13Z</time></trkpt>
<trkpt lat="48.409087" lon="2.614671"><ele></ele><time>2017-9-18T23:52:16Z</time></trkpt>
<trkpt lat="48.409136" lon="2.614528"><ele></ele><time>2017-9-18T23:52:19Z</time></trkpt>
<trkpt lat="48.409191" lon="2.614298"><ele></ele><time>2017-9-18T23:52:22Z</time></trkpt>
<trkpt lat="48.4092" lon="2.614133"><ele></ele><time>2017-9-18T23:52:25Z</time></trkpt>
<trkpt lat="48.409189" lon="2.613995"><ele></ele><time>2017-9-18T23:52:28Z</time></trkpt>
<trkpt lat="48.409179" lon="2.6138"><ele></ele><time>2017-9-18T23:52:31Z</time></trkpt>
<trkpt lat="48.409148" lon="2.613666"><ele></ele><time>2017-9-18T23:52:34Z</time></trkpt>
<trkpt lat="48.409117" lon="2.613332"><ele></ele><time>2017-9-18T23:52:37Z</time></trkpt>
<trkpt lat="48.409048" lon="2.613148"><ele></ele><time>2017-9-18T23:52:40Z</time></trkpt>
<trkpt lat="48.408985" lon="2.612973"><ele></ele><time>2017-9-18T23:52:43Z</time></trkpt>
<trkpt lat="48.408946" lon="2.612826"><ele></ele><time>2017-9-18T23:52:46Z</time></trkpt>
<trkpt lat="48.408929" lon="2.612654"><ele></ele><time>2017-9-18T23:52:49Z</time></trkpt>
<trkpt lat="48.408882" lon="2.612444"><ele></ele><time>2017-9-18T23:52:52Z</time></trkpt>
<trkpt lat="48.408864" lon="2.612284"><ele></ele><time>2017-9-18T23:52:55Z</time></trkpt>
<trkpt lat="48.408861" lon="2.612124"><ele></ele><time>2017-9-18T23:52:58Z</time></trkpt>
<trkpt lat="48.408787" lon="2.611947"><ele></ele><time>2017-9-18T23:53:1Z</time></trkpt>
<trkpt lat="48.408799" lon="2.6118"><ele></ele><time>2017-9-18T23:53:4Z</time></trkpt>
<trkpt lat="48.408768" lon="2.611638"><ele></ele><time>2017-9-18T23:53:7Z</time></trkpt>
<trkpt lat="48.408763" lon="2.611495"><ele></ele><time>2017-9-18T23:53:10Z</time></trkpt>
<trkpt lat="48.408781" lon="2.611332"><ele></ele><time>2017-9-18T23:53:13Z</time></trkpt>
<trkpt lat="48.408748" lon="2.611171"><ele></ele><time>2017-9-18T23:53:16Z</time></trkpt>
<trkpt lat="48.408744" lon="2.610981"><ele></ele><time>2017-9-18T23:53:19Z</time></trkpt>
<trkpt lat="48.408773" lon="2.610833"><ele></ele><time>2017-9-18T23:53:22Z</time></trkpt>
<trkpt lat="48.408804" lon="2.610694"><ele></ele><time>2017-9-18T23:53:25Z</time></trkpt>
<trkpt lat="48.40896" lon="2.610479"><ele></ele><time>2017-9-18T23:53:28Z</time></trkpt>
<trkpt lat="48.409035" lon="2.610319"><ele></ele><time>2017-9-18T23:53:31Z</time></trkpt>
<trkpt lat="48.409125" lon="2.610196"><ele></ele><time>2017-9-18T23:53:34Z</time></trkpt>
<trkpt lat="48.409202" lon="2.61011"><ele></ele><time>2017-9-18T23:53:37Z</time></trkpt>
<trkpt lat="48.40929" lon="2.610032"><ele></ele><time>2017-9-18T23:53:40Z</time></trkpt>
<trkpt lat="48.409358" lon="2.609901"><ele></ele><time>2017-9-18T23:53:43Z</time></trkpt>
<trkpt lat="48.409421" lon="2.609793"><ele></ele><time>2017-9-18T23:53:46Z</time></trkpt>
<trkpt lat="48.409534" lon="2.609737"><ele></ele><time>2017-9-18T23:53:49Z</time></trkpt>
<trkpt lat="48.409632" lon="2.609701"><ele></ele><time>2017-9-18T23:53:52Z</time></trkpt>
<trkpt lat="48.409743" lon="2.609724"><ele></ele><time>2017-9-18T23:53:55Z</time></trkpt>
<trkpt lat="48.409845" lon="2.609757"><ele></ele><time>2017-9-18T23:53:58Z</time></trkpt>
<trkpt lat="48.409941" lon="2.60979"><ele></ele><time>2017-9-18T23:54:1Z</time></trkpt>
<trkpt lat="48.410094" lon="2.609836"><ele></ele><time>2017-9-18T23:54:4Z</time></trkpt>
<trkpt lat="48.410226" lon="2.609851"><ele></ele><time>2017-9-18T23:54:7Z</time></trkpt>
<trkpt lat="48.410325" lon="2.609829"><ele></ele><time>2017-9-18T23:54:10Z</time></trkpt>
<trkpt lat="48.410423" lon="2.609817"><ele></ele><time>2017-9-18T23:54:13Z</time></trkpt>
<trkpt lat="48.410756" lon="2.609758"><ele></ele><time>2017-9-18T23:54:16Z</time></trkpt>
<trkpt lat="48.410856" lon="2.609722"><ele></ele><time>2017-9-18T23:54:19Z</time></trkpt>
<trkpt lat="48.411023" lon="2.60968"><ele></ele><time>2017-9-18T23:54:22Z</time></trkpt>
<trkpt lat="48.411147" lon="2.609794"><ele></ele><time>2017-9-18T23:54:25Z</time></trkpt>
<trkpt lat="48.411203" lon="2.609939"><ele></ele><time>2017-9-18T23:54:28Z</time></trkpt>
<trkpt lat="48.411235" lon="2.610081"><ele></ele><time>2017-9-18T23:54:31Z</time></trkpt>
<trkpt lat="48.41127" lon="2.610251"><ele></ele><time>2017-9-18T23:54:34Z</time></trkpt>
<trkpt lat="48.411275" lon="2.610411"><ele></ele><time>2017-9-18T23:54:37Z</time></trkpt>
<trkpt lat="48.411271" lon="2.610579"><ele></ele><time>2017-9-18T23:54:40Z</time></trkpt>
<trkpt lat="48.411255" lon="2.610799"><ele></ele><time>2017-9-18T23:54:43Z</time></trkpt>
<trkpt lat="48.411291" lon="2.611004"><ele></ele><time>2017-9-18T23:54:46Z</time></trkpt>
<trkpt lat="48.411306" lon="2.611211"><ele></ele><time>2017-9-18T23:54:49Z</time></trkpt>
<trkpt lat="48.411321" lon="2.611375"><ele></ele><time>2017-9-18T23:54:52Z</time></trkpt>
<trkpt lat="48.411327" lon="2.611553"><ele></ele><time>2017-9-18T23:54:55Z</time></trkpt>
<trkpt lat="48.411368" lon="2.611774"><ele></ele><time>2017-9-18T23:54:58Z</time></trkpt>
<trkpt lat="48.411329" lon="2.611994"><ele></ele><time>2017-9-18T23:55:1Z</time></trkpt>
<trkpt lat="48.411335" lon="2.612174"><ele></ele><time>2017-9-18T23:55:4Z</time></trkpt>
<trkpt lat="48.411416" lon="2.612437"><ele></ele><time>2017-9-18T23:55:7Z</time></trkpt>
<trkpt lat="48.411449" lon="2.612564"><ele></ele><time>2017-9-18T23:55:10Z</time></trkpt>
<trkpt lat="48.411472" lon="2.61272"><ele></ele><time>2017-9-18T23:55:13Z</time></trkpt>
<trkpt lat="48.41146" lon="2.612925"><ele></ele><time>2017-9-18T23:55:16Z</time></trkpt>
<trkpt lat="48.411477" lon="2.613082"><ele></ele><time>2017-9-18T23:55:19Z</time></trkpt>
<trkpt lat="48.411496" lon="2.613244"><ele></ele><time>2017-9-18T23:55:22Z</time></trkpt>
<trkpt lat="48.411514" lon="2.613388"><ele></ele><time>2017-9-18T23:55:25Z</time></trkpt>
<trkpt lat="48.411543" lon="2.613548"><ele></ele><time>2017-9-18T23:55:28Z</time></trkpt>
<trkpt lat="48.411557" lon="2.613703"><ele></ele><time>2017-9-18T23:55:31Z</time></trkpt>
<trkpt lat="48.411585" lon="2.613882"><ele></ele><time>2017-9-18T23:55:34Z</time></trkpt>
<trkpt lat="48.411578" lon="2.61402"><ele></ele><time>2017-9-18T23:55:37Z</time></trkpt>
<trkpt lat="48.411603" lon="2.614211"><ele></ele><time>2017-9-18T23:55:40Z</time></trkpt>
<trkpt lat="48.411605" lon="2.614351"><ele></ele><time>2017-9-18T23:55:43Z</time></trkpt>
<trkpt lat="48.411669" lon="2.614521"><ele></ele><time>2017-9-18T23:55:46Z</time></trkpt>
<trkpt lat="48.411656" lon="2.614729"><ele></ele><time>2017-9-18T23:55:49Z</time></trkpt>
<trkpt lat="48.411638" lon="2.614904"><ele></ele><time>2017-9-18T23:55:52Z</time></trkpt>
<trkpt lat="48.411588" lon="2.615062"><ele></ele><time>2017-9-18T23:55:55Z</time></trkpt>
<trkpt lat="48.411543" lon="2.615224"><ele></ele><time>2017-9-18T23:55:58Z</time></trkpt>
<trkpt lat="48.411465" lon="2.615541"><ele></ele><time>2017-9-18T23:56:1Z</time></trkpt>
<trkpt lat="48.411473" lon="2.615691"><ele></ele><time>2017-9-18T23:56:4Z</time></trkpt>
<trkpt lat="48.411406" lon="2.61581"><ele></ele><time>2017-9-18T23:56:7Z</time></trkpt>
<trkpt lat="48.411395" lon="2.615975"><ele></ele><time>2017-9-18T23:56:10Z</time></trkpt>
<trkpt lat="48.41134" lon="2.616152"><ele></ele><time>2017-9-18T23:56:13Z</time></trkpt>
<trkpt lat="48.411306" lon="2.616309"><ele></ele><time>2017-9-18T23:56:16Z</time></trkpt>
<trkpt lat="48.41123" lon="2.616465"><ele></ele><time>2017-9-18T23:56:19Z</time></trkpt>
<trkpt lat="48.411218" lon="2.616661"><ele></ele><time>2017-9-18T23:56:22Z</time></trkpt>
<trkpt lat="48.411162" lon="2.616792"><ele></ele><time>2017-9-18T23:56:25Z</time></trkpt>
<trkpt lat="48.41115" lon="2.616929"><ele></ele><time>2017-9-18T23:56:28Z</time></trkpt>
<trkpt lat="48.411159" lon="2.617104"><ele></ele><time>2017-9-18T23:56:31Z</time></trkpt>
<trkpt lat="48.411113" lon="2.617239"><ele></ele><time>2017-9-18T23:56:34Z</time></trkpt>
<trkpt lat="48.411098" lon="2.617395"><ele></ele><time>2017-9-18T23:56:37Z</time></trkpt>
<trkpt lat="48.411033" lon="2.617591"><ele></ele><time>2017-9-18T23:56:40Z</time></trkpt>
<trkpt lat="48.41106" lon="2.61773"><ele></ele><time>2017-9-18T23:56:43Z</time></trkpt>
<trkpt lat="48.410982" lon="2.618057"><ele></ele><time>2017-9-18T23:56:46Z</time></trkpt>
<trkpt lat="48.410931" lon="2.618199"><ele></ele><time>2017-9-18T23:56:49Z</time></trkpt>
<trkpt lat="48.410932" lon="2.618339"><ele></ele><time>2017-9-18T23:56:52Z</time></trkpt>
<trkpt lat="48.410936" lon="2.618492"><ele></ele><time>2017-9-18T23:56:55Z</time></trkpt>
<trkpt lat="48.410883" lon="2.618606"><ele></ele><time>2017-9-18T23:56:58Z</time></trkpt>
<trkpt lat="48.410827" lon="2.618813"><ele></ele><time>2017-9-18T23:57:1Z</time></trkpt>
<trkpt lat="48.410804" lon="2.618968"><ele></ele><time>2017-9-18T23:57:4Z</time></trkpt>
<trkpt lat="48.410852" lon="2.619136"><ele></ele><time>2017-9-18T23:57:7Z</time></trkpt>
<trkpt lat="48.410841" lon="2.619271"><ele></ele><time>2017-9-18T23:57:10Z</time></trkpt>
<trkpt lat="48.410782" lon="2.619384"><ele></ele><time>2017-9-18T23:57:13Z</time></trkpt>
<trkpt lat="48.410762" lon="2.619542"><ele></ele><time>2017-9-18T23:57:16Z</time></trkpt>
<trkpt lat="48.410756" lon="2.619678"><ele></ele><time>2017-9-18T23:57:19Z</time></trkpt>
<trkpt lat="48.410706" lon="2.6198"><ele></ele><time>2017-9-18T23:57:22Z</time></trkpt>
<trkpt lat="48.410705" lon="2.619998"><ele></ele><time>2017-9-18T23:57:25Z</time></trkpt>
<trkpt lat="48.410708" lon="2.620376"><ele></ele><time>2017-9-18T23:57:28Z</time></trkpt>
<trkpt lat="48.410677" lon="2.620533"><ele></ele><time>2017-9-18T23:57:31Z</time></trkpt>
<trkpt lat="48.410641" lon="2.62069"><ele></ele><time>2017-9-18T23:57:34Z</time></trkpt>
<trkpt lat="48.410607" lon="2.620842"><ele></ele><time>2017-9-18T23:57:37Z</time></trkpt>
<trkpt lat="48.410572" lon="2.62105"><ele></ele><time>2017-9-18T23:57:40Z</time></trkpt>
<trkpt lat="48.410536" lon="2.621203"><ele></ele><time>2017-9-18T23:57:43Z</time></trkpt>
<trkpt lat="48.410499" lon="2.621355"><ele></ele><time>2017-9-18T23:57:46Z</time></trkpt>
<trkpt lat="48.410486" lon="2.621514"><ele></ele><time>2017-9-18T23:57:49Z</time></trkpt>
<trkpt lat="48.41053" lon="2.621648"><ele></ele><time>2017-9-18T23:57:52Z</time></trkpt>
<trkpt lat="48.410524" lon="2.621789"><ele></ele><time>2017-9-18T23:57:55Z</time></trkpt>
<trkpt lat="48.410572" lon="2.622056"><ele></ele><time>2017-9-18T23:57:58Z</time></trkpt>
<trkpt lat="48.410592" lon="2.622215"><ele></ele><time>2017-9-18T23:58:1Z</time></trkpt>
<trkpt lat="48.410581" lon="2.622378"><ele></ele><time>2017-9-18T23:58:4Z</time></trkpt>
<trkpt lat="48.410567" lon="2.622513"><ele></ele><time>2017-9-18T23:58:7Z</time></trkpt>
<trkpt lat="48.410575" lon="2.622663"><ele></ele><time>2017-9-18T23:58:10Z</time></trkpt>
<trkpt lat="48.410602" lon="2.622806"><ele></ele><time>2017-9-18T23:58:13Z</time></trkpt>
<trkpt lat="48.410605" lon="2.622949"><ele></ele><time>2017-9-18T23:58:16Z</time></trkpt>
<trkpt lat="48.410563" lon="2.623094"><ele></ele><time>2017-9-18T23:58:19Z</time></trkpt>
<trkpt lat="48.410568" lon="2.623268"><ele></ele><time>2017-9-18T23:58:22Z</time></trkpt>
<trkpt lat="48.410531" lon="2.623398"><ele></ele><time>2017-9-18T23:58:25Z</time></trkpt>
<trkpt lat="48.410474" lon="2.623521"><ele></ele><time>2017-9-18T23:58:28Z</time></trkpt>
<trkpt lat="48.410354" lon="2.623789"><ele></ele><time>2017-9-18T23:58:31Z</time></trkpt>
<trkpt lat="48.410267" lon="2.623931"><ele></ele><time>2017-9-18T23:58:34Z</time></trkpt>
<trkpt lat="48.410206" lon="2.624084"><ele></ele><time>2017-9-18T23:58:37Z</time></trkpt>
<trkpt lat="48.410142" lon="2.624224"><ele></ele><time>2017-9-18T23:58:40Z</time></trkpt>
<trkpt lat="48.410123" lon="2.624367"><ele></ele><time>2017-9-18T23:58:43Z</time></trkpt>
<trkpt lat="48.410092" lon="2.624534"><ele></ele><time>2017-9-18T23:58:46Z</time></trkpt>
<trkpt lat="48.410016" lon="2.624605"><ele></ele><time>2017-9-18T23:58:49Z</time></trkpt>
<trkpt lat="48.409921" lon="2.624729"><ele></ele><time>2017-9-18T23:58:52Z</time></trkpt>
<trkpt lat="48.409866" lon="2.624866"><ele></ele><time>2017-9-18T23:58:55Z</time></trkpt>
<trkpt lat="48.409834" lon="2.625008"><ele></ele><time>2017-9-18T23:58:58Z</time></trkpt>
<trkpt lat="48.409758" lon="2.625115"><ele></ele><time>2017-9-18T23:59:1Z</time></trkpt>
<trkpt lat="48.409692" lon="2.625413"><ele></ele><time>2017-9-18T23:59:4Z</time></trkpt>
<trkpt lat="48.409666" lon="2.625575"><ele></ele><time>2017-9-18T23:59:7Z</time></trkpt>
<trkpt lat="48.409681" lon="2.625713"><ele></ele><time>2017-9-18T23:59:10Z</time></trkpt>
<trkpt lat="48.409672" lon="2.62592"><ele></ele><time>2017-9-18T23:59:13Z</time></trkpt>
<trkpt lat="48.409639" lon="2.626103"><ele></ele><time>2017-9-18T23:59:16Z</time></trkpt>
<trkpt lat="48.409598" lon="2.626316"><ele></ele><time>2017-9-18T23:59:19Z</time></trkpt>
<trkpt lat="48.409576" lon="2.626471"><ele></ele><time>2017-9-18T23:59:22Z</time></trkpt>
<trkpt lat="48.409579" lon="2.626611"><ele></ele><time>2017-9-18T23:59:25Z</time></trkpt>
<trkpt lat="48.409581" lon="2.626794"><ele></ele><time>2017-9-18T23:59:28Z</time></trkpt>
<trkpt lat="48.40958" lon="2.626964"><ele></ele><time>2017-9-18T23:59:31Z</time></trkpt>
<trkpt lat="48.409596" lon="2.627099"><ele></ele><time>2017-9-18T23:59:34Z</time></trkpt>
<trkpt lat="48.409597" lon="2.627283"><ele></ele><time>2017-9-18T23:59:37Z</time></trkpt>
<trkpt lat="48.40963" lon="2.627434"><ele></ele><time>2017-9-18T23:59:40Z</time></trkpt>
<trkpt lat="48.409658" lon="2.627598"><ele></ele><time>2017-9-18T23:59:43Z</time></trkpt>
<trkpt lat="48.409689" lon="2.627779"><ele></ele><time>2017-9-18T23:59:46Z</time></trkpt>
<trkpt lat="48.409733" lon="2.627989"><ele></ele><time>2017-9-18T23:59:49Z</time></trkpt>
<trkpt lat="48.409761" lon="2.628312"><ele></ele><time>2017-9-18T23:59:52Z</time></trkpt>
<trkpt lat="48.409808" lon="2.628457"><ele></ele><time>2017-9-18T23:59:55Z</time></trkpt>
<trkpt lat="48.409832" lon="2.628591"><ele></ele><time>2017-9-18T23:59:58Z</time></trkpt>
<trkpt lat="48.409878" lon="2.628727"><ele></ele><time>2017-9-19T0:0:1Z</time></trkpt>
<trkpt lat="48.409888" lon="2.628885"><ele></ele><time>2017-9-19T0:0:4Z</time></trkpt>
<trkpt lat="48.409907" lon="2.629022"><ele></ele><time>2017-9-19T0:0:7Z</time></trkpt>
<trkpt lat="48.409915" lon="2.629203"><ele></ele><time>2017-9-19T0:0:10Z</time></trkpt>
<trkpt lat="48.409934" lon="2.629344"><ele></ele><time>2017-9-19T0:0:13Z</time></trkpt>
<trkpt lat="48.409959" lon="2.62949"><ele></ele><time>2017-9-19T0:0:16Z</time></trkpt>
<trkpt lat="48.410011" lon="2.629642"><ele></ele><time>2017-9-19T0:0:19Z</time></trkpt>
<trkpt lat="48.410071" lon="2.629759"><ele></ele><time>2017-9-19T0:0:22Z</time></trkpt>
<trkpt lat="48.410098" lon="2.629903"><ele></ele><time>2017-9-19T0:0:25Z</time></trkpt>
<trkpt lat="48.410114" lon="2.630088"><ele></ele><time>2017-9-19T0:0:28Z</time></trkpt>
<trkpt lat="48.410148" lon="2.630235"><ele></ele><time>2017-9-19T0:0:31Z</time></trkpt>
<trkpt lat="48.410152" lon="2.630543"><ele></ele><time>2017-9-19T0:0:34Z</time></trkpt>
<trkpt lat="48.410106" lon="2.630682"><ele></ele><time>2017-9-19T0:0:37Z</time></trkpt>
<trkpt lat="48.410048" lon="2.630867"><ele></ele><time>2017-9-19T0:0:40Z</time></trkpt>
<trkpt lat="48.410022" lon="2.631002"><ele></ele><time>2017-9-19T0:0:43Z</time></trkpt>
<trkpt lat="48.410004" lon="2.631162"><ele></ele><time>2017-9-19T0:0:46Z</time></trkpt>
<trkpt lat="48.40995" lon="2.631307"><ele></ele><time>2017-9-19T0:0:49Z</time></trkpt>
<trkpt lat="48.409916" lon="2.631439"><ele></ele><time>2017-9-19T0:0:52Z</time></trkpt>
<trkpt lat="48.409843" lon="2.631656"><ele></ele><time>2017-9-19T0:0:55Z</time></trkpt>
<trkpt lat="48.409834" lon="2.631801"><ele></ele><time>2017-9-19T0:0:58Z</time></trkpt>
<trkpt lat="48.409813" lon="2.63197"><ele></ele><time>2017-9-19T0:1:1Z</time></trkpt>
<trkpt lat="48.409773" lon="2.632111"><ele></ele><time>2017-9-19T0:1:4Z</time></trkpt>
<trkpt lat="48.409725" lon="2.632244"><ele></ele><time>2017-9-19T0:1:7Z</time></trkpt>
<trkpt lat="48.409676" lon="2.632406"><ele></ele><time>2017-9-19T0:1:10Z</time></trkpt>
<trkpt lat="48.409627" lon="2.632592"><ele></ele><time>2017-9-19T0:1:13Z</time></trkpt>
<trkpt lat="48.409567" lon="2.632784"><ele></ele><time>2017-9-19T0:1:16Z</time></trkpt>
<trkpt lat="48.409547" lon="2.632994"><ele></ele><time>2017-9-19T0:1:19Z</time></trkpt>
<trkpt lat="48.409761" lon="2.632954"><ele></ele><time>2017-9-19T0:1:22Z</time></trkpt>
<trkpt lat="48.409901" lon="2.632931"><ele></ele><time>2017-9-19T0:1:25Z</time></trkpt>
<trkpt lat="48.409993" lon="2.632939"><ele></ele><time>2017-9-19T0:1:28Z</time></trkpt>
<trkpt lat="48.410085" lon="2.632931"><ele></ele><time>2017-9-19T0:1:31Z</time></trkpt>
<trkpt lat="48.410197" lon="2.632915"><ele></ele><time>2017-9-19T0:1:34Z</time></trkpt>
<trkpt lat="48.410334" lon="2.632911"><ele></ele><time>2017-9-19T0:1:37Z</time></trkpt>
<trkpt lat="48.410428" lon="2.63291"><ele></ele><time>2017-9-19T0:1:40Z</time></trkpt>
<trkpt lat="48.410521" lon="2.63286"><ele></ele><time>2017-9-19T0:1:43Z</time></trkpt>
<trkpt lat="48.410635" lon="2.632832"><ele></ele><time>2017-9-19T0:1:46Z</time></trkpt>
<trkpt lat="48.410737" lon="2.632835"><ele></ele><time>2017-9-19T0:1:49Z</time></trkpt>
<trkpt lat="48.410858" lon="2.632826"><ele></ele><time>2017-9-19T0:1:52Z</time></trkpt>
<trkpt lat="48.41099" lon="2.632789"><ele></ele><time>2017-9-19T0:1:55Z</time></trkpt>
<trkpt lat="48.411092" lon="2.632754"><ele></ele><time>2017-9-19T0:1:58Z</time></trkpt>
<trkpt lat="48.411331" lon="2.632723"><ele></ele><time>2017-9-19T0:2:1Z</time></trkpt>
<trkpt lat="48.411431" lon="2.632688"><ele></ele><time>2017-9-19T0:2:4Z</time></trkpt>
<trkpt lat="48.411551" lon="2.632669"><ele></ele><time>2017-9-19T0:2:7Z</time></trkpt>
<trkpt lat="48.411666" lon="2.632662"><ele></ele><time>2017-9-19T0:2:10Z</time></trkpt>
<trkpt lat="48.411799" lon="2.632656"><ele></ele><time>2017-9-19T0:2:13Z</time></trkpt>
<trkpt lat="48.411889" lon="2.632668"><ele></ele><time>2017-9-19T0:2:16Z</time></trkpt>
<trkpt lat="48.411993" lon="2.632653"><ele></ele><time>2017-9-19T0:2:19Z</time></trkpt>
<trkpt lat="48.412121" lon="2.632626"><ele></ele><time>2017-9-19T0:2:22Z</time></trkpt>
<trkpt lat="48.412252" lon="2.632573"><ele></ele><time>2017-9-19T0:2:25Z</time></trkpt>
<trkpt lat="48.412351" lon="2.632558"><ele></ele><time>2017-9-19T0:2:28Z</time></trkpt>
<trkpt lat="48.412457" lon="2.632542"><ele></ele><time>2017-9-19T0:2:31Z</time></trkpt>
<trkpt lat="48.412578" lon="2.632539"><ele></ele><time>2017-9-19T0:2:34Z</time></trkpt>
<trkpt lat="48.412702" lon="2.632521"><ele></ele><time>2017-9-19T0:2:37Z</time></trkpt>
<trkpt lat="48.412859" lon="2.632462"><ele></ele><time>2017-9-19T0:2:40Z</time></trkpt>
<trkpt lat="48.412955" lon="2.63243"><ele></ele><time>2017-9-19T0:2:43Z</time></trkpt>
<trkpt lat="48.413064" lon="2.632394"><ele></ele><time>2017-9-19T0:2:46Z</time></trkpt>
<trkpt lat="48.413178" lon="2.632371"><ele></ele><time>2017-9-19T0:2:49Z</time></trkpt>
<trkpt lat="48.413269" lon="2.632346"><ele></ele><time>2017-9-19T0:2:52Z</time></trkpt>
<trkpt lat="48.413357" lon="2.632294"><ele></ele><time>2017-9-19T0:2:55Z</time></trkpt>
<trkpt lat="48.413761" lon="2.632369"><ele></ele><time>2017-9-19T0:2:58Z</time></trkpt>
<trkpt lat="48.413867" lon="2.632311"><ele></ele><time>2017-9-19T0:3:1Z</time></trkpt>
<trkpt lat="48.414011" lon="2.632278"><ele></ele><time>2017-9-19T0:3:4Z</time></trkpt>
<trkpt lat="48.414149" lon="2.632234"><ele></ele><time>2017-9-19T0:3:7Z</time></trkpt>
<trkpt lat="48.414256" lon="2.63217"><ele></ele><time>2017-9-19T0:3:10Z</time></trkpt>
<trkpt lat="48.414389" lon="2.632141"><ele></ele><time>2017-9-19T0:3:13Z</time></trkpt>
<trkpt lat="48.414524" lon="2.632099"><ele></ele><time>2017-9-19T0:3:16Z</time></trkpt>
<trkpt lat="48.414642" lon="2.632131"><ele></ele><time>2017-9-19T0:3:19Z</time></trkpt>
<trkpt lat="48.414745" lon="2.63213"><ele></ele><time>2017-9-19T0:3:22Z</time></trkpt>
<trkpt lat="48.414854" lon="2.632095"><ele></ele><time>2017-9-19T0:3:25Z</time></trkpt>
<trkpt lat="48.41501" lon="2.632056"><ele></ele><time>2017-9-19T0:3:28Z</time></trkpt>
<trkpt lat="48.415106" lon="2.632018"><ele></ele><time>2017-9-19T0:3:31Z</time></trkpt>
<trkpt lat="48.415199" lon="2.632"><ele></ele><time>2017-9-19T0:3:34Z</time></trkpt>
<trkpt lat="48.415297" lon="2.632009"><ele></ele><time>2017-9-19T0:3:37Z</time></trkpt>
<trkpt lat="48.415396" lon="2.631947"><ele></ele><time>2017-9-19T0:3:40Z</time></trkpt>
<trkpt lat="48.415489" lon="2.631945"><ele></ele><time>2017-9-19T0:3:43Z</time></trkpt>
<trkpt lat="48.415584" lon="2.631915"><ele></ele><time>2017-9-19T0:3:46Z</time></trkpt>
<trkpt lat="48.41577" lon="2.631858"><ele></ele><time>2017-9-19T0:3:49Z</time></trkpt>
<trkpt lat="48.415867" lon="2.631881"><ele></ele><time>2017-9-19T0:3:52Z</time></trkpt>
<trkpt lat="48.415983" lon="2.631862"><ele></ele><time>2017-9-19T0:3:55Z</time></trkpt>
<trkpt lat="48.416091" lon="2.631808"><ele></ele><time>2017-9-19T0:3:58Z</time></trkpt>
<trkpt lat="48.416185" lon="2.631802"><ele></ele><time>2017-9-19T0:4:1Z</time></trkpt>
<trkpt lat="48.416332" lon="2.631814"><ele></ele><time>2017-9-19T0:4:4Z</time></trkpt>
<trkpt lat="48.416433" lon="2.631731"><ele></ele><time>2017-9-19T0:4:7Z</time></trkpt>
<trkpt lat="48.416543" lon="2.631718"><ele></ele><time>2017-9-19T0:4:10Z</time></trkpt>
<trkpt lat="48.416649" lon="2.631704"><ele></ele><time>2017-9-19T0:4:13Z</time></trkpt>
<trkpt lat="48.416837" lon="2.631744"><ele></ele><time>2017-9-19T0:4:16Z</time></trkpt>
<trkpt lat="48.416929" lon="2.631759"><ele></ele><time>2017-9-19T0:4:19Z</time></trkpt>
<trkpt lat="48.417066" lon="2.631705"><ele></ele><time>2017-9-19T0:4:22Z</time></trkpt>
<trkpt lat="48.417164" lon="2.631675"><ele></ele><time>2017-9-19T0:4:25Z</time></trkpt>
<trkpt lat="48.417258" lon="2.631644"><ele></ele><time>2017-9-19T0:4:28Z</time></trkpt>
<trkpt lat="48.417383" lon="2.63163"><ele></ele><time>2017-9-19T0:4:31Z</time></trkpt>
<trkpt lat="48.417487" lon="2.631644"><ele></ele><time>2017-9-19T0:4:34Z</time></trkpt>
<trkpt lat="48.417585" lon="2.631618"><ele></ele><time>2017-9-19T0:4:37Z</time></trkpt>
<trkpt lat="48.417697" lon="2.631591"><ele></ele><time>2017-9-19T0:4:40Z</time></trkpt>
<trkpt lat="48.41781" lon="2.631542"><ele></ele><time>2017-9-19T0:4:43Z</time></trkpt>
<trkpt lat="48.417949" lon="2.631535"><ele></ele><time>2017-9-19T0:4:46Z</time></trkpt>
<trkpt lat="48.418067" lon="2.631544"><ele></ele><time>2017-9-19T0:4:49Z</time></trkpt>
<trkpt lat="48.41817" lon="2.63152"><ele></ele><time>2017-9-19T0:4:52Z</time></trkpt>
<trkpt lat="48.418311" lon="2.631509"><ele></ele><time>2017-9-19T0:4:55Z</time></trkpt>
<trkpt lat="48.41841" lon="2.631507"><ele></ele><time>2017-9-19T0:4:58Z</time></trkpt>
<trkpt lat="48.418513" lon="2.631486"><ele></ele><time>2017-9-19T0:5:1Z</time></trkpt>
<trkpt lat="48.418735" lon="2.631374"><ele></ele><time>2017-9-19T0:5:4Z</time></trkpt>
<trkpt lat="48.418865" lon="2.631353"><ele></ele><time>2017-9-19T0:5:7Z</time></trkpt>
<trkpt lat="48.419045" lon="2.631327"><ele></ele><time>2017-9-19T0:5:10Z</time></trkpt>
<trkpt lat="48.419163" lon="2.631292"><ele></ele><time>2017-9-19T0:5:13Z</time></trkpt>
<trkpt lat="48.419307" lon="2.631282"><ele></ele><time>2017-9-19T0:5:16Z</time></trkpt>
<trkpt lat="48.419496" lon="2.631277"><ele></ele><time>2017-9-19T0:5:19Z</time></trkpt>
<trkpt lat="48.41961" lon="2.631254"><ele></ele><time>2017-9-19T0:5:22Z</time></trkpt>
<trkpt lat="48.419711" lon="2.631263"><ele></ele><time>2017-9-19T0:5:25Z</time></trkpt>
<trkpt lat="48.419844" lon="2.631233"><ele></ele><time>2017-9-19T0:5:28Z</time></trkpt>
<trkpt lat="48.419959" lon="2.631199"><ele></ele><time>2017-9-19T0:5:31Z</time></trkpt>
<trkpt lat="48.42006" lon="2.631159"><ele></ele><time>2017-9-19T0:5:34Z</time></trkpt>
<trkpt lat="48.420247" lon="2.631093"><ele></ele><time>2017-9-19T0:5:37Z</time></trkpt>
<trkpt lat="48.420345" lon="2.631066"><ele></ele><time>2017-9-19T0:5:40Z</time></trkpt>
<trkpt lat="48.420491" lon="2.63105"><ele></ele><time>2017-9-19T0:5:43Z</time></trkpt>
<trkpt lat="48.420599" lon="2.631046"><ele></ele><time>2017-9-19T0:5:46Z</time></trkpt>
<trkpt lat="48.420717" lon="2.631033"><ele></ele><time>2017-9-19T0:5:49Z</time></trkpt>
<trkpt lat="48.420851" lon="2.631002"><ele></ele><time>2017-9-19T0:5:52Z</time></trkpt>
<trkpt lat="48.420978" lon="2.630992"><ele></ele><time>2017-9-19T0:5:55Z</time></trkpt>
<trkpt lat="48.421079" lon="2.631002"><ele></ele><time>2017-9-19T0:5:58Z</time></trkpt>
<trkpt lat="48.421221" lon="2.630958"><ele></ele><time>2017-9-19T0:6:1Z</time></trkpt>
<trkpt lat="48.42138" lon="2.630972"><ele></ele><time>2017-9-19T0:6:4Z</time></trkpt>
<trkpt lat="48.421472" lon="2.630958"><ele></ele><time>2017-9-19T0:6:7Z</time></trkpt>
<trkpt lat="48.421565" lon="2.630909"><ele></ele><time>2017-9-19T0:6:10Z</time></trkpt>
<trkpt lat="48.421663" lon="2.63089"><ele></ele><time>2017-9-19T0:6:13Z</time></trkpt>
<trkpt lat="48.421797" lon="2.630896"><ele></ele><time>2017-9-19T0:6:16Z</time></trkpt>
<trkpt lat="48.421893" lon="2.630859"><ele></ele><time>2017-9-19T0:6:19Z</time></trkpt>
<trkpt lat="48.422105" lon="2.63085"><ele></ele><time>2017-9-19T0:6:22Z</time></trkpt>
<trkpt lat="48.422207" lon="2.630827"><ele></ele><time>2017-9-19T0:6:25Z</time></trkpt>
<trkpt lat="48.422315" lon="2.630816"><ele></ele><time>2017-9-19T0:6:28Z</time></trkpt>
<trkpt lat="48.422433" lon="2.630814"><ele></ele><time>2017-9-19T0:6:31Z</time></trkpt>
<trkpt lat="48.422538" lon="2.630785"><ele></ele><time>2017-9-19T0:6:34Z</time></trkpt>
<trkpt lat="48.422629" lon="2.630747"><ele></ele><time>2017-9-19T0:6:37Z</time></trkpt>
<trkpt lat="48.422727" lon="2.630691"><ele></ele><time>2017-9-19T0:6:40Z</time></trkpt>
<trkpt lat="48.422822" lon="2.630681"><ele></ele><time>2017-9-19T0:6:43Z</time></trkpt>
<trkpt lat="48.422916" lon="2.630621"><ele></ele><time>2017-9-19T0:6:46Z</time></trkpt>
<trkpt lat="48.423009" lon="2.630612"><ele></ele><time>2017-9-19T0:6:49Z</time></trkpt>
<trkpt lat="48.423134" lon="2.630556"><ele></ele><time>2017-9-19T0:6:52Z</time></trkpt>
<trkpt lat="48.423242" lon="2.630578"><ele></ele><time>2017-9-19T0:6:55Z</time></trkpt>
<trkpt lat="48.423346" lon="2.630542"><ele></ele><time>2017-9-19T0:6:58Z</time></trkpt>
<trkpt lat="48.423438" lon="2.630482"><ele></ele><time>2017-9-19T0:7:1Z</time></trkpt>
<trkpt lat="48.42367" lon="2.630437"><ele></ele><time>2017-9-19T0:7:4Z</time></trkpt>
<trkpt lat="48.423775" lon="2.630371"><ele></ele><time>2017-9-19T0:7:7Z</time></trkpt>
<trkpt lat="48.423853" lon="2.630439"><ele></ele><time>2017-9-19T0:7:10Z</time></trkpt>
<trkpt lat="48.423958" lon="2.630415"><ele></ele><time>2017-9-19T0:7:13Z</time></trkpt>
<trkpt lat="48.424058" lon="2.630385"><ele></ele><time>2017-9-19T0:7:16Z</time></trkpt>
<trkpt lat="48.42415" lon="2.630329"><ele></ele><time>2017-9-19T0:7:19Z</time></trkpt>
<trkpt lat="48.42425" lon="2.630354"><ele></ele><time>2017-9-19T0:7:22Z</time></trkpt>
<trkpt lat="48.424473" lon="2.630331"><ele></ele><time>2017-9-19T0:7:25Z</time></trkpt>
<trkpt lat="48.424575" lon="2.630384"><ele></ele><time>2017-9-19T0:7:28Z</time></trkpt>
<trkpt lat="48.424671" lon="2.630343"><ele></ele><time>2017-9-19T0:7:31Z</time></trkpt>
<trkpt lat="48.424773" lon="2.630303"><ele></ele><time>2017-9-19T0:7:34Z</time></trkpt>
<trkpt lat="48.424867" lon="2.630273"><ele></ele><time>2017-9-19T0:7:37Z</time></trkpt>
<trkpt lat="48.425029" lon="2.630178"><ele></ele><time>2017-9-19T0:7:40Z</time></trkpt>
<trkpt lat="48.425122" lon="2.630178"><ele></ele><time>2017-9-19T0:7:43Z</time></trkpt>
<trkpt lat="48.425215" lon="2.630212"><ele></ele><time>2017-9-19T0:7:46Z</time></trkpt>
<trkpt lat="48.425305" lon="2.630185"><ele></ele><time>2017-9-19T0:7:49Z</time></trkpt>
<trkpt lat="48.425396" lon="2.630162"><ele></ele><time>2017-9-19T0:7:52Z</time></trkpt>
<trkpt lat="48.425501" lon="2.630154"><ele></ele><time>2017-9-19T0:7:55Z</time></trkpt>
<trkpt lat="48.425592" lon="2.630126"><ele></ele><time>2017-9-19T0:7:58Z</time></trkpt>
<trkpt lat="48.425697" lon="2.63011"><ele></ele><time>2017-9-19T0:8:1Z</time></trkpt>
<trkpt lat="48.42579" lon="2.630081"><ele></ele><time>2017-9-19T0:8:4Z</time></trkpt>
<trkpt lat="48.426014" lon="2.630071"><ele></ele><time>2017-9-19T0:8:7Z</time></trkpt>
<trkpt lat="48.426103" lon="2.63005"><ele></ele><time>2017-9-19T0:8:10Z</time></trkpt>
<trkpt lat="48.426192" lon="2.630001"><ele></ele><time>2017-9-19T0:8:13Z</time></trkpt>
<trkpt lat="48.426291" lon="2.630025"><ele></ele><time>2017-9-19T0:8:16Z</time></trkpt>
<trkpt lat="48.426383" lon="2.629993"><ele></ele><time>2017-9-19T0:8:19Z</time></trkpt>
<trkpt lat="48.426476" lon="2.629948"><ele></ele><time>2017-9-19T0:8:22Z</time></trkpt>
<trkpt lat="48.426578" lon="2.629912"><ele></ele><time>2017-9-19T0:8:25Z</time></trkpt>
<trkpt lat="48.426675" lon="2.629921"><ele></ele><time>2017-9-19T0:8:28Z</time></trkpt>
<trkpt lat="48.426768" lon="2.629862"><ele></ele><time>2017-9-19T0:8:31Z</time></trkpt>
<trkpt lat="48.426886" lon="2.629881"><ele></ele><time>2017-9-19T0:8:34Z</time></trkpt>
<trkpt lat="48.426978" lon="2.629883"><ele></ele><time>2017-9-19T0:8:37Z</time></trkpt>
<trkpt lat="48.427115" lon="2.629848"><ele></ele><time>2017-9-19T0:8:40Z</time></trkpt>
<trkpt lat="48.42722" lon="2.629807"><ele></ele><time>2017-9-19T0:8:43Z</time></trkpt>
<trkpt lat="48.427342" lon="2.629771"><ele></ele><time>2017-9-19T0:8:46Z</time></trkpt>
<trkpt lat="48.427439" lon="2.629739"><ele></ele><time>2017-9-19T0:8:49Z</time></trkpt>
<trkpt lat="48.427647" lon="2.629666"><ele></ele><time>2017-9-19T0:8:52Z</time></trkpt>
<trkpt lat="48.427745" lon="2.629621"><ele></ele><time>2017-9-19T0:8:55Z</time></trkpt>
<trkpt lat="48.427881" lon="2.629609"><ele></ele><time>2017-9-19T0:8:58Z</time></trkpt>
<trkpt lat="48.427995" lon="2.629667"><ele></ele><time>2017-9-19T0:9:1Z</time></trkpt>
<trkpt lat="48.428087" lon="2.629671"><ele></ele><time>2017-9-19T0:9:4Z</time></trkpt>
<trkpt lat="48.428178" lon="2.629666"><ele></ele><time>2017-9-19T0:9:7Z</time></trkpt>
<trkpt lat="48.428278" lon="2.629633"><ele></ele><time>2017-9-19T0:9:10Z</time></trkpt>
<trkpt lat="48.428361" lon="2.629525"><ele></ele><time>2017-9-19T0:9:13Z</time></trkpt>
<trkpt lat="48.428458" lon="2.629561"><ele></ele><time>2017-9-19T0:9:16Z</time></trkpt>
<trkpt lat="48.428552" lon="2.629579"><ele></ele><time>2017-9-19T0:9:19Z</time></trkpt>
<trkpt lat="48.42869" lon="2.629471"><ele></ele><time>2017-9-19T0:9:22Z</time></trkpt>
<trkpt lat="48.428804" lon="2.629483"><ele></ele><time>2017-9-19T0:9:25Z</time></trkpt>
<trkpt lat="48.428906" lon="2.62948"><ele></ele><time>2017-9-19T0:9:28Z</time></trkpt>
<trkpt lat="48.429044" lon="2.629522"><ele></ele><time>2017-9-19T0:9:31Z</time></trkpt>
<trkpt lat="48.429151" lon="2.629478"><ele></ele><time>2017-9-19T0:9:34Z</time></trkpt>
<trkpt lat="48.429343" lon="2.629495"><ele></ele><time>2017-9-19T0:9:37Z</time></trkpt>
<trkpt lat="48.429461" lon="2.629448"><ele></ele><time>2017-9-19T0:9:40Z</time></trkpt>
<trkpt lat="48.42957" lon="2.629435"><ele></ele><time>2017-9-19T0:9:43Z</time></trkpt>
<trkpt lat="48.429688" lon="2.629387"><ele></ele><time>2017-9-19T0:9:46Z</time></trkpt>
<trkpt lat="48.429801" lon="2.629375"><ele></ele><time>2017-9-19T0:9:49Z</time></trkpt>
<trkpt lat="48.429906" lon="2.629342"><ele></ele><time>2017-9-19T0:9:52Z</time></trkpt>
<trkpt lat="48.430008" lon="2.629323"><ele></ele><time>2017-9-19T0:9:55Z</time></trkpt>
<trkpt lat="48.430112" lon="2.629326"><ele></ele><time>2017-9-19T0:9:58Z</time></trkpt>
<trkpt lat="48.430246" lon="2.629213"><ele></ele><time>2017-9-19T0:10:1Z</time></trkpt>
<trkpt lat="48.430378" lon="2.629251"><ele></ele><time>2017-9-19T0:10:4Z</time></trkpt>
<trkpt lat="48.430435" lon="2.62937"><ele></ele><time>2017-9-19T0:10:7Z</time></trkpt>
<trkpt lat="48.430452" lon="2.629516"><ele></ele><time>2017-9-19T0:10:10Z</time></trkpt>
<trkpt lat="48.430434" lon="2.629738"><ele></ele><time>2017-9-19T0:10:13Z</time></trkpt>
<trkpt lat="48.43045" lon="2.629897"><ele></ele><time>2017-9-19T0:10:16Z</time></trkpt>
<trkpt lat="48.430497" lon="2.630217"><ele></ele><time>2017-9-19T0:10:19Z</time></trkpt>
<trkpt lat="48.430501" lon="2.630381"><ele></ele><time>2017-9-19T0:10:22Z</time></trkpt>
<trkpt lat="48.430508" lon="2.630541"><ele></ele><time>2017-9-19T0:10:25Z</time></trkpt>
<trkpt lat="48.430475" lon="2.630705"><ele></ele><time>2017-9-19T0:10:28Z</time></trkpt>
<trkpt lat="48.430485" lon="2.63084"><ele></ele><time>2017-9-19T0:10:31Z</time></trkpt>
<trkpt lat="48.430517" lon="2.631"><ele></ele><time>2017-9-19T0:10:34Z</time></trkpt>
<trkpt lat="48.430535" lon="2.631184"><ele></ele><time>2017-9-19T0:10:37Z</time></trkpt>
<trkpt lat="48.430572" lon="2.631437"><ele></ele><time>2017-9-19T0:10:40Z</time></trkpt>
<trkpt lat="48.430625" lon="2.631616"><ele></ele><time>2017-9-19T0:10:43Z</time></trkpt>
<trkpt lat="48.430694" lon="2.631781"><ele></ele><time>2017-9-19T0:10:46Z</time></trkpt>
<trkpt lat="48.430723" lon="2.631996"><ele></ele><time>2017-9-19T0:10:49Z</time></trkpt>
<trkpt lat="48.430764" lon="2.632135"><ele></ele><time>2017-9-19T0:10:52Z</time></trkpt>
<trkpt lat="48.43075" lon="2.632301"><ele></ele><time>2017-9-19T0:10:55Z</time></trkpt>
<trkpt lat="48.430727" lon="2.632474"><ele></ele><time>2017-9-19T0:10:58Z</time></trkpt>
<trkpt lat="48.430704" lon="2.632626"><ele></ele><time>2017-9-19T0:11:1Z</time></trkpt>
<trkpt lat="48.430651" lon="2.632792"><ele></ele><time>2017-9-19T0:11:4Z</time></trkpt>
<trkpt lat="48.430615" lon="2.632938"><ele></ele><time>2017-9-19T0:11:7Z</time></trkpt>
<trkpt lat="48.430579" lon="2.633269"><ele></ele><time>2017-9-19T0:11:10Z</time></trkpt>
<trkpt lat="48.430525" lon="2.633381"><ele></ele><time>2017-9-19T0:11:13Z</time></trkpt>
<trkpt lat="48.430478" lon="2.633602"><ele></ele><time>2017-9-19T0:11:16Z</time></trkpt>
<trkpt lat="48.430447" lon="2.633773"><ele></ele><time>2017-9-19T0:11:19Z</time></trkpt>
<trkpt lat="48.430391" lon="2.633883"><ele></ele><time>2017-9-19T0:11:22Z</time></trkpt>
<trkpt lat="48.430338" lon="2.634056"><ele></ele><time>2017-9-19T0:11:25Z</time></trkpt>
<trkpt lat="48.430285" lon="2.634221"><ele></ele><time>2017-9-19T0:11:28Z</time></trkpt>
<trkpt lat="48.430242" lon="2.634363"><ele></ele><time>2017-9-19T0:11:31Z</time></trkpt>
<trkpt lat="48.4302" lon="2.634529"><ele></ele><time>2017-9-19T0:11:34Z</time></trkpt>
<trkpt lat="48.430155" lon="2.634718"><ele></ele><time>2017-9-19T0:11:37Z</time></trkpt>
<trkpt lat="48.43009" lon="2.634837"><ele></ele><time>2017-9-19T0:11:40Z</time></trkpt>
<trkpt lat="48.430027" lon="2.634973"><ele></ele><time>2017-9-19T0:11:43Z</time></trkpt>
<trkpt lat="48.42995" lon="2.635123"><ele></ele><time>2017-9-19T0:11:46Z</time></trkpt>
<trkpt lat="48.429911" lon="2.635289"><ele></ele><time>2017-9-19T0:11:49Z</time></trkpt>
<trkpt lat="48.429908" lon="2.635458"><ele></ele><time>2017-9-19T0:11:52Z</time></trkpt>
<trkpt lat="48.429891" lon="2.635607"><ele></ele><time>2017-9-19T0:11:55Z</time></trkpt>
<trkpt lat="48.429865" lon="2.635789"><ele></ele><time>2017-9-19T0:11:58Z</time></trkpt>
<trkpt lat="48.42984" lon="2.636009"><ele></ele><time>2017-9-19T0:12:1Z</time></trkpt>
<trkpt lat="48.429832" lon="2.636357"><ele></ele><time>2017-9-19T0:12:4Z</time></trkpt>
<trkpt lat="48.429827" lon="2.636574"><ele></ele><time>2017-9-19T0:12:7Z</time></trkpt>
<trkpt lat="48.429809" lon="2.636738"><ele></ele><time>2017-9-19T0:12:10Z</time></trkpt>
<trkpt lat="48.429782" lon="2.636907"><ele></ele><time>2017-9-19T0:12:13Z</time></trkpt>
<trkpt lat="48.429719" lon="2.637016"><ele></ele><time>2017-9-19T0:12:16Z</time></trkpt>
<trkpt lat="48.429687" lon="2.637202"><ele></ele><time>2017-9-19T0:12:19Z</time></trkpt>
<trkpt lat="48.429649" lon="2.637377"><ele></ele><time>2017-9-19T0:12:22Z</time></trkpt>
<trkpt lat="48.429622" lon="2.637557"><ele></ele><time>2017-9-19T0:12:25Z</time></trkpt>
<trkpt lat="48.429555" lon="2.637774"><ele></ele><time>2017-9-19T0:12:28Z</time></trkpt>
<trkpt lat="48.429492" lon="2.637899"><ele></ele><time>2017-9-19T0:12:31Z</time></trkpt>
<trkpt lat="48.429468" lon="2.638046"><ele></ele><time>2017-9-19T0:12:34Z</time></trkpt>
<trkpt lat="48.429425" lon="2.638215"><ele></ele><time>2017-9-19T0:12:37Z</time></trkpt>
<trkpt lat="48.42939" lon="2.638388"><ele></ele><time>2017-9-19T0:12:40Z</time></trkpt>
<trkpt lat="48.429457" lon="2.638546"><ele></ele><time>2017-9-19T0:12:43Z</time></trkpt>
<trkpt lat="48.429532" lon="2.638693"><ele></ele><time>2017-9-19T0:12:46Z</time></trkpt>
<trkpt lat="48.429525" lon="2.638883"><ele></ele><time>2017-9-19T0:12:49Z</time></trkpt>
<trkpt lat="48.429593" lon="2.639044"><ele></ele><time>2017-9-19T0:12:52Z</time></trkpt>
<trkpt lat="48.429668" lon="2.639203"><ele></ele><time>2017-9-19T0:12:55Z</time></trkpt>
<trkpt lat="48.429701" lon="2.639365"><ele></ele><time>2017-9-19T0:12:58Z</time></trkpt>
<trkpt lat="48.429722" lon="2.639709"><ele></ele><time>2017-9-19T0:13:1Z</time></trkpt>
<trkpt lat="48.429668" lon="2.639838"><ele></ele><time>2017-9-19T0:13:4Z</time></trkpt>
<trkpt lat="48.429628" lon="2.639985"><ele></ele><time>2017-9-19T0:13:7Z</time></trkpt>
<trkpt lat="48.429613" lon="2.640189"><ele></ele><time>2017-9-19T0:13:10Z</time></trkpt>
<trkpt lat="48.429578" lon="2.640402"><ele></ele><time>2017-9-19T0:13:13Z</time></trkpt>
<trkpt lat="48.429554" lon="2.640595"><ele></ele><time>2017-9-19T0:13:16Z</time></trkpt>
<trkpt lat="48.429499" lon="2.640769"><ele></ele><time>2017-9-19T0:13:19Z</time></trkpt>
<trkpt lat="48.429406" lon="2.640915"><ele></ele><time>2017-9-19T0:13:22Z</time></trkpt>
<trkpt lat="48.429325" lon="2.641014"><ele></ele><time>2017-9-19T0:13:25Z</time></trkpt>
<trkpt lat="48.429245" lon="2.641205"><ele></ele><time>2017-9-19T0:13:28Z</time></trkpt>
<trkpt lat="48.429212" lon="2.641368"><ele></ele><time>2017-9-19T0:13:31Z</time></trkpt>
<trkpt lat="48.429158" lon="2.641613"><ele></ele><time>2017-9-19T0:13:34Z</time></trkpt>
<trkpt lat="48.429117" lon="2.641866"><ele></ele><time>2017-9-19T0:13:37Z</time></trkpt>
<trkpt lat="48.429097" lon="2.642033"><ele></ele><time>2017-9-19T0:13:40Z</time></trkpt>
<trkpt lat="48.429115" lon="2.642228"><ele></ele><time>2017-9-19T0:13:43Z</time></trkpt>
<trkpt lat="48.429068" lon="2.64246"><ele></ele><time>2017-9-19T0:13:46Z</time></trkpt>
<trkpt lat="48.429033" lon="2.642646"><ele></ele><time>2017-9-19T0:13:49Z</time></trkpt>
<trkpt lat="48.428996" lon="2.642814"><ele></ele><time>2017-9-19T0:13:52Z</time></trkpt>
<trkpt lat="48.428953" lon="2.642966"><ele></ele><time>2017-9-19T0:13:55Z</time></trkpt>
<trkpt lat="48.428929" lon="2.643106"><ele></ele><time>2017-9-19T0:13:58Z</time></trkpt>
<trkpt lat="48.428997" lon="2.643372"><ele></ele><time>2017-9-19T0:14:1Z</time></trkpt>
<trkpt lat="48.428931" lon="2.643746"><ele></ele><time>2017-9-19T0:14:4Z</time></trkpt>
<trkpt lat="48.428921" lon="2.644049"><ele></ele><time>2017-9-19T0:14:7Z</time></trkpt>
<trkpt lat="48.428907" lon="2.644341"><ele></ele><time>2017-9-19T0:14:10Z</time></trkpt>
<trkpt lat="48.428895" lon="2.644567"><ele></ele><time>2017-9-19T0:14:13Z</time></trkpt>
<trkpt lat="48.428832" lon="2.644721"><ele></ele><time>2017-9-19T0:14:16Z</time></trkpt>
<trkpt lat="48.428829" lon="2.644889"><ele></ele><time>2017-9-19T0:14:19Z</time></trkpt>
<trkpt lat="48.428856" lon="2.645052"><ele></ele><time>2017-9-19T0:14:22Z</time></trkpt>
<trkpt lat="48.428863" lon="2.645219"><ele></ele><time>2017-9-19T0:14:25Z</time></trkpt>
<trkpt lat="48.428894" lon="2.645364"><ele></ele><time>2017-9-19T0:14:28Z</time></trkpt>
<trkpt lat="48.428997" lon="2.645542"><ele></ele><time>2017-9-19T0:14:31Z</time></trkpt>
<trkpt lat="48.429057" lon="2.645672"><ele></ele><time>2017-9-19T0:14:34Z</time></trkpt>
<trkpt lat="48.429083" lon="2.645936"><ele></ele><time>2017-9-19T0:14:37Z</time></trkpt>
<trkpt lat="48.429142" lon="2.646127"><ele></ele><time>2017-9-19T0:14:40Z</time></trkpt>
<trkpt lat="48.429246" lon="2.646132"><ele></ele><time>2017-9-19T0:14:43Z</time></trkpt>
<trkpt lat="48.429331" lon="2.646188"><ele></ele><time>2017-9-19T0:14:46Z</time></trkpt>
<trkpt lat="48.429452" lon="2.646218"><ele></ele><time>2017-9-19T0:14:49Z</time></trkpt>
<trkpt lat="48.429543" lon="2.646267"><ele></ele><time>2017-9-19T0:14:52Z</time></trkpt>
<trkpt lat="48.429676" lon="2.646344"><ele></ele><time>2017-9-19T0:14:55Z</time></trkpt>
<trkpt lat="48.429787" lon="2.64644"><ele></ele><time>2017-9-19T0:14:58Z</time></trkpt>
<trkpt lat="48.42991" lon="2.646528"><ele></ele><time>2017-9-19T0:15:1Z</time></trkpt>
<trkpt lat="48.430014" lon="2.64654"><ele></ele><time>2017-9-19T0:15:4Z</time></trkpt>
<trkpt lat="48.430158" lon="2.646626"><ele></ele><time>2017-9-19T0:15:7Z</time></trkpt>
<trkpt lat="48.430291" lon="2.646847"><ele></ele><time>2017-9-19T0:15:10Z</time></trkpt>
<trkpt lat="48.430381" lon="2.646968"><ele></ele><time>2017-9-19T0:15:13Z</time></trkpt>
<trkpt lat="48.430458" lon="2.647081"><ele></ele><time>2017-9-19T0:15:16Z</time></trkpt>
<trkpt lat="48.430525" lon="2.647287"><ele></ele><time>2017-9-19T0:15:19Z</time></trkpt>
<trkpt lat="48.430584" lon="2.647411"><ele></ele><time>2017-9-19T0:15:22Z</time></trkpt>
<trkpt lat="48.430646" lon="2.647547"><ele></ele><time>2017-9-19T0:15:25Z</time></trkpt>
<trkpt lat="48.430705" lon="2.647699"><ele></ele><time>2017-9-19T0:15:28Z</time></trkpt>
<trkpt lat="48.430806" lon="2.647952"><ele></ele><time>2017-9-19T0:15:31Z</time></trkpt>
<trkpt lat="48.430847" lon="2.648151"><ele></ele><time>2017-9-19T0:15:34Z</time></trkpt>
<trkpt lat="48.43087" lon="2.648283"><ele></ele><time>2017-9-19T0:15:37Z</time></trkpt>
<trkpt lat="48.430907" lon="2.648411"><ele></ele><time>2017-9-19T0:15:40Z</time></trkpt>
<trkpt lat="48.430981" lon="2.648515"><ele></ele><time>2017-9-19T0:15:43Z</time></trkpt>
<trkpt lat="48.431078" lon="2.648576"><ele></ele><time>2017-9-19T0:15:46Z</time></trkpt>
<trkpt lat="48.431229" lon="2.648541"><ele></ele><time>2017-9-19T0:15:49Z</time></trkpt>
<trkpt lat="48.431327" lon="2.648454"><ele></ele><time>2017-9-19T0:15:52Z</time></trkpt>
<trkpt lat="48.431471" lon="2.648408"><ele></ele><time>2017-9-19T0:15:55Z</time></trkpt>
<trkpt lat="48.431568" lon="2.648316"><ele></ele><time>2017-9-19T0:15:58Z</time></trkpt>
<trkpt lat="48.431677" lon="2.648239"><ele></ele><time>2017-9-19T0:16:1Z</time></trkpt>
<trkpt lat="48.431815" lon="2.648121"><ele></ele><time>2017-9-19T0:16:4Z</time></trkpt>
<trkpt lat="48.431963" lon="2.648039"><ele></ele><time>2017-9-19T0:16:7Z</time></trkpt>
<trkpt lat="48.432194" lon="2.647867"><ele></ele><time>2017-9-19T0:16:10Z</time></trkpt>
<trkpt lat="48.432316" lon="2.647797"><ele></ele><time>2017-9-19T0:16:13Z</time></trkpt>
<trkpt lat="48.432431" lon="2.647732"><ele></ele><time>2017-9-19T0:16:16Z</time></trkpt>
<trkpt lat="48.432552" lon="2.647658"><ele></ele><time>2017-9-19T0:16:19Z</time></trkpt>
<trkpt lat="48.432632" lon="2.647581"><ele></ele><time>2017-9-19T0:16:22Z</time></trkpt>
<trkpt lat="48.432736" lon="2.647493"><ele></ele><time>2017-9-19T0:16:25Z</time></trkpt>
<trkpt lat="48.432844" lon="2.647411"><ele></ele><time>2017-9-19T0:16:28Z</time></trkpt>
<trkpt lat="48.43294" lon="2.647346"><ele></ele><time>2017-9-19T0:16:31Z</time></trkpt>
<trkpt lat="48.43307" lon="2.647243"><ele></ele><time>2017-9-19T0:16:34Z</time></trkpt>
<trkpt lat="48.433159" lon="2.647159"><ele></ele><time>2017-9-19T0:16:37Z</time></trkpt>
<trkpt lat="48.433301" lon="2.647082"><ele></ele><time>2017-9-19T0:16:40Z</time></trkpt>
<trkpt lat="48.433433" lon="2.647016"><ele></ele><time>2017-9-19T0:16:43Z</time></trkpt>
<trkpt lat="48.433524" lon="2.646936"><ele></ele><time>2017-9-19T0:16:46Z</time></trkpt>
<trkpt lat="48.433609" lon="2.646871"><ele></ele><time>2017-9-19T0:16:49Z</time></trkpt>
<trkpt lat="48.433729" lon="2.646817"><ele></ele><time>2017-9-19T0:16:52Z</time></trkpt>
<trkpt lat="48.433872" lon="2.646717"><ele></ele><time>2017-9-19T0:16:55Z</time></trkpt>
<trkpt lat="48.43397" lon="2.646668"><ele></ele><time>2017-9-19T0:16:58Z</time></trkpt>
<trkpt lat="48.434076" lon="2.64658"><ele></ele><time>2017-9-19T0:17:1Z</time></trkpt>
<trkpt lat="48.434214" lon="2.646519"><ele></ele><time>2017-9-19T0:17:4Z</time></trkpt>
<trkpt lat="48.434349" lon="2.646452"><ele></ele><time>2017-9-19T0:17:7Z</time></trkpt>
<trkpt lat="48.434638" lon="2.646262"><ele></ele><time>2017-9-19T0:17:10Z</time></trkpt>
<trkpt lat="48.434762" lon="2.646198"><ele></ele><time>2017-9-19T0:17:13Z</time></trkpt>
<trkpt lat="48.434866" lon="2.646171"><ele></ele><time>2017-9-19T0:17:16Z</time></trkpt>
<trkpt lat="48.434981" lon="2.646089"><ele></ele><time>2017-9-19T0:17:19Z</time></trkpt>
<trkpt lat="48.435086" lon="2.646045"><ele></ele><time>2017-9-19T0:17:22Z</time></trkpt>
<trkpt lat="48.435189" lon="2.645961"><ele></ele><time>2017-9-19T0:17:25Z</time></trkpt>
<trkpt lat="48.435305" lon="2.645897"><ele></ele><time>2017-9-19T0:17:28Z</time></trkpt>
<trkpt lat="48.435446" lon="2.645834"><ele></ele><time>2017-9-19T0:17:31Z</time></trkpt>
<trkpt lat="48.43555" lon="2.645752"><ele></ele><time>2017-9-19T0:17:34Z</time></trkpt>
<trkpt lat="48.435585" lon="2.645604"><ele></ele><time>2017-9-19T0:17:37Z</time></trkpt>
<trkpt lat="48.435657" lon="2.645442"><ele></ele><time>2017-9-19T0:17:40Z</time></trkpt>
<trkpt lat="48.435685" lon="2.645267"><ele></ele><time>2017-9-19T0:17:43Z</time></trkpt>
<trkpt lat="48.435766" lon="2.645084"><ele></ele><time>2017-9-19T0:17:46Z</time></trkpt>
<trkpt lat="48.435829" lon="2.644974"><ele></ele><time>2017-9-19T0:17:49Z</time></trkpt>
<trkpt lat="48.435891" lon="2.644823"><ele></ele><time>2017-9-19T0:17:52Z</time></trkpt>
<trkpt lat="48.435961" lon="2.644634"><ele></ele><time>2017-9-19T0:17:55Z</time></trkpt>
<trkpt lat="48.436027" lon="2.644514"><ele></ele><time>2017-9-19T0:17:58Z</time></trkpt>
<trkpt lat="48.43609" lon="2.644412"><ele></ele><time>2017-9-19T0:18:1Z</time></trkpt>
<trkpt lat="48.436164" lon="2.644246"><ele></ele><time>2017-9-19T0:18:4Z</time></trkpt>
<trkpt lat="48.436215" lon="2.644131"><ele></ele><time>2017-9-19T0:18:7Z</time></trkpt>
<trkpt lat="48.43629" lon="2.644019"><ele></ele><time>2017-9-19T0:18:10Z</time></trkpt>
<trkpt lat="48.436464" lon="2.643786"><ele></ele><time>2017-9-19T0:18:13Z</time></trkpt>
<trkpt lat="48.43654" lon="2.643699"><ele></ele><time>2017-9-19T0:18:16Z</time></trkpt>
<trkpt lat="48.436624" lon="2.643618"><ele></ele><time>2017-9-19T0:18:19Z</time></trkpt>
<trkpt lat="48.436748" lon="2.643533"><ele></ele><time>2017-9-19T0:18:22Z</time></trkpt>
<trkpt lat="48.436924" lon="2.643553"><ele></ele><time>2017-9-19T0:18:25Z</time></trkpt>
<trkpt lat="48.437061" lon="2.643552"><ele></ele><time>2017-9-19T0:18:28Z</time></trkpt>
<trkpt lat="48.437156" lon="2.643547"><ele></ele><time>2017-9-19T0:18:31Z</time></trkpt>
<trkpt lat="48.437258" lon="2.64354"><ele></ele><time>2017-9-19T0:18:34Z</time></trkpt>
<trkpt lat="48.437362" lon="2.643535"><ele></ele><time>2017-9-19T0:18:37Z</time></trkpt>
<trkpt lat="48.437469" lon="2.64351"><ele></ele><time>2017-9-19T0:18:40Z</time></trkpt>
<trkpt lat="48.437625" lon="2.643447"><ele></ele><time>2017-9-19T0:18:43Z</time></trkpt>
<trkpt lat="48.437729" lon="2.643406"><ele></ele><time>2017-9-19T0:18:46Z</time></trkpt>
<trkpt lat="48.43784" lon="2.643305"><ele></ele><time>2017-9-19T0:18:49Z</time></trkpt>
<trkpt lat="48.438023" lon="2.643154"><ele></ele><time>2017-9-19T0:18:52Z</time></trkpt>
<trkpt lat="48.438129" lon="2.643053"><ele></ele><time>2017-9-19T0:18:55Z</time></trkpt>
<trkpt lat="48.43824" lon="2.642962"><ele></ele><time>2017-9-19T0:18:58Z</time></trkpt>
<trkpt lat="48.438377" lon="2.642914"><ele></ele><time>2017-9-19T0:19:1Z</time></trkpt>
<trkpt lat="48.438466" lon="2.642847"><ele></ele><time>2017-9-19T0:19:4Z</time></trkpt>
<trkpt lat="48.438575" lon="2.642788"><ele></ele><time>2017-9-19T0:19:7Z</time></trkpt>
<trkpt lat="48.438662" lon="2.642754"><ele></ele><time>2017-9-19T0:19:10Z</time></trkpt>
<trkpt lat="48.438765" lon="2.642693"><ele></ele><time>2017-9-19T0:19:13Z</time></trkpt>
<trkpt lat="48.438876" lon="2.642649"><ele></ele><time>2017-9-19T0:19:16Z</time></trkpt>
<trkpt lat="48.439084" lon="2.642482"><ele></ele><time>2017-9-19T0:19:19Z</time></trkpt>
<trkpt lat="48.439215" lon="2.642415"><ele></ele><time>2017-9-19T0:19:22Z</time></trkpt>
<trkpt lat="48.439314" lon="2.642373"><ele></ele><time>2017-9-19T0:19:25Z</time></trkpt>
<trkpt lat="48.439413" lon="2.642313"><ele></ele><time>2017-9-19T0:19:28Z</time></trkpt>
<trkpt lat="48.439524" lon="2.642244"><ele></ele><time>2017-9-19T0:19:31Z</time></trkpt>
<trkpt lat="48.439626" lon="2.642174"><ele></ele><time>2017-9-19T0:19:34Z</time></trkpt>
<trkpt lat="48.439757" lon="2.642093"><ele></ele><time>2017-9-19T0:19:37Z</time></trkpt>
<trkpt lat="48.439857" lon="2.642004"><ele></ele><time>2017-9-19T0:19:40Z</time></trkpt>
<trkpt lat="48.439987" lon="2.641906"><ele></ele><time>2017-9-19T0:19:43Z</time></trkpt>
<trkpt lat="48.440082" lon="2.641853"><ele></ele><time>2017-9-19T0:19:46Z</time></trkpt>
<trkpt lat="48.440173" lon="2.641787"><ele></ele><time>2017-9-19T0:19:49Z</time></trkpt>
<trkpt lat="48.440264" lon="2.641729"><ele></ele><time>2017-9-19T0:19:52Z</time></trkpt>
<trkpt lat="48.440385" lon="2.641677"><ele></ele><time>2017-9-19T0:19:55Z</time></trkpt>
<trkpt lat="48.440468" lon="2.641622"><ele></ele><time>2017-9-19T0:19:58Z</time></trkpt>
<trkpt lat="48.440585" lon="2.641567"><ele></ele><time>2017-9-19T0:20:1Z</time></trkpt>
<trkpt lat="48.440709" lon="2.641485"><ele></ele><time>2017-9-19T0:20:4Z</time></trkpt>
<trkpt lat="48.440874" lon="2.641339"><ele></ele><time>2017-9-19T0:20:7Z</time></trkpt>
<trkpt lat="48.440991" lon="2.641263"><ele></ele><time>2017-9-19T0:20:10Z</time></trkpt>
<trkpt lat="48.441082" lon="2.641222"><ele></ele><time>2017-9-19T0:20:13Z</time></trkpt>
<trkpt lat="48.441166" lon="2.641163"><ele></ele><time>2017-9-19T0:20:16Z</time></trkpt>
<trkpt lat="48.441275" lon="2.641094"><ele></ele><time>2017-9-19T0:20:19Z</time></trkpt>
<trkpt lat="48.441356" lon="2.641034"><ele></ele><time>2017-9-19T0:20:22Z</time></trkpt>
<trkpt lat="48.441455" lon="2.64098"><ele></ele><time>2017-9-19T0:20:25Z</time></trkpt>
<trkpt lat="48.441574" lon="2.640913"><ele></ele><time>2017-9-19T0:20:28Z</time></trkpt>
<trkpt lat="48.441734" lon="2.640793"><ele></ele><time>2017-9-19T0:20:31Z</time></trkpt>
<trkpt lat="48.441974" lon="2.640598"><ele></ele><time>2017-9-19T0:20:34Z</time></trkpt>
<trkpt lat="48.44206" lon="2.640545"><ele></ele><time>2017-9-19T0:20:37Z</time></trkpt>
<trkpt lat="48.442151" lon="2.640551"><ele></ele><time>2017-9-19T0:20:40Z</time></trkpt>
<trkpt lat="48.442253" lon="2.640476"><ele></ele><time>2017-9-19T0:20:43Z</time></trkpt>
<trkpt lat="48.442346" lon="2.640416"><ele></ele><time>2017-9-19T0:20:46Z</time></trkpt>
<trkpt lat="48.442431" lon="2.640336"><ele></ele><time>2017-9-19T0:20:49Z</time></trkpt>
<trkpt lat="48.442529" lon="2.640284"><ele></ele><time>2017-9-19T0:20:52Z</time></trkpt>
<trkpt lat="48.442632" lon="2.64024"><ele></ele><time>2017-9-19T0:20:55Z</time></trkpt>
<trkpt lat="48.442716" lon="2.640181"><ele></ele><time>2017-9-19T0:20:58Z</time></trkpt>
<trkpt lat="48.442809" lon="2.640169"><ele></ele><time>2017-9-19T0:21:1Z</time></trkpt>
<trkpt lat="48.442975" lon="2.640004"><ele></ele><time>2017-9-19T0:21:4Z</time></trkpt>
<trkpt lat="48.443094" lon="2.639898"><ele></ele><time>2017-9-19T0:21:7Z</time></trkpt>
<trkpt lat="48.44319" lon="2.639749"><ele></ele><time>2017-9-19T0:21:10Z</time></trkpt>
<trkpt lat="48.44329" lon="2.639659"><ele></ele><time>2017-9-19T0:21:13Z</time></trkpt>
<trkpt lat="48.443376" lon="2.639576"><ele></ele><time>2017-9-19T0:21:16Z</time></trkpt>
<trkpt lat="48.443513" lon="2.639454"><ele></ele><time>2017-9-19T0:21:19Z</time></trkpt>
<trkpt lat="48.44361" lon="2.639311"><ele></ele><time>2017-9-19T0:21:22Z</time></trkpt>
<trkpt lat="48.443729" lon="2.639231"><ele></ele><time>2017-9-19T0:21:25Z</time></trkpt>
<trkpt lat="48.443826" lon="2.639162"><ele></ele><time>2017-9-19T0:21:28Z</time></trkpt>
<trkpt lat="48.444031" lon="2.639019"><ele></ele><time>2017-9-19T0:21:31Z</time></trkpt>
<trkpt lat="48.444143" lon="2.638904"><ele></ele><time>2017-9-19T0:21:34Z</time></trkpt>
<trkpt lat="48.444236" lon="2.638799"><ele></ele><time>2017-9-19T0:21:37Z</time></trkpt>
<trkpt lat="48.444345" lon="2.638626"><ele></ele><time>2017-9-19T0:21:40Z</time></trkpt>
<trkpt lat="48.444462" lon="2.6385"><ele></ele><time>2017-9-19T0:21:43Z</time></trkpt>
<trkpt lat="48.444557" lon="2.638405"><ele></ele><time>2017-9-19T0:21:46Z</time></trkpt>
<trkpt lat="48.444627" lon="2.638311"><ele></ele><time>2017-9-19T0:21:49Z</time></trkpt>
<trkpt lat="48.44475" lon="2.63823"><ele></ele><time>2017-9-19T0:21:52Z</time></trkpt>
<trkpt lat="48.444844" lon="2.638127"><ele></ele><time>2017-9-19T0:21:55Z</time></trkpt>
<trkpt lat="48.444924" lon="2.638052"><ele></ele><time>2017-9-19T0:21:58Z</time></trkpt>
<trkpt lat="48.445013" lon="2.637972"><ele></ele><time>2017-9-19T0:22:1Z</time></trkpt>
<trkpt lat="48.445082" lon="2.63788"><ele></ele><time>2017-9-19T0:22:4Z</time></trkpt>
<trkpt lat="48.445183" lon="2.63777"><ele></ele><time>2017-9-19T0:22:7Z</time></trkpt>
<trkpt lat="48.44524" lon="2.637612"><ele></ele><time>2017-9-19T0:22:10Z</time></trkpt>
<trkpt lat="48.445289" lon="2.637494"><ele></ele><time>2017-9-19T0:22:13Z</time></trkpt>
<trkpt lat="48.445351" lon="2.637361"><ele></ele><time>2017-9-19T0:22:16Z</time></trkpt>
<trkpt lat="48.445488" lon="2.637261"><ele></ele><time>2017-9-19T0:22:19Z</time></trkpt>
<trkpt lat="48.445625" lon="2.637249"><ele></ele><time>2017-9-19T0:22:22Z</time></trkpt>
<trkpt lat="48.445729" lon="2.637292"><ele></ele><time>2017-9-19T0:22:25Z</time></trkpt>
<trkpt lat="48.445911" lon="2.637549"><ele></ele><time>2017-9-19T0:22:28Z</time></trkpt>
<trkpt lat="48.44598" lon="2.637677"><ele></ele><time>2017-9-19T0:22:31Z</time></trkpt>
<trkpt lat="48.446061" lon="2.637793"><ele></ele><time>2017-9-19T0:22:34Z</time></trkpt>
<trkpt lat="48.446132" lon="2.637913"><ele></ele><time>2017-9-19T0:22:37Z</time></trkpt>
<trkpt lat="48.446145" lon="2.638069"><ele></ele><time>2017-9-19T0:22:40Z</time></trkpt>
<trkpt lat="48.446138" lon="2.638271"><ele></ele><time>2017-9-19T0:22:43Z</time></trkpt>
<trkpt lat="48.446106" lon="2.638411"><ele></ele><time>2017-9-19T0:22:46Z</time></trkpt>
<trkpt lat="48.446078" lon="2.63854"><ele></ele><time>2017-9-19T0:22:49Z</time></trkpt>
<trkpt lat="48.446037" lon="2.638701"><ele></ele><time>2017-9-19T0:22:52Z</time></trkpt>
<trkpt lat="48.446018" lon="2.638843"><ele></ele><time>2017-9-19T0:22:55Z</time></trkpt>
<trkpt lat="48.445999" lon="2.63906"><ele></ele><time>2017-9-19T0:22:58Z</time></trkpt>
<trkpt lat="48.445959" lon="2.639234"><ele></ele><time>2017-9-19T0:23:1Z</time></trkpt>
<trkpt lat="48.445908" lon="2.639397"><ele></ele><time>2017-9-19T0:23:4Z</time></trkpt>
<trkpt lat="48.445885" lon="2.639534"><ele></ele><time>2017-9-19T0:23:7Z</time></trkpt>
<trkpt lat="48.445856" lon="2.639695"><ele></ele><time>2017-9-19T0:23:10Z</time></trkpt>
<trkpt lat="48.445801" lon="2.639984"><ele></ele><time>2017-9-19T0:23:13Z</time></trkpt>
<trkpt lat="48.445762" lon="2.640204"><ele></ele><time>2017-9-19T0:23:16Z</time></trkpt>
<trkpt lat="48.445744" lon="2.640347"><ele></ele><time>2017-9-19T0:23:19Z</time></trkpt>
<trkpt lat="48.445709" lon="2.640512"><ele></ele><time>2017-9-19T0:23:22Z</time></trkpt>
<trkpt lat="48.445692" lon="2.640671"><ele></ele><time>2017-9-19T0:23:25Z</time></trkpt>
<trkpt lat="48.445664" lon="2.640826"><ele></ele><time>2017-9-19T0:23:28Z</time></trkpt>
<trkpt lat="48.445593" lon="2.640932"><ele></ele><time>2017-9-19T0:23:31Z</time></trkpt>
<trkpt lat="48.445551" lon="2.641057"><ele></ele><time>2017-9-19T0:23:34Z</time></trkpt>
<trkpt lat="48.445542" lon="2.64122"><ele></ele><time>2017-9-19T0:23:37Z</time></trkpt>
<trkpt lat="48.445521" lon="2.641371"><ele></ele><time>2017-9-19T0:23:40Z</time></trkpt>
<trkpt lat="48.445523" lon="2.641549"><ele></ele><time>2017-9-19T0:23:43Z</time></trkpt>
<trkpt lat="48.445501" lon="2.641687"><ele></ele><time>2017-9-19T0:23:46Z</time></trkpt>
<trkpt lat="48.445496" lon="2.641827"><ele></ele><time>2017-9-19T0:23:49Z</time></trkpt>
<trkpt lat="48.445525" lon="2.64201"><ele></ele><time>2017-9-19T0:23:52Z</time></trkpt>
<trkpt lat="48.445522" lon="2.642196"><ele></ele><time>2017-9-19T0:23:55Z</time></trkpt>
<trkpt lat="48.445504" lon="2.642332"><ele></ele><time>2017-9-19T0:23:58Z</time></trkpt>
<trkpt lat="48.445455" lon="2.642714"><ele></ele><time>2017-9-19T0:24:1Z</time></trkpt>
<trkpt lat="48.445461" lon="2.642904"><ele></ele><time>2017-9-19T0:24:4Z</time></trkpt>
<trkpt lat="48.445446" lon="2.643047"><ele></ele><time>2017-9-19T0:24:7Z</time></trkpt>
<trkpt lat="48.445427" lon="2.643212"><ele></ele><time>2017-9-19T0:24:10Z</time></trkpt>
<trkpt lat="48.445433" lon="2.643375"><ele></ele><time>2017-9-19T0:24:13Z</time></trkpt>
<trkpt lat="48.445461" lon="2.64351"><ele></ele><time>2017-9-19T0:24:16Z</time></trkpt>
<trkpt lat="48.44553" lon="2.643599"><ele></ele><time>2017-9-19T0:24:19Z</time></trkpt>
<trkpt lat="48.445605" lon="2.643712"><ele></ele><time>2017-9-19T0:24:22Z</time></trkpt>
<trkpt lat="48.445698" lon="2.643733"><ele></ele><time>2017-9-19T0:24:25Z</time></trkpt>
<trkpt lat="48.445802" lon="2.643756"><ele></ele><time>2017-9-19T0:24:28Z</time></trkpt>
<trkpt lat="48.445934" lon="2.643765"><ele></ele><time>2017-9-19T0:24:31Z</time></trkpt>
<trkpt lat="48.446029" lon="2.6437"><ele></ele><time>2017-9-19T0:24:34Z</time></trkpt>
<trkpt lat="48.446133" lon="2.643697"><ele></ele><time>2017-9-19T0:24:37Z</time></trkpt>
<trkpt lat="48.446237" lon="2.643683"><ele></ele><time>2017-9-19T0:24:40Z</time></trkpt>
<trkpt lat="48.446348" lon="2.643724"><ele></ele><time>2017-9-19T0:24:43Z</time></trkpt>
<trkpt lat="48.446436" lon="2.643803"><ele></ele><time>2017-9-19T0:24:46Z</time></trkpt>
<trkpt lat="48.446495" lon="2.644031"><ele></ele><time>2017-9-19T0:24:49Z</time></trkpt>
<trkpt lat="48.446488" lon="2.64419"><ele></ele><time>2017-9-19T0:24:52Z</time></trkpt>
<trkpt lat="48.44643" lon="2.644353"><ele></ele><time>2017-9-19T0:24:55Z</time></trkpt>
<trkpt lat="48.446477" lon="2.644507"><ele></ele><time>2017-9-19T0:24:58Z</time></trkpt>
<trkpt lat="48.446512" lon="2.644633"><ele></ele><time>2017-9-19T0:25:1Z</time></trkpt>
<trkpt lat="48.44661" lon="2.644674"><ele></ele><time>2017-9-19T0:25:4Z</time></trkpt>
<trkpt lat="48.446713" lon="2.644646"><ele></ele><time>2017-9-19T0:25:7Z</time></trkpt>
<trkpt lat="48.446844" lon="2.644626"><ele></ele><time>2017-9-19T0:25:10Z</time></trkpt>
<trkpt lat="48.446944" lon="2.64469"><ele></ele><time>2017-9-19T0:25:13Z</time></trkpt>
<trkpt lat="48.447023" lon="2.644796"><ele></ele><time>2017-9-19T0:25:16Z</time></trkpt>
<trkpt lat="48.447124" lon="2.644817"><ele></ele><time>2017-9-19T0:25:19Z</time></trkpt>
<trkpt lat="48.447232" lon="2.644885"><ele></ele><time>2017-9-19T0:25:22Z</time></trkpt>
<trkpt lat="48.447384" lon="2.645072"><ele></ele><time>2017-9-19T0:25:25Z</time></trkpt>
<trkpt lat="48.447466" lon="2.645159"><ele></ele><time>2017-9-19T0:25:28Z</time></trkpt>
<trkpt lat="48.447595" lon="2.645265"><ele></ele><time>2017-9-19T0:25:31Z</time></trkpt>
<trkpt lat="48.447682" lon="2.645332"><ele></ele><time>2017-9-19T0:25:34Z</time></trkpt>
<trkpt lat="48.447796" lon="2.645313"><ele></ele><time>2017-9-19T0:25:37Z</time></trkpt>
<trkpt lat="48.447886" lon="2.645253"><ele></ele><time>2017-9-19T0:25:40Z</time></trkpt>
<trkpt lat="48.447982" lon="2.645218"><ele></ele><time>2017-9-19T0:25:43Z</time></trkpt>
<trkpt lat="48.448038" lon="2.64533"><ele></ele><time>2017-9-19T0:25:46Z</time></trkpt>
<trkpt lat="48.448079" lon="2.64549"><ele></ele><time>2017-9-19T0:25:49Z</time></trkpt>
<trkpt lat="48.448195" lon="2.64571"><ele></ele><time>2017-9-19T0:25:52Z</time></trkpt>
<trkpt lat="48.44829" lon="2.645691"><ele></ele><time>2017-9-19T0:25:55Z</time></trkpt>
<trkpt lat="48.448339" lon="2.645562"><ele></ele><time>2017-9-19T0:25:58Z</time></trkpt>
<trkpt lat="48.448433" lon="2.645537"><ele></ele><time>2017-9-19T0:26:1Z</time></trkpt>
<trkpt lat="48.448525" lon="2.645491"><ele></ele><time>2017-9-19T0:26:4Z</time></trkpt>
<trkpt lat="48.4486" lon="2.645375"><ele></ele><time>2017-9-19T0:26:7Z</time></trkpt>
<trkpt lat="48.448665" lon="2.64526"><ele></ele><time>2017-9-19T0:26:10Z</time></trkpt>
<trkpt lat="48.44885" lon="2.645236"><ele></ele><time>2017-9-19T0:26:13Z</time></trkpt>
<trkpt lat="48.448926" lon="2.645317"><ele></ele><time>2017-9-19T0:26:16Z</time></trkpt>
<trkpt lat="48.448958" lon="2.645444"><ele></ele><time>2017-9-19T0:26:19Z</time></trkpt>
<trkpt lat="48.448964" lon="2.645613"><ele></ele><time>2017-9-19T0:26:22Z</time></trkpt>
<trkpt lat="48.449004" lon="2.645751"><ele></ele><time>2017-9-19T0:26:25Z</time></trkpt>
<trkpt lat="48.449037" lon="2.645892"><ele></ele><time>2017-9-19T0:26:28Z</time></trkpt>
<trkpt lat="48.44906" lon="2.646025"><ele></ele><time>2017-9-19T0:26:31Z</time></trkpt>
<trkpt lat="48.449134" lon="2.646149"><ele></ele><time>2017-9-19T0:26:34Z</time></trkpt>
<trkpt lat="48.449215" lon="2.646268"><ele></ele><time>2017-9-19T0:26:37Z</time></trkpt>
<trkpt lat="48.449302" lon="2.646369"><ele></ele><time>2017-9-19T0:26:40Z</time></trkpt>
<trkpt lat="48.449443" lon="2.646581"><ele></ele><time>2017-9-19T0:26:43Z</time></trkpt>
<trkpt lat="48.449469" lon="2.646729"><ele></ele><time>2017-9-19T0:26:46Z</time></trkpt>
<trkpt lat="48.449487" lon="2.646863"><ele></ele><time>2017-9-19T0:26:49Z</time></trkpt>
<trkpt lat="48.449531" lon="2.646987"><ele></ele><time>2017-9-19T0:26:52Z</time></trkpt>
<trkpt lat="48.449627" lon="2.646936"><ele></ele><time>2017-9-19T0:26:55Z</time></trkpt>
<trkpt lat="48.449716" lon="2.646862"><ele></ele><time>2017-9-19T0:26:58Z</time></trkpt>
<trkpt lat="48.449783" lon="2.646745"><ele></ele><time>2017-9-19T0:27:1Z</time></trkpt>
<trkpt lat="48.449879" lon="2.646712"><ele></ele><time>2017-9-19T0:27:4Z</time></trkpt>
<trkpt lat="48.449964" lon="2.64677"><ele></ele><time>2017-9-19T0:27:7Z</time></trkpt>
<trkpt lat="48.45005" lon="2.646844"><ele></ele><time>2017-9-19T0:27:10Z</time></trkpt>
<trkpt lat="48.450259" lon="2.64704"><ele></ele><time>2017-9-19T0:27:13Z</time></trkpt>
<trkpt lat="48.450374" lon="2.647104"><ele></ele><time>2017-9-19T0:27:16Z</time></trkpt>
<trkpt lat="48.450471" lon="2.64719"><ele></ele><time>2017-9-19T0:27:19Z</time></trkpt>
<trkpt lat="48.450593" lon="2.647269"><ele></ele><time>2017-9-19T0:27:22Z</time></trkpt>
<trkpt lat="48.450699" lon="2.647359"><ele></ele><time>2017-9-19T0:27:25Z</time></trkpt>
<trkpt lat="48.450801" lon="2.647426"><ele></ele><time>2017-9-19T0:27:28Z</time></trkpt>
<trkpt lat="48.450931" lon="2.647531"><ele></ele><time>2017-9-19T0:27:31Z</time></trkpt>
<trkpt lat="48.451013" lon="2.647615"><ele></ele><time>2017-9-19T0:27:34Z</time></trkpt>
<trkpt lat="48.451126" lon="2.64769"><ele></ele><time>2017-9-19T0:27:37Z</time></trkpt>
<trkpt lat="48.451212" lon="2.647762"><ele></ele><time>2017-9-19T0:27:40Z</time></trkpt>
<trkpt lat="48.451303" lon="2.647834"><ele></ele><time>2017-9-19T0:27:43Z</time></trkpt>
<trkpt lat="48.451435" lon="2.647906"><ele></ele><time>2017-9-19T0:27:46Z</time></trkpt>
<trkpt lat="48.451538" lon="2.648002"><ele></ele><time>2017-9-19T0:27:49Z</time></trkpt>
<trkpt lat="48.451641" lon="2.648117"><ele></ele><time>2017-9-19T0:27:52Z</time></trkpt>
<trkpt lat="48.451735" lon="2.64818"><ele></ele><time>2017-9-19T0:27:55Z</time></trkpt>
<trkpt lat="48.451822" lon="2.648259"><ele></ele><time>2017-9-19T0:27:58Z</time></trkpt>
<trkpt lat="48.451896" lon="2.648338"><ele></ele><time>2017-9-19T0:28:1Z</time></trkpt>
<trkpt lat="48.4521" lon="2.648503"><ele></ele><time>2017-9-19T0:28:4Z</time></trkpt>
<trkpt lat="48.452179" lon="2.648579"><ele></ele><time>2017-9-19T0:28:7Z</time></trkpt>
<trkpt lat="48.452261" lon="2.648638"><ele></ele><time>2017-9-19T0:28:10Z</time></trkpt>
<trkpt lat="48.452362" lon="2.648698"><ele></ele><time>2017-9-19T0:28:13Z</time></trkpt>
<trkpt lat="48.452454" lon="2.648768"><ele></ele><time>2017-9-19T0:28:16Z</time></trkpt>
<trkpt lat="48.452559" lon="2.648813"><ele></ele><time>2017-9-19T0:28:19Z</time></trkpt>
<trkpt lat="48.452678" lon="2.648894"><ele></ele><time>2017-9-19T0:28:22Z</time></trkpt>
<trkpt lat="48.452784" lon="2.648942"><ele></ele><time>2017-9-19T0:28:25Z</time></trkpt>
<trkpt lat="48.452887" lon="2.648982"><ele></ele><time>2017-9-19T0:28:28Z</time></trkpt>
<trkpt lat="48.452977" lon="2.649035"><ele></ele><time>2017-9-19T0:28:31Z</time></trkpt>
<trkpt lat="48.453073" lon="2.649128"><ele></ele><time>2017-9-19T0:28:34Z</time></trkpt>
<trkpt lat="48.453196" lon="2.649272"><ele></ele><time>2017-9-19T0:28:37Z</time></trkpt>
<trkpt lat="48.453285" lon="2.649355"><ele></ele><time>2017-9-19T0:28:40Z</time></trkpt>
<trkpt lat="48.453388" lon="2.649473"><ele></ele><time>2017-9-19T0:28:43Z</time></trkpt>
<trkpt lat="48.453541" lon="2.649566"><ele></ele><time>2017-9-19T0:28:46Z</time></trkpt>
<trkpt lat="48.45366" lon="2.649662"><ele></ele><time>2017-9-19T0:28:49Z</time></trkpt>
<trkpt lat="48.453775" lon="2.649764"><ele></ele><time>2017-9-19T0:28:52Z</time></trkpt>
<trkpt lat="48.453897" lon="2.649864"><ele></ele><time>2017-9-19T0:28:55Z</time></trkpt>
<trkpt lat="48.453984" lon="2.649914"><ele></ele><time>2017-9-19T0:28:58Z</time></trkpt>
<trkpt lat="48.45414" lon="2.650066"><ele></ele><time>2017-9-19T0:29:1Z</time></trkpt>
<trkpt lat="48.454368" lon="2.650302"><ele></ele><time>2017-9-19T0:29:4Z</time></trkpt>
<trkpt lat="48.454445" lon="2.650375"><ele></ele><time>2017-9-19T0:29:7Z</time></trkpt>
<trkpt lat="48.454541" lon="2.650409"><ele></ele><time>2017-9-19T0:29:10Z</time></trkpt>
<trkpt lat="48.454651" lon="2.650472"><ele></ele><time>2017-9-19T0:29:13Z</time></trkpt>
<trkpt lat="48.454738" lon="2.650527"><ele></ele><time>2017-9-19T0:29:16Z</time></trkpt>
<trkpt lat="48.454824" lon="2.650616"><ele></ele><time>2017-9-19T0:29:19Z</time></trkpt>
<trkpt lat="48.454933" lon="2.650729"><ele></ele><time>2017-9-19T0:29:22Z</time></trkpt>
<trkpt lat="48.45505" lon="2.650785"><ele></ele><time>2017-9-19T0:29:25Z</time></trkpt>
<trkpt lat="48.455136" lon="2.650866"><ele></ele><time>2017-9-19T0:29:28Z</time></trkpt>
<trkpt lat="48.455237" lon="2.650918"><ele></ele><time>2017-9-19T0:29:31Z</time></trkpt>
<trkpt lat="48.455343" lon="2.651003"><ele></ele><time>2017-9-19T0:29:34Z</time></trkpt>
<trkpt lat="48.455451" lon="2.651099"><ele></ele><time>2017-9-19T0:29:37Z</time></trkpt>
<trkpt lat="48.455537" lon="2.651171"><ele></ele><time>2017-9-19T0:29:40Z</time></trkpt>
<trkpt lat="48.455663" lon="2.651257"><ele></ele><time>2017-9-19T0:29:43Z</time></trkpt>
<trkpt lat="48.455758" lon="2.651321"><ele></ele><time>2017-9-19T0:29:46Z</time></trkpt>
<trkpt lat="48.455842" lon="2.651373"><ele></ele><time>2017-9-19T0:29:49Z</time></trkpt>
<trkpt lat="48.455949" lon="2.651476"><ele></ele><time>2017-9-19T0:29:52Z</time></trkpt>
<trkpt lat="48.456021" lon="2.651569"><ele></ele><time>2017-9-19T0:29:55Z</time></trkpt>
<trkpt lat="48.45614" lon="2.651631"><ele></ele><time>2017-9-19T0:29:58Z</time></trkpt>
<trkpt lat="48.456248" lon="2.651733"><ele></ele><time>2017-9-19T0:30:1Z</time></trkpt>
<trkpt lat="48.456327" lon="2.651806"><ele></ele><time>2017-9-19T0:30:4Z</time></trkpt>
<trkpt lat="48.45643" lon="2.651914"><ele></ele><time>2017-9-19T0:30:7Z</time></trkpt>
<trkpt lat="48.456648" lon="2.652092"><ele></ele><time>2017-9-19T0:30:10Z</time></trkpt>
<trkpt lat="48.456755" lon="2.652163"><ele></ele><time>2017-9-19T0:30:13Z</time></trkpt>
<trkpt lat="48.456876" lon="2.652251"><ele></ele><time>2017-9-19T0:30:16Z</time></trkpt>
<trkpt lat="48.456984" lon="2.652301"><ele></ele><time>2017-9-19T0:30:19Z</time></trkpt>
<trkpt lat="48.457092" lon="2.652472"><ele></ele><time>2017-9-19T0:30:22Z</time></trkpt>
<trkpt lat="48.457224" lon="2.652521"><ele></ele><time>2017-9-19T0:30:25Z</time></trkpt>
<trkpt lat="48.457323" lon="2.652592"><ele></ele><time>2017-9-19T0:30:28Z</time></trkpt>
<trkpt lat="48.45746" lon="2.652664"><ele></ele><time>2017-9-19T0:30:31Z</time></trkpt>
<trkpt lat="48.457588" lon="2.652723"><ele></ele><time>2017-9-19T0:30:34Z</time></trkpt>
<trkpt lat="48.457629" lon="2.652893"><ele></ele><time>2017-9-19T0:30:37Z</time></trkpt>
<trkpt lat="48.457771" lon="2.653002"><ele></ele><time>2017-9-19T0:30:40Z</time></trkpt>
<trkpt lat="48.457842" lon="2.653102"><ele></ele><time>2017-9-19T0:30:43Z</time></trkpt>
<trkpt lat="48.457925" lon="2.65322"><ele></ele><time>2017-9-19T0:30:46Z</time></trkpt>
<trkpt lat="48.458008" lon="2.653294"><ele></ele><time>2017-9-19T0:30:49Z</time></trkpt>
<trkpt lat="48.458106" lon="2.653333"><ele></ele><time>2017-9-19T0:30:52Z</time></trkpt>
<trkpt lat="48.458198" lon="2.653358"><ele></ele><time>2017-9-19T0:30:55Z</time></trkpt>
<trkpt lat="48.45834" lon="2.653369"><ele></ele><time>2017-9-19T0:30:58Z</time></trkpt>
<trkpt lat="48.458439" lon="2.653407"><ele></ele><time>2017-9-19T0:31:1Z</time></trkpt>
<trkpt lat="48.458559" lon="2.653387"><ele></ele><time>2017-9-19T0:31:4Z</time></trkpt>
<trkpt lat="48.458669" lon="2.653364"><ele></ele><time>2017-9-19T0:31:7Z</time></trkpt>
<trkpt lat="48.458964" lon="2.653396"><ele></ele><time>2017-9-19T0:31:10Z</time></trkpt>
<trkpt lat="48.459071" lon="2.65341"><ele></ele><time>2017-9-19T0:31:13Z</time></trkpt>
<trkpt lat="48.459163" lon="2.653408"><ele></ele><time>2017-9-19T0:31:16Z</time></trkpt>
<trkpt lat="48.459245" lon="2.653496"><ele></ele><time>2017-9-19T0:31:19Z</time></trkpt>
<trkpt lat="48.45936" lon="2.653558"><ele></ele><time>2017-9-19T0:31:22Z</time></trkpt>
<trkpt lat="48.459451" lon="2.653653"><ele></ele><time>2017-9-19T0:31:25Z</time></trkpt>
<trkpt lat="48.459546" lon="2.653706"><ele></ele><time>2017-9-19T0:31:28Z</time></trkpt>
<trkpt lat="48.459611" lon="2.653828"><ele></ele><time>2017-9-19T0:31:31Z</time></trkpt>
<trkpt lat="48.459661" lon="2.654006"><ele></ele><time>2017-9-19T0:31:34Z</time></trkpt>
<trkpt lat="48.459676" lon="2.654176"><ele></ele><time>2017-9-19T0:31:37Z</time></trkpt>
<trkpt lat="48.459644" lon="2.654369"><ele></ele><time>2017-9-19T0:31:40Z</time></trkpt>
<trkpt lat="48.4596" lon="2.654506"><ele></ele><time>2017-9-19T0:31:43Z</time></trkpt>
<trkpt lat="48.459585" lon="2.654659"><ele></ele><time>2017-9-19T0:31:46Z</time></trkpt>
<trkpt lat="48.45953" lon="2.654802"><ele></ele><time>2017-9-19T0:31:49Z</time></trkpt>
<trkpt lat="48.459508" lon="2.65498"><ele></ele><time>2017-9-19T0:31:52Z</time></trkpt>
<trkpt lat="48.459443" lon="2.655124"><ele></ele><time>2017-9-19T0:31:55Z</time></trkpt>
<trkpt lat="48.459388" lon="2.655295"><ele></ele><time>2017-9-19T0:31:58Z</time></trkpt>
<trkpt lat="48.459357" lon="2.655489"><ele></ele><time>2017-9-19T0:32:1Z</time></trkpt>
<trkpt lat="48.459184" lon="2.655774"><ele></ele><time>2017-9-19T0:32:4Z</time></trkpt>
<trkpt lat="48.459116" lon="2.655882"><ele></ele><time>2017-9-19T0:32:7Z</time></trkpt>
<trkpt lat="48.459057" lon="2.656022"><ele></ele><time>2017-9-19T0:32:10Z</time></trkpt>
<trkpt lat="48.459013" lon="2.656171"><ele></ele><time>2017-9-19T0:32:13Z</time></trkpt>
<trkpt lat="48.458957" lon="2.656322"><ele></ele><time>2017-9-19T0:32:16Z</time></trkpt>
<trkpt lat="48.458872" lon="2.656473"><ele></ele><time>2017-9-19T0:32:19Z</time></trkpt>
<trkpt lat="48.458795" lon="2.656607"><ele></ele><time>2017-9-19T0:32:22Z</time></trkpt>
<trkpt lat="48.458731" lon="2.656727"><ele></ele><time>2017-9-19T0:32:25Z</time></trkpt>
<trkpt lat="48.458623" lon="2.656877"><ele></ele><time>2017-9-19T0:32:28Z</time></trkpt>
<trkpt lat="48.458537" lon="2.657005"><ele></ele><time>2017-9-19T0:32:31Z</time></trkpt>
<trkpt lat="48.458452" lon="2.657128"><ele></ele><time>2017-9-19T0:32:34Z</time></trkpt>
<trkpt lat="48.458358" lon="2.65723"><ele></ele><time>2017-9-19T0:32:37Z</time></trkpt>
<trkpt lat="48.458244" lon="2.657308"><ele></ele><time>2017-9-19T0:32:40Z</time></trkpt>
<trkpt lat="48.458146" lon="2.657341"><ele></ele><time>2017-9-19T0:32:43Z</time></trkpt>
<trkpt lat="48.458056" lon="2.65735"><ele></ele><time>2017-9-19T0:32:46Z</time></trkpt>
<trkpt lat="48.457919" lon="2.657395"><ele></ele><time>2017-9-19T0:32:49Z</time></trkpt>
<trkpt lat="48.457802" lon="2.65744"><ele></ele><time>2017-9-19T0:32:52Z</time></trkpt>
<trkpt lat="48.457688" lon="2.657537"><ele></ele><time>2017-9-19T0:32:55Z</time></trkpt>
<trkpt lat="48.457563" lon="2.657568"><ele></ele><time>2017-9-19T0:32:58Z</time></trkpt>
<trkpt lat="48.457499" lon="2.657694"><ele></ele><time>2017-9-19T0:33:1Z</time></trkpt>
<trkpt lat="48.457536" lon="2.657883"><ele></ele><time>2017-9-19T0:33:4Z</time></trkpt>
<trkpt lat="48.457707" lon="2.658069"><ele></ele><time>2017-9-19T0:33:7Z</time></trkpt>
<trkpt lat="48.457835" lon="2.658139"><ele></ele><time>2017-9-19T0:33:10Z</time></trkpt>
<trkpt lat="48.457948" lon="2.658209"><ele></ele><time>2017-9-19T0:33:13Z</time></trkpt>
<trkpt lat="48.458057" lon="2.658295"><ele></ele><time>2017-9-19T0:33:16Z</time></trkpt>
<trkpt lat="48.458158" lon="2.658441"><ele></ele><time>2017-9-19T0:33:19Z</time></trkpt>
<trkpt lat="48.458258" lon="2.658583"><ele></ele><time>2017-9-19T0:33:22Z</time></trkpt>
<trkpt lat="48.458322" lon="2.658736"><ele></ele><time>2017-9-19T0:33:25Z</time></trkpt>
<trkpt lat="48.458467" lon="2.658934"><ele></ele><time>2017-9-19T0:33:28Z</time></trkpt>
<trkpt lat="48.458544" lon="2.659058"><ele></ele><time>2017-9-19T0:33:31Z</time></trkpt>
<trkpt lat="48.45857" lon="2.659213"><ele></ele><time>2017-9-19T0:33:34Z</time></trkpt>
<trkpt lat="48.458587" lon="2.659408"><ele></ele><time>2017-9-19T0:33:37Z</time></trkpt>
<trkpt lat="48.458613" lon="2.659657"><ele></ele><time>2017-9-19T0:33:40Z</time></trkpt>
<trkpt lat="48.45863" lon="2.659835"><ele></ele><time>2017-9-19T0:33:43Z</time></trkpt>
<trkpt lat="48.458557" lon="2.660052"><ele></ele><time>2017-9-19T0:33:46Z</time></trkpt>
<trkpt lat="48.458556" lon="2.660224"><ele></ele><time>2017-9-19T0:33:49Z</time></trkpt>
<trkpt lat="48.458588" lon="2.660406"><ele></ele><time>2017-9-19T0:33:52Z</time></trkpt>
<trkpt lat="48.458657" lon="2.660548"><ele></ele><time>2017-9-19T0:33:55Z</time></trkpt>
<trkpt lat="48.458707" lon="2.660666"><ele></ele><time>2017-9-19T0:33:58Z</time></trkpt>
<trkpt lat="48.458799" lon="2.66077"><ele></ele><time>2017-9-19T0:34:1Z</time></trkpt>
<trkpt lat="48.458898" lon="2.660868"><ele></ele><time>2017-9-19T0:34:4Z</time></trkpt>
<trkpt lat="48.459041" lon="2.660946"><ele></ele><time>2017-9-19T0:34:7Z</time></trkpt>
<trkpt lat="48.459163" lon="2.661019"><ele></ele><time>2017-9-19T0:34:10Z</time></trkpt>
<trkpt lat="48.459303" lon="2.661141"><ele></ele><time>2017-9-19T0:34:13Z</time></trkpt>
<trkpt lat="48.459398" lon="2.661156"><ele></ele><time>2017-9-19T0:34:16Z</time></trkpt>
<trkpt lat="48.459543" lon="2.661275"><ele></ele><time>2017-9-19T0:34:19Z</time></trkpt>
<trkpt lat="48.459647" lon="2.661375"><ele></ele><time>2017-9-19T0:34:22Z</time></trkpt>
<trkpt lat="48.459874" lon="2.661452"><ele></ele><time>2017-9-19T0:34:25Z</time></trkpt>
<trkpt lat="48.459976" lon="2.661419"><ele></ele><time>2017-9-19T0:34:28Z</time></trkpt>
<trkpt lat="48.460069" lon="2.661354"><ele></ele><time>2017-9-19T0:34:31Z</time></trkpt>
<trkpt lat="48.460209" lon="2.661295"><ele></ele><time>2017-9-19T0:34:34Z</time></trkpt>
<trkpt lat="48.460331" lon="2.661259"><ele></ele><time>2017-9-19T0:34:37Z</time></trkpt>
<trkpt lat="48.460422" lon="2.661182"><ele></ele><time>2017-9-19T0:34:40Z</time></trkpt>
<trkpt lat="48.460536" lon="2.661038"><ele></ele><time>2017-9-19T0:34:43Z</time></trkpt>
<trkpt lat="48.460591" lon="2.660872"><ele></ele><time>2017-9-19T0:34:46Z</time></trkpt>
<trkpt lat="48.46067" lon="2.660783"><ele></ele><time>2017-9-19T0:34:49Z</time></trkpt>
<trkpt lat="48.460756" lon="2.66065"><ele></ele><time>2017-9-19T0:34:52Z</time></trkpt>
<trkpt lat="48.460839" lon="2.660558"><ele></ele><time>2017-9-19T0:34:55Z</time></trkpt>
<trkpt lat="48.460927" lon="2.660589"><ele></ele><time>2017-9-19T0:34:58Z</time></trkpt>
<trkpt lat="48.461017" lon="2.660503"><ele></ele><time>2017-9-19T0:35:1Z</time></trkpt>
<trkpt lat="48.461118" lon="2.660446"><ele></ele><time>2017-9-19T0:35:4Z</time></trkpt>
<trkpt lat="48.461351" lon="2.660525"><ele></ele><time>2017-9-19T0:35:7Z</time></trkpt>
<trkpt lat="48.461446" lon="2.66055"><ele></ele><time>2017-9-19T0:35:10Z</time></trkpt>
<trkpt lat="48.461552" lon="2.66059"><ele></ele><time>2017-9-19T0:35:13Z</time></trkpt>
<trkpt lat="48.461647" lon="2.660546"><ele></ele><time>2017-9-19T0:35:16Z</time></trkpt>
<trkpt lat="48.461789" lon="2.660471"><ele></ele><time>2017-9-19T0:35:19Z</time></trkpt>
<trkpt lat="48.461939" lon="2.66045"><ele></ele><time>2017-9-19T0:35:22Z</time></trkpt>
<trkpt lat="48.46206" lon="2.660392"><ele></ele><time>2017-9-19T0:35:25Z</time></trkpt>
<trkpt lat="48.462149" lon="2.660422"><ele></ele><time>2017-9-19T0:35:28Z</time></trkpt>
<trkpt lat="48.462239" lon="2.660409"><ele></ele><time>2017-9-19T0:35:31Z</time></trkpt>
<trkpt lat="48.462386" lon="2.660419"><ele></ele><time>2017-9-19T0:35:34Z</time></trkpt>
<trkpt lat="48.462499" lon="2.66043"><ele></ele><time>2017-9-19T0:35:37Z</time></trkpt>
<trkpt lat="48.462629" lon="2.660445"><ele></ele><time>2017-9-19T0:35:40Z</time></trkpt>
<trkpt lat="48.462802" lon="2.66047"><ele></ele><time>2017-9-19T0:35:43Z</time></trkpt>
<trkpt lat="48.462934" lon="2.660436"><ele></ele><time>2017-9-19T0:35:46Z</time></trkpt>
<trkpt lat="48.463059" lon="2.660437"><ele></ele><time>2017-9-19T0:35:49Z</time></trkpt>
<trkpt lat="48.463158" lon="2.660403"><ele></ele><time>2017-9-19T0:35:52Z</time></trkpt>
<trkpt lat="48.463314" lon="2.660459"><ele></ele><time>2017-9-19T0:35:55Z</time></trkpt>
<trkpt lat="48.463422" lon="2.660498"><ele></ele><time>2017-9-19T0:35:58Z</time></trkpt>
<trkpt lat="48.463527" lon="2.660552"><ele></ele><time>2017-9-19T0:36:1Z</time></trkpt>
<trkpt lat="48.463713" lon="2.660613"><ele></ele><time>2017-9-19T0:36:4Z</time></trkpt>
<trkpt lat="48.463915" lon="2.660601"><ele></ele><time>2017-9-19T0:36:7Z</time></trkpt>
<trkpt lat="48.464046" lon="2.660666"><ele></ele><time>2017-9-19T0:36:10Z</time></trkpt>
<trkpt lat="48.464143" lon="2.660657"><ele></ele><time>2017-9-19T0:36:13Z</time></trkpt>
<trkpt lat="48.464319" lon="2.660723"><ele></ele><time>2017-9-19T0:36:16Z</time></trkpt>
<trkpt lat="48.464444" lon="2.660724"><ele></ele><time>2017-9-19T0:36:19Z</time></trkpt>
<trkpt lat="48.464556" lon="2.660765"><ele></ele><time>2017-9-19T0:36:22Z</time></trkpt>
<trkpt lat="48.464651" lon="2.660844"><ele></ele><time>2017-9-19T0:36:25Z</time></trkpt>
<trkpt lat="48.464786" lon="2.660983"><ele></ele><time>2017-9-19T0:36:28Z</time></trkpt>
<trkpt lat="48.464899" lon="2.661044"><ele></ele><time>2017-9-19T0:36:31Z</time></trkpt>
<trkpt lat="48.465029" lon="2.661084"><ele></ele><time>2017-9-19T0:36:34Z</time></trkpt>
<trkpt lat="48.465152" lon="2.66125"><ele></ele><time>2017-9-19T0:36:37Z</time></trkpt>
<trkpt lat="48.465253" lon="2.661323"><ele></ele><time>2017-9-19T0:36:40Z</time></trkpt>
<trkpt lat="48.46537" lon="2.66144"><ele></ele><time>2017-9-19T0:36:43Z</time></trkpt>
<trkpt lat="48.465471" lon="2.66149"><ele></ele><time>2017-9-19T0:36:46Z</time></trkpt>
<trkpt lat="48.465585" lon="2.661572"><ele></ele><time>2017-9-19T0:36:49Z</time></trkpt>
<trkpt lat="48.465737" lon="2.661677"><ele></ele><time>2017-9-19T0:36:52Z</time></trkpt>
<trkpt lat="48.465871" lon="2.661743"><ele></ele><time>2017-9-19T0:36:55Z</time></trkpt>
<trkpt lat="48.465975" lon="2.661809"><ele></ele><time>2017-9-19T0:36:58Z</time></trkpt>
<trkpt lat="48.466053" lon="2.661908"><ele></ele><time>2017-9-19T0:37:1Z</time></trkpt>
<trkpt lat="48.46615" lon="2.66198"><ele></ele><time>2017-9-19T0:37:4Z</time></trkpt>
<trkpt lat="48.466296" lon="2.662059"><ele></ele><time>2017-9-19T0:37:7Z</time></trkpt>
<trkpt lat="48.466415" lon="2.662143"><ele></ele><time>2017-9-19T0:37:10Z</time></trkpt>
<trkpt lat="48.466663" lon="2.662313"><ele></ele><time>2017-9-19T0:37:13Z</time></trkpt>
<trkpt lat="48.466763" lon="2.662412"><ele></ele><time>2017-9-19T0:37:16Z</time></trkpt>
<trkpt lat="48.466867" lon="2.662462"><ele></ele><time>2017-9-19T0:37:19Z</time></trkpt>
<trkpt lat="48.466966" lon="2.662523"><ele></ele><time>2017-9-19T0:37:22Z</time></trkpt>
<trkpt lat="48.467057" lon="2.66256"><ele></ele><time>2017-9-19T0:37:25Z</time></trkpt>
<trkpt lat="48.467157" lon="2.662639"><ele></ele><time>2017-9-19T0:37:28Z</time></trkpt>
<trkpt lat="48.467238" lon="2.662715"><ele></ele><time>2017-9-19T0:37:31Z</time></trkpt>
<trkpt lat="48.467364" lon="2.662853"><ele></ele><time>2017-9-19T0:37:34Z</time></trkpt>
<trkpt lat="48.467451" lon="2.66291"><ele></ele><time>2017-9-19T0:37:37Z</time></trkpt>
<trkpt lat="48.467548" lon="2.662988"><ele></ele><time>2017-9-19T0:37:40Z</time></trkpt>
<trkpt lat="48.467647" lon="2.663033"><ele></ele><time>2017-9-19T0:37:43Z</time></trkpt>
<trkpt lat="48.467744" lon="2.663085"><ele></ele><time>2017-9-19T0:37:46Z</time></trkpt>
<trkpt lat="48.467839" lon="2.663076"><ele></ele><time>2017-9-19T0:37:49Z</time></trkpt>
<trkpt lat="48.467968" lon="2.663012"><ele></ele><time>2017-9-19T0:37:52Z</time></trkpt>
<trkpt lat="48.468072" lon="2.662955"><ele></ele><time>2017-9-19T0:37:55Z</time></trkpt>
<trkpt lat="48.468201" lon="2.662887"><ele></ele><time>2017-9-19T0:37:58Z</time></trkpt>
<trkpt lat="48.468343" lon="2.662847"><ele></ele><time>2017-9-19T0:38:1Z</time></trkpt>
<trkpt lat="48.468433" lon="2.662819"><ele></ele><time>2017-9-19T0:38:4Z</time></trkpt>
<trkpt lat="48.468591" lon="2.662719"><ele></ele><time>2017-9-19T0:38:7Z</time></trkpt>
<trkpt lat="48.468798" lon="2.662582"><ele></ele><time>2017-9-19T0:38:10Z</time></trkpt>
<trkpt lat="48.468938" lon="2.662486"><ele></ele><time>2017-9-19T0:38:13Z</time></trkpt>
<trkpt lat="48.469057" lon="2.662393"><ele></ele><time>2017-9-19T0:38:16Z</time></trkpt>
<trkpt lat="48.469211" lon="2.662315"><ele></ele><time>2017-9-19T0:38:19Z</time></trkpt>
<trkpt lat="48.469351" lon="2.662268"><ele></ele><time>2017-9-19T0:38:22Z</time></trkpt>
<trkpt lat="48.469483" lon="2.662238"><ele></ele><time>2017-9-19T0:38:25Z</time></trkpt>
<trkpt lat="48.4696" lon="2.662188"><ele></ele><time>2017-9-19T0:38:28Z</time></trkpt>
<trkpt lat="48.469691" lon="2.662158"><ele></ele><time>2017-9-19T0:38:31Z</time></trkpt>
<trkpt lat="48.469807" lon="2.662101"><ele></ele><time>2017-9-19T0:38:34Z</time></trkpt>
<trkpt lat="48.469934" lon="2.662018"><ele></ele><time>2017-9-19T0:38:37Z</time></trkpt>
<trkpt lat="48.470064" lon="2.661917"><ele></ele><time>2017-9-19T0:38:40Z</time></trkpt>
<trkpt lat="48.470178" lon="2.661868"><ele></ele><time>2017-9-19T0:38:43Z</time></trkpt>
<trkpt lat="48.47029" lon="2.661816"><ele></ele><time>2017-9-19T0:38:46Z</time></trkpt>
<trkpt lat="48.470411" lon="2.661761"><ele></ele><time>2017-9-19T0:38:49Z</time></trkpt>
<trkpt lat="48.470528" lon="2.661683"><ele></ele><time>2017-9-19T0:38:52Z</time></trkpt>
<trkpt lat="48.470628" lon="2.66168"><ele></ele><time>2017-9-19T0:38:55Z</time></trkpt>
<trkpt lat="48.470721" lon="2.661631"><ele></ele><time>2017-9-19T0:38:58Z</time></trkpt>
<trkpt lat="48.470859" lon="2.661601"><ele></ele><time>2017-9-19T0:39:1Z</time></trkpt>
<trkpt lat="48.471006" lon="2.661533"><ele></ele><time>2017-9-19T0:39:4Z</time></trkpt>
<trkpt lat="48.471127" lon="2.661461"><ele></ele><time>2017-9-19T0:39:7Z</time></trkpt>
<trkpt lat="48.471225" lon="2.661381"><ele></ele><time>2017-9-19T0:39:10Z</time></trkpt>
<trkpt lat="48.471436" lon="2.661206"><ele></ele><time>2017-9-19T0:39:13Z</time></trkpt>
<trkpt lat="48.471529" lon="2.661171"><ele></ele><time>2017-9-19T0:39:16Z</time></trkpt>
<trkpt lat="48.471686" lon="2.661076"><ele></ele><time>2017-9-19T0:39:19Z</time></trkpt>
<trkpt lat="48.471845" lon="2.660997"><ele></ele><time>2017-9-19T0:39:22Z</time></trkpt>
<trkpt lat="48.471944" lon="2.660949"><ele></ele><time>2017-9-19T0:39:25Z</time></trkpt>
<trkpt lat="48.472035" lon="2.660911"><ele></ele><time>2017-9-19T0:39:28Z</time></trkpt>
<trkpt lat="48.47218" lon="2.660863"><ele></ele><time>2017-9-19T0:39:31Z</time></trkpt>
<trkpt lat="48.472376" lon="2.660824"><ele></ele><time>2017-9-19T0:39:34Z</time></trkpt>
<trkpt lat="48.47248" lon="2.660814"><ele></ele><time>2017-9-19T0:39:37Z</time></trkpt>
<trkpt lat="48.472575" lon="2.660807"><ele></ele><time>2017-9-19T0:39:40Z</time></trkpt>
<trkpt lat="48.472688" lon="2.66084"><ele></ele><time>2017-9-19T0:39:43Z</time></trkpt>
<trkpt lat="48.472862" lon="2.660835"><ele></ele><time>2017-9-19T0:39:46Z</time></trkpt>
<trkpt lat="48.472953" lon="2.660845"><ele></ele><time>2017-9-19T0:39:49Z</time></trkpt>
<trkpt lat="48.473055" lon="2.660859"><ele></ele><time>2017-9-19T0:39:52Z</time></trkpt>
<trkpt lat="48.473193" lon="2.660849"><ele></ele><time>2017-9-19T0:39:55Z</time></trkpt>
<trkpt lat="48.473329" lon="2.660906"><ele></ele><time>2017-9-19T0:39:58Z</time></trkpt>
<trkpt lat="48.473428" lon="2.660883"><ele></ele><time>2017-9-19T0:40:1Z</time></trkpt>
<trkpt lat="48.473533" lon="2.660889"><ele></ele><time>2017-9-19T0:40:4Z</time></trkpt>
<trkpt lat="48.473637" lon="2.66094"><ele></ele><time>2017-9-19T0:40:7Z</time></trkpt>
<trkpt lat="48.473754" lon="2.660964"><ele></ele><time>2017-9-19T0:40:10Z</time></trkpt>
<trkpt lat="48.473874" lon="2.660999"><ele></ele><time>2017-9-19T0:40:13Z</time></trkpt>
<trkpt lat="48.474193" lon="2.661062"><ele></ele><time>2017-9-19T0:40:16Z</time></trkpt>
<trkpt lat="48.474286" lon="2.661083"><ele></ele><time>2017-9-19T0:40:19Z</time></trkpt>
<trkpt lat="48.474392" lon="2.661123"><ele></ele><time>2017-9-19T0:40:22Z</time></trkpt>
<trkpt lat="48.474485" lon="2.661116"><ele></ele><time>2017-9-19T0:40:25Z</time></trkpt>
<trkpt lat="48.474596" lon="2.661128"><ele></ele><time>2017-9-19T0:40:28Z</time></trkpt>
<trkpt lat="48.474709" lon="2.661151"><ele></ele><time>2017-9-19T0:40:31Z</time></trkpt>
<trkpt lat="48.474859" lon="2.661189"><ele></ele><time>2017-9-19T0:40:34Z</time></trkpt>
<trkpt lat="48.474948" lon="2.661211"><ele></ele><time>2017-9-19T0:40:37Z</time></trkpt>
<trkpt lat="48.475049" lon="2.661248"><ele></ele><time>2017-9-19T0:40:40Z</time></trkpt>
<trkpt lat="48.475142" lon="2.66128"><ele></ele><time>2017-9-19T0:40:43Z</time></trkpt>
<trkpt lat="48.475249" lon="2.661294"><ele></ele><time>2017-9-19T0:40:46Z</time></trkpt>
<trkpt lat="48.475374" lon="2.661303"><ele></ele><time>2017-9-19T0:40:49Z</time></trkpt>
<trkpt lat="48.475467" lon="2.661297"><ele></ele><time>2017-9-19T0:40:52Z</time></trkpt>
<trkpt lat="48.475658" lon="2.661326"><ele></ele><time>2017-9-19T0:40:55Z</time></trkpt>
<trkpt lat="48.475753" lon="2.661311"><ele></ele><time>2017-9-19T0:40:58Z</time></trkpt>
<trkpt lat="48.475888" lon="2.66134"><ele></ele><time>2017-9-19T0:41:1Z</time></trkpt>
<trkpt lat="48.475987" lon="2.661331"><ele></ele><time>2017-9-19T0:41:4Z</time></trkpt>
<trkpt lat="48.476113" lon="2.661327"><ele></ele><time>2017-9-19T0:41:7Z</time></trkpt>
<trkpt lat="48.476248" lon="2.661362"><ele></ele><time>2017-9-19T0:41:10Z</time></trkpt>
<trkpt lat="48.476338" lon="2.661348"><ele></ele><time>2017-9-19T0:41:13Z</time></trkpt>
<trkpt lat="48.476477" lon="2.661379"><ele></ele><time>2017-9-19T0:41:16Z</time></trkpt>
<trkpt lat="48.476584" lon="2.661379"><ele></ele><time>2017-9-19T0:41:19Z</time></trkpt>
<trkpt lat="48.476716" lon="2.661425"><ele></ele><time>2017-9-19T0:41:22Z</time></trkpt>
<trkpt lat="48.476916" lon="2.661408"><ele></ele><time>2017-9-19T0:41:25Z</time></trkpt>
<trkpt lat="48.47701" lon="2.661451"><ele></ele><time>2017-9-19T0:41:28Z</time></trkpt>
<trkpt lat="48.477138" lon="2.66147"><ele></ele><time>2017-9-19T0:41:31Z</time></trkpt>
<trkpt lat="48.47728" lon="2.661489"><ele></ele><time>2017-9-19T0:41:34Z</time></trkpt>
<trkpt lat="48.477426" lon="2.661515"><ele></ele><time>2017-9-19T0:41:37Z</time></trkpt>
<trkpt lat="48.477551" lon="2.661547"><ele></ele><time>2017-9-19T0:41:40Z</time></trkpt>
<trkpt lat="48.477643" lon="2.661554"><ele></ele><time>2017-9-19T0:41:43Z</time></trkpt>
<trkpt lat="48.477774" lon="2.661586"><ele></ele><time>2017-9-19T0:41:46Z</time></trkpt>
<trkpt lat="48.477883" lon="2.661607"><ele></ele><time>2017-9-19T0:41:49Z</time></trkpt>
<trkpt lat="48.478029" lon="2.661591"><ele></ele><time>2017-9-19T0:41:52Z</time></trkpt>
<trkpt lat="48.478161" lon="2.661614"><ele></ele><time>2017-9-19T0:41:55Z</time></trkpt>
<trkpt lat="48.478295" lon="2.661589"><ele></ele><time>2017-9-19T0:41:58Z</time></trkpt>
<trkpt lat="48.478426" lon="2.661584"><ele></ele><time>2017-9-19T0:42:1Z</time></trkpt>
<trkpt lat="48.478529" lon="2.661606"><ele></ele><time>2017-9-19T0:42:4Z</time></trkpt>
<trkpt lat="48.478638" lon="2.661618"><ele></ele><time>2017-9-19T0:42:7Z</time></trkpt>
<trkpt lat="48.478719" lon="2.661707"><ele></ele><time>2017-9-19T0:42:10Z</time></trkpt>
<trkpt lat="48.478812" lon="2.66172"><ele></ele><time>2017-9-19T0:42:13Z</time></trkpt>
<trkpt lat="48.478911" lon="2.661784"><ele></ele><time>2017-9-19T0:42:16Z</time></trkpt>
<trkpt lat="48.47902" lon="2.661792"><ele></ele><time>2017-9-19T0:42:19Z</time></trkpt>
<trkpt lat="48.47911" lon="2.661785"><ele></ele><time>2017-9-19T0:42:22Z</time></trkpt>
<trkpt lat="48.479318" lon="2.661792"><ele></ele><time>2017-9-19T0:42:25Z</time></trkpt>
<trkpt lat="48.479442" lon="2.6618"><ele></ele><time>2017-9-19T0:42:28Z</time></trkpt>
<trkpt lat="48.479568" lon="2.661835"><ele></ele><time>2017-9-19T0:42:31Z</time></trkpt>
<trkpt lat="48.479686" lon="2.661854"><ele></ele><time>2017-9-19T0:42:34Z</time></trkpt>
<trkpt lat="48.479797" lon="2.661843"><ele></ele><time>2017-9-19T0:42:37Z</time></trkpt>
<trkpt lat="48.479889" lon="2.661856"><ele></ele><time>2017-9-19T0:42:40Z</time></trkpt>
<trkpt lat="48.479987" lon="2.661898"><ele></ele><time>2017-9-19T0:42:43Z</time></trkpt>
<trkpt lat="48.480071" lon="2.66198"><ele></ele><time>2017-9-19T0:42:46Z</time></trkpt>
<trkpt lat="48.480163" lon="2.661953"><ele></ele><time>2017-9-19T0:42:49Z</time></trkpt>
<trkpt lat="48.480239" lon="2.662034"><ele></ele><time>2017-9-19T0:42:52Z</time></trkpt>
<trkpt lat="48.480327" lon="2.662149"><ele></ele><time>2017-9-19T0:42:55Z</time></trkpt>
<trkpt lat="48.480435" lon="2.662213"><ele></ele><time>2017-9-19T0:42:58Z</time></trkpt>
<trkpt lat="48.480517" lon="2.662308"><ele></ele><time>2017-9-19T0:43:1Z</time></trkpt>
<trkpt lat="48.480591" lon="2.662414"><ele></ele><time>2017-9-19T0:43:4Z</time></trkpt>
<trkpt lat="48.480656" lon="2.662523"><ele></ele><time>2017-9-19T0:43:7Z</time></trkpt>
<trkpt lat="48.480747" lon="2.66261"><ele></ele><time>2017-9-19T0:43:10Z</time></trkpt>
<trkpt lat="48.480811" lon="2.662758"><ele></ele><time>2017-9-19T0:43:13Z</time></trkpt>
<trkpt lat="48.481009" lon="2.66293"><ele></ele><time>2017-9-19T0:43:16Z</time></trkpt>
<trkpt lat="48.481074" lon="2.663035"><ele></ele><time>2017-9-19T0:43:19Z</time></trkpt>
<trkpt lat="48.481162" lon="2.663147"><ele></ele><time>2017-9-19T0:43:22Z</time></trkpt>
<trkpt lat="48.481235" lon="2.663305"><ele></ele><time>2017-9-19T0:43:25Z</time></trkpt>
<trkpt lat="48.481247" lon="2.663482"><ele></ele><time>2017-9-19T0:43:28Z</time></trkpt>
<trkpt lat="48.481337" lon="2.663577"><ele></ele><time>2017-9-19T0:43:31Z</time></trkpt>
<trkpt lat="48.481433" lon="2.663713"><ele></ele><time>2017-9-19T0:43:34Z</time></trkpt>
<trkpt lat="48.481521" lon="2.663818"><ele></ele><time>2017-9-19T0:43:37Z</time></trkpt>
<trkpt lat="48.481616" lon="2.663887"><ele></ele><time>2017-9-19T0:43:40Z</time></trkpt>
<trkpt lat="48.481677" lon="2.664014"><ele></ele><time>2017-9-19T0:43:43Z</time></trkpt>
<trkpt lat="48.481747" lon="2.664117"><ele></ele><time>2017-9-19T0:43:46Z</time></trkpt>
<trkpt lat="48.481815" lon="2.66421"><ele></ele><time>2017-9-19T0:43:49Z</time></trkpt>
<trkpt lat="48.482018" lon="2.664418"><ele></ele><time>2017-9-19T0:43:52Z</time></trkpt>
<trkpt lat="48.482102" lon="2.664492"><ele></ele><time>2017-9-19T0:43:55Z</time></trkpt>
<trkpt lat="48.482192" lon="2.664572"><ele></ele><time>2017-9-19T0:43:58Z</time></trkpt>
<trkpt lat="48.482237" lon="2.664704"><ele></ele><time>2017-9-19T0:44:1Z</time></trkpt>
<trkpt lat="48.482322" lon="2.664803"><ele></ele><time>2017-9-19T0:44:4Z</time></trkpt>
<trkpt lat="48.482406" lon="2.6649"><ele></ele><time>2017-9-19T0:44:7Z</time></trkpt>
<trkpt lat="48.482462" lon="2.665032"><ele></ele><time>2017-9-19T0:44:10Z</time></trkpt>
<trkpt lat="48.482539" lon="2.665162"><ele></ele><time>2017-9-19T0:44:13Z</time></trkpt>
<trkpt lat="48.482625" lon="2.665278"><ele></ele><time>2017-9-19T0:44:16Z</time></trkpt>
<trkpt lat="48.482681" lon="2.665386"><ele></ele><time>2017-9-19T0:44:19Z</time></trkpt>
<trkpt lat="48.482852" lon="2.665597"><ele></ele><time>2017-9-19T0:44:22Z</time></trkpt>
<trkpt lat="48.482934" lon="2.665661"><ele></ele><time>2017-9-19T0:44:25Z</time></trkpt>
<trkpt lat="48.483037" lon="2.665577"><ele></ele><time>2017-9-19T0:44:28Z</time></trkpt>
<trkpt lat="48.482948" lon="2.665612"><ele></ele><time>2017-9-19T0:44:31Z</time></trkpt>
</trkseg></trk></gpx>